[[{"header":{"parameterUnit":"m.s-1","parameterCategory":1,"la1":30.6,"la2":29.2853,"lo1":-89.7004,"lo2":-87.6739,"dy":0.0162,"dx":0.0183,"nx":112,"ny":82,"refTime":"2024-03-15T12:00:00:Z","depth":0,"parameterNumber":2,"parameterNumberName":"U-component_of_WINDS"},"data":[0.0,0.0,0.0,0.0,0.0,0.0,0.0,0.0,0.0,0.0,0.0,0.0,0.0,0.0,0.0,0.0,0.0,0.0,0.0,0.0,0.0,0.0,0.0,0.0,0.0,0.0,0.0,0.0,0.0,0.0,0.0,0.0,0.0,0.0,0.0,0.0,0.0,0.0,0.0,0.0,0.0,0.0,0.0,0.0,0.0,0.0,0.0,0.0,0.0,0.0,0.0,0.0,0.0,0.0,0.0,0.0,0.0,0.0,0.0,0.0,0.0,0.0,0.0,0.0,0.0,0.0,0.0,0.0,0.0,0.0,0.0,0.0,0.0,0.0,0.0,0.0,0.0,0.0,0.0,0.0,0.0,0.0,0.0,0.0,0.0,0.0,0.0,0.0,0.0,0.0,2.1485,2.2328,2.3219,2.394,2.4394,2.4581,2.4138,2.2838,0.0,0.0,0.0,0.0,0.0,0.0,0.0,0.0,0.0,0.0,0.0,0.0,0.0,0.0,0.0,0.0,0.0,0.0,0.0,0.0,0.0,0.0,0.0,0.0,0.0,0.0,0.0,0.0,0.0,0.0,0.0,0.0,0.0,0.0,0.0,0.0,0.0,0.0,0.0,0.0,0.0,0.0,0.0,0.0,0.0,0.0,0.0,0.0,0.0,0.0,0.0,0.0,0.0,0.0,0.0,0.0,0.0,0.0,0.0,0.0,0.0,0.0,0.0,0.0,0.0,0.0,0.0,0.0,0.0,0.0,0.0,0.0,0.0,0.0,0.0,0.0,0.0,0.0,0.0,0.0,0.0,0.0,0.0,0.0,0.0,0.0,0.0,0.0,0.0,0.0,0.0,0.0,0.0,0.0,0.0,0.0,0.0,0.0,0.0,0.0,0.0,0.0,0.0,0.0,2.2039,2.3625,2.4199,2.4594,2.4958,2.5,2.4312,2.2647,0.0,0.0,0.0,0.0,0.0,0.0,0.0,0.0,0.0,0.0,0.0,0.0,0.0,0.0,0.0,0.0,0.0,0.0,0.0,0.0,0.0,0.0,0.0,0.0,0.0,0.0,0.0,0.0,0.0,0.0,0.0,0.0,0.0,0.0,0.0,0.0,0.0,0.0,0.0,0.0,0.0,0.0,0.0,0.0,0.0,0.0,0.0,0.0,0.0,0.0,0.0,0.0,0.0,0.0,0.0,0.0,0.0,0.0,0.0,0.0,0.0,0.0,0.0,0.0,0.0,0.0,0.0,0.0,0.0,0.0,0.0,0.0,0.0,0.0,0.0,0.0,0.0,0.0,0.0,0.0,0.0,0.0,0.0,0.0,0.0,0.0,0.0,0.0,0.0,0.0,0.0,0.0,0.0,0.0,0.0,0.0,0.0,0.0,0.0,0.0,0.0,0.0,0.0,2.1654,2.2655,2.3803,2.4302,2.4706,2.5078,2.5068,2.4658,2.3745,2.3743,0.0,0.0,0.0,0.0,0.0,0.0,0.0,0.0,0.0,0.0,0.0,0.0,0.0,0.0,0.0,0.0,0.0,0.0,0.0,0.0,0.0,0.0,0.0,0.0,0.0,0.0,0.0,0.0,0.0,0.0,0.0,0.0,0.0,0.0,0.0,0.0,0.0,0.0,0.0,0.0,0.0,0.0,0.0,0.0,0.0,0.0,0.0,0.0,0.0,0.0,0.0,0.0,0.0,0.0,0.0,0.0,0.0,0.0,0.0,0.0,0.0,0.0,0.0,0.0,0.0,0.0,0.0,0.0,0.0,0.0,0.0,0.0,0.0,0.0,0.0,0.0,0.0,0.0,0.0,0.0,0.0,0.0,0.0,0.0,0.0,0.0,0.0,0.0,0.0,0.0,0.0,0.0,0.0,0.0,0.0,0.0,0.0,0.0,0.0,0.0,0.0,0.0,2.2259,2.3079,2.3796,2.4261,2.4696,2.5117,2.4954,2.4737,2.4483,2.3653,0.0,0.0,0.0,0.0,0.0,0.0,0.0,0.0,0.0,0.0,0.0,0.0,0.0,0.0,0.0,0.0,0.0,0.0,0.0,0.0,0.0,0.0,0.0,0.0,0.0,0.0,0.0,0.0,0.0,0.0,0.0,0.0,0.0,0.0,0.0,0.0,0.0,0.0,0.0,0.0,0.0,0.0,0.0,0.0,0.0,0.0,0.0,0.0,0.0,0.0,0.0,0.0,0.0,0.0,0.0,0.0,0.0,0.0,0.0,0.0,0.0,0.0,0.0,0.0,0.0,0.0,0.0,0.0,0.0,0.0,0.0,0.0,0.0,0.0,0.0,0.0,0.0,0.0,0.0,0.0,0.0,0.0,0.0,0.0,0.0,0.0,0.0,0.0,0.0,0.0,0.0,0.0,0.0,0.0,0.0,0.0,0.0,0.0,0.0,0.0,0.0,0.0,2.2162,2.3131,2.3992,2.4395,2.4771,2.5256,2.4718,2.4175,2.3783,2.3014,0.0,0.0,0.0,0.0,0.0,0.0,0.0,0.0,0.0,0.0,0.0,0.0,0.0,0.0,0.0,0.0,0.0,0.0,0.0,0.0,0.0,0.0,0.0,0.0,0.0,0.0,0.0,0.0,0.0,0.0,0.0,0.0,0.0,0.0,0.0,0.0,0.0,0.0,0.0,0.0,0.0,0.0,0.0,0.0,0.0,0.0,0.0,0.0,0.0,0.0,0.0,0.0,0.0,0.0,0.0,0.0,0.0,0.0,0.0,0.0,0.0,0.0,0.0,0.0,0.0,0.0,0.0,0.0,0.0,0.0,0.0,0.0,0.0,0.0,0.0,0.0,0.0,0.0,0.0,0.0,0.0,0.0,0.0,0.0,0.0,0.0,0.0,0.0,0.0,0.0,0.0,0.0,0.0,0.0,0.0,0.0,0.0,0.0,0.0,0.0,0.0,0.0,2.2509,2.3542,2.4157,2.4558,2.4974,2.5448,2.5181,2.4733,2.4115,0.0,0.0,0.0,0.0,0.0,0.0,0.0,0.0,0.0,0.0,0.0,0.0,0.0,0.0,0.0,0.0,0.0,0.0,0.0,0.0,0.0,0.0,0.0,0.0,0.0,0.0,0.0,0.0,0.0,0.0,0.0,0.0,0.0,0.0,0.0,0.0,0.0,0.0,0.0,0.0,0.0,0.0,0.0,0.0,0.0,0.0,0.0,0.0,0.0,0.0,0.0,0.0,0.0,0.0,0.0,0.0,0.0,0.0,0.0,0.0,0.0,0.0,0.0,0.0,0.0,0.0,0.0,0.0,0.0,0.0,0.0,0.0,0.0,0.0,0.0,0.0,0.0,0.0,0.0,0.0,0.0,0.0,0.0,0.0,0.0,0.0,0.0,0.0,0.0,0.0,0.0,0.0,0.0,0.0,0.0,0.0,0.0,0.0,0.0,0.0,0.0,0.0,2.1328,2.2708,2.3824,2.425,2.4705,2.514,2.5571,2.5354,2.4934,2.4276,0.0,0.0,0.0,0.0,0.0,0.0,0.0,0.0,0.0,0.0,0.0,0.0,0.0,0.0,0.0,0.0,0.0,0.0,0.0,0.0,0.0,0.0,0.0,0.0,0.0,0.0,0.0,0.0,0.0,0.0,0.0,0.0,0.0,0.0,0.0,0.0,0.0,0.0,0.0,0.0,0.0,0.0,0.0,0.0,0.0,0.0,0.0,0.0,0.0,0.0,0.0,0.0,0.0,0.0,0.0,0.0,0.0,0.0,0.0,0.0,0.0,0.0,0.0,0.0,0.0,0.0,0.0,0.0,0.0,0.0,0.0,0.0,0.0,0.0,0.0,0.0,0.0,0.0,0.0,0.0,0.0,0.0,0.0,0.0,0.0,0.0,0.0,0.0,0.0,0.0,0.0,0.0,0.0,0.0,0.0,0.0,0.0,0.0,0.0,0.0,0.0,0.0,2.1087,2.268,2.3935,2.4286,2.4791,2.5243,2.5584,2.5127,2.4617,0.0,0.0,0.0,0.0,0.0,0.0,0.0,0.0,0.0,0.0,0.0,0.0,0.0,0.0,0.0,0.0,0.0,0.0,0.0,0.0,0.0,0.0,0.0,0.0,0.0,0.0,0.0,0.0,0.0,0.0,0.0,0.0,0.0,0.0,0.0,0.0,0.0,0.0,0.0,0.0,0.0,0.0,0.0,0.0,0.0,0.0,0.0,0.0,0.0,0.0,0.0,0.0,0.0,0.0,0.0,0.0,0.0,0.0,0.0,0.0,0.0,0.0,0.0,0.0,0.0,0.0,0.0,0.0,0.0,0.0,0.0,0.0,0.0,0.0,0.0,0.0,0.0,0.0,0.0,0.0,0.0,0.0,0.0,0.0,0.0,0.0,0.0,0.0,0.0,0.0,0.0,0.0,0.0,0.0,0.0,0.0,0.0,0.0,0.0,0.0,0.0,0.0,0.0,2.1278,2.2848,2.4324,2.5321,2.536,2.5616,2.6373,2.5905,2.5347,2.4779,0.0,0.0,0.0,0.0,0.0,0.0,0.0,0.0,0.0,0.0,0.0,0.0,0.0,0.0,0.0,0.0,0.0,0.0,0.0,0.0,0.0,0.0,0.0,0.0,0.0,0.0,0.0,0.0,0.0,0.0,0.0,0.0,0.0,0.0,0.0,0.0,0.0,0.0,0.0,0.0,0.0,0.0,0.0,0.0,0.0,0.0,0.0,0.0,0.0,0.0,0.0,0.0,0.0,0.0,0.0,0.0,0.0,0.0,0.0,0.0,0.0,0.0,0.0,0.0,0.0,0.0,0.0,0.0,0.0,0.0,0.0,0.0,0.0,0.0,0.0,0.0,0.0,0.0,0.0,0.0,0.0,0.0,0.0,0.0,0.0,0.0,0.0,0.0,0.0,0.0,0.0,0.0,0.0,0.0,0.0,0.0,0.0,0.0,0.0,0.0,0.0,0.0,2.1796,2.3453,2.5005,2.6178,2.626,2.6509,2.7179,2.6704,2.6105,2.5481,0.0,0.0,0.0,0.0,0.0,0.0,0.0,0.0,0.0,0.0,0.0,0.0,0.0,0.0,0.0,0.0,0.0,0.0,0.0,0.0,0.0,0.0,0.0,0.0,0.0,0.0,0.0,0.0,0.0,0.0,0.0,0.0,0.0,0.0,0.0,0.0,0.0,0.0,0.0,0.0,0.0,0.0,0.0,0.0,0.0,0.0,0.0,0.0,0.0,0.0,0.0,0.0,0.0,0.0,0.0,0.0,0.0,0.0,0.0,0.0,0.0,0.0,0.0,0.0,0.0,0.0,0.0,0.0,0.0,0.0,0.0,0.0,0.0,0.0,0.0,0.0,0.0,0.0,0.0,0.0,0.0,0.0,0.0,0.0,0.0,0.0,0.0,0.0,0.0,0.0,0.0,0.0,0.0,0.0,0.0,0.0,0.0,0.0,0.0,0.0,0.0,0.0,2.2496,2.4295,2.5888,2.6901,2.7338,2.7664,2.7975,2.7459,2.6843,2.6214,0.0,0.0,0.0,0.0,0.0,0.0,0.0,0.0,0.0,0.0,0.0,0.0,0.0,0.0,0.0,0.0,0.0,0.0,0.0,0.0,0.0,0.0,0.0,0.0,0.0,0.0,0.0,0.0,0.0,0.0,0.0,0.0,0.0,0.0,0.0,0.0,0.0,0.0,0.0,0.0,0.0,0.0,0.0,0.0,0.0,0.0,0.0,0.0,0.0,0.0,0.0,0.0,0.0,0.0,0.0,0.0,0.0,0.0,0.0,0.0,1.2327,1.2663,0.0,0.0,0.0,0.0,0.0,0.0,0.0,0.0,0.0,0.0,0.0,0.0,0.0,0.0,0.0,0.0,0.0,0.0,0.0,0.0,0.0,0.0,0.0,0.0,0.0,0.0,0.0,0.0,0.0,0.0,0.0,0.0,0.0,0.0,0.0,0.0,0.0,0.0,0.0,0.0,2.2544,2.4756,2.6665,2.7739,2.7821,2.8064,2.8714,2.7735,2.701,2.6815,2.5537,0.0,0.0,0.0,0.0,0.0,0.0,0.0,0.0,0.0,0.0,0.0,0.0,0.0,0.0,0.0,0.0,0.0,0.0,0.0,0.0,0.0,0.0,0.0,0.0,0.0,0.0,0.0,0.0,0.0,0.0,0.0,0.0,0.0,0.0,0.0,0.0,0.0,0.0,0.0,0.0,0.0,0.0,0.0,0.0,0.0,0.0,0.0,0.0,0.0,0.0,0.0,0.0,0.0,0.0,0.0,0.0,0.0,0.0,0.0,1.2609,1.2885,0.0,0.0,0.0,0.0,0.0,0.0,0.0,0.0,0.0,0.0,0.0,0.0,0.0,0.0,0.0,0.0,0.0,0.0,0.0,0.0,0.0,0.0,0.0,0.0,0.0,0.0,0.0,0.0,0.0,0.0,0.0,0.0,0.0,0.0,0.0,0.0,0.0,0.0,0.0,0.0,2.3134,2.5424,2.7422,2.8562,2.8753,2.9018,2.9521,2.8375,2.7615,2.7583,2.6015,0.0,0.0,0.0,0.0,0.0,0.0,0.0,0.0,0.0,0.0,0.0,0.0,0.0,0.0,0.0,0.0,0.0,0.0,0.0,0.0,0.0,0.0,0.0,0.0,0.0,0.0,0.0,0.0,0.0,0.0,0.0,0.0,0.0,0.0,0.0,0.0,0.0,0.0,0.0,0.0,0.0,0.0,0.0,0.0,0.0,0.0,0.0,0.0,0.0,0.0,0.0,0.0,0.0,1.0765,1.1159,1.1965,1.2011,1.2259,1.2627,1.2716,1.3056,1.3521,1.3177,0.0,0.0,0.0,0.0,0.0,0.0,0.0,0.0,0.0,0.0,0.0,0.0,0.0,0.0,0.0,0.0,0.0,0.0,0.0,0.0,0.0,0.0,1.7168,1.7364,1.7641,1.7765,1.7431,0.0,0.0,0.0,0.0,0.0,0.0,0.0,0.0,0.0,0.0,0.0,2.3863,2.6143,2.8093,2.9161,2.9589,2.9897,3.0135,2.8944,2.8168,2.8168,2.637,2.508,0.0,0.0,0.0,0.0,0.0,0.0,0.0,0.0,0.0,0.0,0.0,0.0,0.0,0.0,0.0,0.0,0.0,0.0,0.0,0.0,0.0,0.0,0.0,0.0,0.0,0.0,0.0,0.0,0.0,0.0,0.0,0.0,0.82,0.8251,0.0,0.0,0.0,0.0,0.0,0.0,0.0,0.0,0.0,0.0,0.0,0.0,0.0,0.9289,0.9545,1.0005,1.0488,1.0973,1.1129,1.1283,1.142,1.1709,1.1864,1.1957,1.2357,0.0,1.3318,1.2915,0.0,0.0,0.0,0.0,0.0,0.0,0.0,0.0,0.0,0.0,0.0,0.0,0.0,0.0,0.0,0.0,0.0,0.0,0.0,0.0,0.0,0.0,1.7285,1.7718,1.7768,1.7708,1.7655,1.7701,1.7774,1.787,1.7812,1.7714,0.0,0.0,0.0,0.0,0.0,0.0,2.428,2.6734,2.856,2.9059,2.9533,2.9864,3.0017,2.8794,2.803,2.803,2.637,2.5355,2.5268,2.4813,0.0,0.0,0.0,0.0,0.0,0.0,0.0,0.0,0.0,0.0,0.0,0.0,0.0,0.0,0.0,0.0,0.0,0.0,0.0,0.0,0.0,0.0,0.0,0.0,0.0,0.0,0.0,0.0,0.0,0.8179,0.8194,0.891,0.854,0.8368,0.0,0.0,0.0,0.0,0.0,0.0,0.0,0.0,0.0,0.8671,0.9086,0.9396,0.9547,0.9743,1.0044,1.0437,1.0539,1.0697,1.0902,1.1059,1.1232,1.1435,1.1825,1.2174,1.2482,1.274,1.3134,1.3489,0.0,0.0,0.0,0.0,1.3157,1.3442,1.3541,1.4005,1.4562,1.4562,0.0,0.0,0.0,0.0,0.0,0.0,0.0,1.6262,1.7142,1.7226,1.7241,1.7907,1.7818,1.759,1.759,1.7899,1.818,1.818,1.8307,1.8454,1.8589,1.9083,0.0,0.0,0.0,2.3538,2.4245,2.6182,2.7675,2.8149,2.8717,2.9219,2.9587,2.8488,2.7826,2.7947,2.6228,2.5188,2.5114,2.4675,2.3917,0.0,0.0,0.0,0.0,0.0,0.0,0.0,0.0,0.0,0.0,0.0,0.0,0.0,0.0,0.0,0.0,0.0,0.0,0.0,0.0,0.0,0.0,0.0,0.0,0.0,0.0,0.0,0.0,0.8226,0.8369,0.9211,0.876,0.8557,0.0,0.0,0.0,0.0,0.0,0.0,0.8563,0.8803,0.8856,0.8653,0.9041,0.9268,0.9316,0.9316,0.9492,0.9824,0.9903,1.011,1.045,1.0593,1.0791,1.1043,1.1388,1.156,1.1677,1.249,1.2851,1.2895,1.2789,1.2732,1.2737,1.2732,1.3115,1.3659,1.3717,1.4125,1.4632,1.4553,1.4553,1.4604,1.4676,0.0,0.0,0.0,0.0,1.6823,1.761,1.762,1.7557,1.7998,1.7921,1.7698,1.758,1.8003,1.8414,1.84,1.8691,1.906,1.9359,1.988,0.0,2.0758,2.2343,2.3709,2.4298,2.5739,2.6886,2.7401,2.7957,2.8504,2.8997,2.7979,2.7416,2.7637,2.5971,2.4944,2.4879,2.4599,2.3953,2.2935,0.0,0.0,0.0,0.0,0.0,0.0,0.0,0.0,0.0,0.0,0.0,0.0,0.0,0.0,0.0,0.0,0.0,0.0,0.0,0.0,0.0,0.0,0.0,0.0,0.0,0.0,0.0,0.0,0.0,0.8309,0.8788,0.0,0.0,0.0,0.0,0.905,0.8786,0.8716,0.8949,0.8694,0.8441,0.8232,0.8436,0.8641,0.8835,0.8835,0.9006,0.9338,0.9654,0.9878,1.0047,1.0555,1.0807,1.0839,1.1162,1.1247,1.12,1.2004,1.2452,1.2606,1.2413,1.2528,1.2788,1.2787,1.3228,1.3765,1.3575,1.3959,1.4464,1.4145,1.4154,1.4525,1.5663,1.593,0.0,0.0,1.8058,1.8181,1.8535,1.8626,1.8497,1.8032,1.8142,1.8235,1.7787,1.8108,1.8474,1.8406,1.8769,1.9158,1.9362,0.0,2.0034,2.1185,2.243,2.3614,2.4719,2.5933,2.686,2.7272,2.756,2.7908,2.8328,2.7245,2.6706,2.7025,2.5519,2.469,2.4795,2.4786,2.4132,2.2734,2.2388,0.0,0.0,0.0,0.0,0.0,0.0,0.0,0.0,0.0,0.0,0.0,0.0,0.0,0.0,0.0,0.0,0.0,0.0,0.0,0.0,0.0,0.0,0.0,0.0,0.0,0.0,0.0,0.0,0.8893,0.8767,0.0,0.9296,0.9159,0.8989,0.8916,0.8869,0.8798,0.8684,0.856,0.8463,0.8393,0.8592,0.8907,0.9372,0.9086,0.9313,1.0068,0.9975,1.0021,1.0206,1.053,1.0665,1.0681,1.0886,1.1028,1.1122,1.1506,1.1778,1.1965,1.212,1.2166,1.2182,1.2398,1.2896,1.348,1.3586,1.4013,1.45,1.4507,1.4768,1.5137,1.5432,1.5698,1.6108,1.7142,1.7544,1.7915,1.8902,1.8769,1.8448,1.8669,1.8513,1.8225,1.807,1.8503,1.8949,1.8919,1.9221,1.9698,2.0427,2.0843,2.1412,2.2349,2.3031,2.3709,2.4416,2.5149,2.5728,2.6039,2.6586,2.7119,2.761,2.7019,2.6535,2.6314,2.5513,2.4803,2.4241,2.4255,2.3855,2.2909,2.2474,2.1292,0.0,0.0,0.0,0.0,0.0,0.0,0.0,0.0,0.0,0.0,0.0,0.0,0.0,0.0,0.0,0.0,0.0,0.0,0.0,0.0,0.0,0.0,0.0,0.0,0.0,0.0,0.8356,0.9141,0.8886,0.883,0.9324,0.9184,0.9039,0.8979,0.8942,0.8884,0.8739,0.8728,0.8783,0.8865,0.9019,0.9334,0.983,0.9433,0.9659,1.0461,1.029,1.0276,1.0444,1.0685,1.0744,1.0665,1.076,1.0854,1.0933,1.1075,1.1178,1.1294,1.1622,1.1742,1.1729,1.2004,1.2663,1.3521,1.4129,1.4378,1.4502,1.497,1.5221,1.54,1.5618,1.5923,1.6396,1.7263,1.7752,1.8264,1.9222,1.9114,1.8827,1.9051,1.8933,1.8721,1.8499,1.9002,1.949,1.9442,1.956,1.9986,2.1019,2.1397,2.188,2.2826,2.333,2.3749,2.4176,2.4679,2.5118,2.5398,2.5947,2.6469,2.6925,2.6243,2.5676,2.5403,2.4733,2.403,2.3285,2.3448,2.3216,2.2511,2.199,2.0672,1.852,0.0,0.0,0.0,0.0,0.0,0.0,0.0,0.0,0.0,0.0,0.0,0.0,0.0,0.0,0.0,0.0,0.0,0.0,0.0,0.0,0.0,0.0,0.0,0.8019,0.8578,0.8972,0.8934,0.9153,0.936,0.9484,0.9199,0.9087,0.9285,0.9002,0.8936,0.9215,0.9226,0.9349,0.9608,0.9678,0.9853,1.0118,0.9859,0.9956,1.0438,1.0534,1.0642,1.0721,1.1055,1.1046,1.0805,1.0805,1.0726,1.0622,1.0742,1.0733,1.0667,1.0985,1.1285,1.1525,1.1681,1.2589,1.3903,1.5139,1.5034,1.4504,1.5403,1.5442,1.5327,1.6302,1.6677,1.7032,1.8141,1.8836,1.9284,1.9502,1.9704,1.9695,1.9041,1.941,1.9706,1.9052,1.9528,2.0058,1.9927,1.9741,1.9959,2.1019,2.1051,2.1369,2.254,2.3221,0.0,2.407,2.4635,2.5117,2.5453,2.5702,2.596,2.6242,2.4869,2.4116,2.4344,2.3221,2.2382,2.2025,2.2455,2.2301,2.1479,2.0828,1.9535,1.7575,0.0,0.0,0.0,0.0,0.0,0.0,0.0,0.0,0.0,0.0,0.0,0.0,0.0,0.0,0.0,0.0,0.0,0.0,0.0,0.0,0.0,0.7894,0.8037,0.8575,0.8594,0.8811,0.9472,0.9398,0.9322,0.936,0.9274,0.9269,0.9373,0.9418,0.9567,0.9834,0.9852,0.9862,0.9885,1.0089,1.0295,1.0465,1.0237,1.0513,1.1267,1.0721,1.0729,1.1194,1.1106,1.1014,1.095,1.095,1.0917,1.0891,1.094,1.1045,1.1213,1.1495,1.1564,1.1603,1.2416,1.334,1.4269,1.4725,1.5109,1.5405,1.552,1.5741,1.6023,1.6302,1.6489,1.676,1.7612,1.7799,1.7892,1.8443,1.8702,1.8795,1.8754,1.9113,1.9408,1.9232,1.9585,1.9933,1.99,1.9858,2.0106,2.1046,2.176,2.2436,2.3109,2.3679,2.4137,2.443,2.4686,2.4934,2.5117,2.5025,2.5059,2.5338,2.4565,2.3892,2.3477,2.3497,2.3113,2.2249,2.2534,2.2088,2.0801,1.9033,1.7705,0.0,0.0,0.0,0.0,0.0,0.0,0.0,0.0,0.0,0.0,0.0,0.0,0.0,0.0,0.0,0.0,0.0,0.0,0.0,0.0,0.0,0.0,0.7956,0.8162,0.8851,0.8721,0.8873,0.97,0.9546,0.9386,0.9376,0.9428,0.9503,0.9599,0.9818,1.007,1.0343,1.0425,1.0458,1.0415,1.0656,1.0812,1.0894,1.0777,1.1067,1.1755,1.1293,1.1268,1.1603,1.1309,1.1176,1.1169,1.1049,1.1062,1.1176,1.1176,1.131,1.1546,0.0,0.0,0.0,0.0,1.3672,1.4202,1.4844,1.5328,1.5724,1.6003,1.6355,1.6691,1.6787,1.6896,1.7123,1.7734,1.7884,1.7984,1.8517,1.878,1.8899,1.8936,1.925,1.9533,1.944,1.9731,1.9976,1.9976,2.0114,0.0,2.0985,2.1627,2.2291,2.2896,2.3489,2.3933,2.4148,2.4544,2.4863,2.5061,2.5025,2.4967,2.4929,2.4127,0.0,0.0,0.0,2.2335,2.1576,2.1375,0.0,0.0,0.0,1.7328,1.6572,1.5266,0.0,0.0,1.3979,1.3747,0.0,0.0,0.0,0.0,0.0,0.0,0.0,0.0,0.0,0.0,0.0,0.0,0.0,0.0,0.0,0.0,0.8074,0.8312,0.8931,0.8945,0.9119,0.9773,0.9675,0.9552,0.9584,0.9701,0.9833,0.9974,1.0225,1.0507,1.0803,1.0996,0.0,0.0,0.0,1.1361,1.1329,1.1343,1.1574,1.2003,1.1952,1.1931,1.1928,1.1575,1.1425,1.1446,1.1202,1.1243,1.1459,1.1459,1.1617,1.1833,1.1833,1.1955,1.2281,1.3348,1.3808,1.4045,1.527,0.0,0.0,1.6556,1.6968,1.7166,1.7392,1.7533,1.7707,1.8139,1.8429,1.8688,1.9013,1.9258,1.9399,1.9218,1.9507,1.9786,1.9621,1.9862,2.0091,2.0102,2.0443,2.0754,2.0887,2.121,2.1721,2.2452,2.3141,2.3611,2.3746,2.4325,2.4835,2.5075,2.5231,0.0,2.4731,2.3612,2.2679,2.2082,2.1351,2.0808,2.0471,1.9709,1.9107,1.8682,1.8425,1.7754,1.6683,1.6093,1.519,1.3978,1.3855,1.3902,0.0,0.0,0.0,0.0,0.0,0.0,0.0,0.0,0.0,0.0,0.0,0.0,0.0,0.0,0.0,0.7742,0.7871,0.8283,0.9047,0.9276,0.9548,1.0052,0.9945,0.9907,1.0124,1.0173,1.0275,1.0538,1.0741,1.1044,1.1482,1.1697,1.1777,1.1735,1.1825,1.1759,1.1532,1.1607,1.1748,1.2003,1.1629,0.0,1.2204,1.1756,1.166,1.1801,1.1759,1.1765,1.1801,1.1801,1.2138,1.2661,1.2611,1.3031,1.3689,1.3944,1.4393,1.4959,1.539,1.5738,1.6035,1.6324,1.6542,1.6777,1.7149,1.7196,0.0,1.782,1.7749,1.7562,1.7784,1.8119,1.837,1.8338,1.8888,1.944,1.9572,1.9857,2.0102,2.0091,2.0513,2.0871,2.0903,2.2096,2.3165,2.3481,2.4177,2.4687,2.4732,2.4528,2.4422,2.4465,2.432,2.4176,2.4082,2.3179,2.2502,2.2258,2.1267,2.0551,2.0278,1.9586,1.9001,1.8547,1.7925,1.7247,1.6543,1.5738,1.5047,1.4454,1.4059,1.3847,0.0,0.0,0.0,0.0,0.0,0.0,0.0,0.0,0.0,0.0,0.0,0.8004,0.7835,0.0,0.7884,0.7809,0.7999,0.8463,0.9321,0.9622,0.991,1.0356,1.0304,1.025,1.0297,1.0412,1.0508,1.0508,1.093,1.1248,1.1333,1.1759,1.1872,1.161,1.1969,1.1975,1.1603,1.1866,1.2058,1.215,1.1914,1.1982,1.2291,1.1925,1.1879,1.2096,1.1966,1.1986,1.2127,1.2326,1.2651,1.3069,1.3118,1.3543,1.4093,1.4093,1.4436,1.4963,1.5355,1.5762,1.6167,1.6604,1.6994,1.7339,1.7537,1.7673,1.7799,1.8035,1.7984,1.7879,1.7967,1.8226,1.8455,1.8455,1.8893,1.9368,1.9566,2.0001,2.039,2.0483,2.0847,2.1142,2.1142,2.2187,2.3019,2.3095,2.3822,2.434,2.4312,2.4231,2.4261,2.4393,2.4311,2.4157,2.3917,2.2789,2.1855,2.1284,2.059,2.008,1.9811,1.9121,1.863,1.8402,1.7834,1.729,1.6751,1.5937,1.5221,1.4603,1.4436,1.4301,0.0,0.0,0.0,0.0,0.0,0.0,0.0,0.0,0.7377,0.7683,0.7844,0.7875,0.7692,0.7683,0.7743,0.7889,0.8097,0.8541,0.9383,0.9719,1.0055,1.0577,1.0663,1.0633,1.0513,1.0707,1.0743,1.0531,1.1143,1.1427,1.1208,1.1732,1.188,1.1508,1.2013,1.2111,1.1735,1.2111,1.2305,1.2305,1.2305,1.2305,1.2291,1.2076,1.2102,1.2285,1.2112,1.2175,1.2434,1.2808,1.3046,1.3211,1.3455,1.3783,1.4093,1.4093,1.4317,1.4695,1.5337,1.5762,1.6167,1.6942,1.752,1.7923,1.7974,1.8195,1.8398,1.8347,1.8381,1.8414,1.8482,1.8617,1.8741,1.8791,1.9052,1.9356,1.9672,2.0186,2.0707,2.1031,2.1358,2.1587,2.1537,2.2235,2.2724,2.2492,2.3178,2.3676,2.3636,2.3883,2.4127,2.4263,2.442,2.4309,2.382,2.2525,2.1342,2.0399,1.9951,1.9578,1.9263,1.8588,1.8184,1.8102,1.7744,1.734,1.6881,1.6192,1.5504,1.4804,1.4856,1.4821,0.8705,0.7867,0.7123,0.7511,0.6932,0.6302,0.0,0.0,0.6921,0.7142,0.7249,0.7351,0.7489,0.7629,0.7661,0.7575,0.7831,0.8211,0.8746,0.9141,0.9727,1.0664,1.087,1.1038,1.1261,1.131,1.1317,1.1286,1.1687,1.1916,1.1883,1.2137,1.2248,1.2196,1.2266,1.2266,1.2215,1.2266,1.2305,1.2305,1.2305,1.2305,1.2305,1.2271,1.2271,1.2316,1.2455,1.2645,1.2845,1.3065,1.3181,1.3236,1.3626,1.3909,1.4093,1.4093,1.4317,1.4705,1.5506,1.5798,1.5974,1.6907,1.7365,1.7608,1.7906,1.8025,1.811,1.8398,1.8279,1.811,1.8414,1.8516,1.8583,1.8758,1.8975,1.9323,2.0063,2.0422,2.0839,2.1625,2.2058,2.2235,2.2053,2.3029,2.3575,2.2782,2.3257,2.3704,2.3689,2.3828,2.3819,2.3539,2.3907,2.392,2.3332,2.2416,2.1578,2.0869,1.9957,1.9213,1.8707,1.8209,1.7772,1.742,1.719,1.6881,1.6474,1.5968,1.5675,1.5574,1.5284,1.4898,0.8811,0.8057,0.0,0.0,0.6716,0.6237,0.605,0.6443,0.6908,0.7122,0.7431,0.7787,0.8177,0.8112,0.8047,0.0,0.8348,0.8595,0.9143,0.957,1.012,1.0875,1.1126,1.1322,1.1545,1.1577,1.1514,1.135,1.1746,1.1986,1.1949,1.2284,1.2526,1.2654,1.2544,1.2526,1.2654,1.2526,1.2526,1.2654,1.2654,1.2654,1.2654,1.2654,1.2654,1.2654,1.2746,1.29,1.3083,1.3174,1.3346,1.3546,1.3608,1.3891,1.4281,1.4281,1.4407,1.4731,1.5515,1.5868,1.6123,1.7072,1.7426,1.7556,1.7889,1.7923,1.7927,1.8422,1.8466,1.8462,1.8998,1.9019,1.9037,1.9508,1.9572,1.9722,2.0539,2.0987,2.1445,2.2165,2.2481,2.2639,2.2685,2.3064,2.3243,2.2883,2.3416,2.3742,2.3396,2.3512,2.3582,2.3524,2.3613,2.3396,2.262,2.2124,2.1356,2.0226,1.9566,1.8908,1.8222,1.7772,1.7476,1.7306,1.6948,1.6652,1.6398,1.6009,1.571,1.5522,1.5376,1.5192,0.8991,0.0,0.0,0.7104,0.6652,0.6289,0.6092,0.6497,0.6978,0.7228,0.7667,0.8177,0.8807,0.8716,0.8657,0.8962,0.8973,0.9053,0.9393,0.9823,1.0345,1.0956,1.1298,1.1577,1.1836,1.1873,1.1789,1.1589,1.1983,1.2229,1.2184,1.2501,1.2746,1.29,1.2691,1.2691,1.29,1.2691,1.2691,1.29,1.29,1.29,1.29,1.29,1.2936,1.2973,1.2973,1.3119,1.3364,1.3309,1.3492,1.379,1.3645,1.3873,1.4317,1.4379,1.4551,1.4866,1.5551,1.5965,1.6289,1.7151,1.7453,1.7575,1.7992,1.8019,1.8062,1.8638,1.8801,1.8922,1.9462,1.9493,1.952,2.0048,2.0105,2.0261,2.1027,2.1502,2.1987,2.2661,2.2911,2.3048,2.3138,2.3258,2.3253,2.2994,2.3431,2.3624,2.3183,2.3238,2.3345,2.3452,2.33,2.294,2.2231,2.1854,2.1102,1.9816,1.9336,1.8714,1.7877,1.749,1.7264,1.7155,1.6761,1.6477,1.6316,1.6062,1.585,1.5655,1.5743,1.5831,0.0,0.0,0.729,0.7218,0.6546,0.6054,0.656,0.6798,0.7015,0.7402,0.7766,0.8236,0.9046,0.9334,0.9482,0.9558,0.9583,0.944,0.907,0.9535,1.0128,1.0746,1.1335,1.1855,0.0,1.2286,1.228,1.2273,1.2629,1.2874,1.2868,1.2874,1.29,1.29,1.2691,1.2691,1.29,1.2691,1.2691,1.29,1.29,1.29,1.29,1.29,1.301,1.3193,1.3193,1.3419,1.3772,1.3572,1.3608,1.3797,1.379,1.3928,1.4129,1.4335,1.4723,1.524,1.5657,1.6017,1.6394,1.7011,1.7331,1.7615,1.8209,1.8474,1.8666,1.915,1.9286,1.9332,1.9543,1.9743,1.9921,2.0073,2.0392,2.0863,2.1537,2.1843,2.2248,2.3114,2.3442,2.3526,2.3331,2.3936,2.4144,2.3241,2.3173,2.3214,2.3195,2.3155,2.3108,2.3108,2.2878,2.2619,2.2411,2.1729,2.095,2.0138,1.9464,1.8683,1.7736,1.7434,1.7141,1.6818,1.6545,1.6306,1.6114,1.6108,1.6151,1.6276,1.6609,1.69,0.9853,0.0,0.769,0.7354,0.7017,0.6811,0.6987,0.7237,0.7563,0.8058,0.8258,0.8549,0.9272,0.9521,0.9676,0.9777,1.0018,1.0201,1.0191,1.0363,1.0718,1.1323,1.1688,0.0,0.0,0.0,0.0,1.2507,1.2959,1.3283,1.3414,1.3639,1.371,1.3634,1.3433,1.3314,1.3291,1.3101,1.3101,1.3291,1.3291,1.3291,1.3291,1.3291,1.3346,1.3401,1.3401,1.3481,1.3608,1.3663,1.3826,1.4,1.3844,1.4,1.4317,1.4379,1.4901,1.5639,1.5912,1.6386,1.7018,1.7754,1.8128,1.8375,1.8853,1.8938,1.8979,1.9553,1.9707,1.9813,2.0334,2.0383,2.0427,2.0907,2.1003,2.1157,2.1821,2.2131,2.2397,2.282,2.3057,2.3261,2.3464,2.3611,2.3476,2.2867,2.3015,2.3091,2.2842,2.2978,2.3017,2.2778,2.2528,2.2189,2.1776,2.1311,2.06,1.9578,1.9085,1.8352,1.7278,1.699,1.6779,1.6666,1.6367,1.631,1.6563,1.6492,1.6607,1.6959,1.7079,1.7237,0.9837,0.899,0.7954,0.7629,0.7523,0.7515,0.7629,0.7889,0.8166,0.8452,0.8791,0.9281,1.0107,1.0337,1.0561,1.1003,1.1051,1.1062,1.1106,1.1249,1.1484,1.1873,1.2157,1.2378,0.0,0.0,0.0,1.3012,1.3381,1.3753,1.4078,1.4123,1.4188,1.4284,1.3792,1.3627,1.3862,1.354,1.3483,1.3686,1.355,1.3492,1.3492,1.3492,1.3492,1.3492,1.3492,1.3535,1.3608,1.3663,1.3923,1.4259,1.4065,1.4343,1.4851,1.4733,1.533,1.6174,1.6123,1.6679,1.7495,1.8024,1.8414,1.8784,1.9288,1.9392,1.9442,1.9991,2.0146,2.0272,2.0769,2.0832,2.0891,2.1383,2.1523,2.1677,2.2113,2.2421,2.2628,2.2684,2.2871,2.3057,2.3242,2.3279,2.3148,2.2708,2.2904,2.2903,2.24,2.2592,2.2653,2.2319,2.2115,2.1804,2.1273,2.0955,2.0284,1.9096,1.8773,1.8113,1.698,1.6712,1.6683,1.6851,1.6562,1.6657,1.7118,1.7134,1.7286,1.7595,1.7758,1.7908,0.915,0.8676,0.8106,0.8012,0.8019,0.8138,0.8511,0.8754,0.8884,0.8771,0.9484,1.0459,0.0,0.0,1.2082,1.3026,1.2547,1.1989,1.1798,1.2077,1.2342,0.0,0.0,0.0,0.0,0.0,0.0,1.3751,1.3943,1.4284,1.4778,1.4347,1.4306,1.4786,1.3827,1.3682,1.4482,1.3997,1.3834,1.4023,1.3693,1.3528,1.3543,1.3528,1.3528,1.3543,1.3543,1.366,1.3824,1.3634,1.3959,1.4591,1.4396,1.4869,1.5642,1.5324,1.5911,1.6801,1.6333,1.6901,1.7855,1.7901,1.8318,1.8926,1.9553,1.9829,2.0039,2.0488,2.0605,2.0673,2.0848,2.1061,2.1263,2.1445,2.1959,2.2365,2.2384,2.2703,2.2908,2.2721,2.2871,2.2945,2.2721,2.3038,2.3159,2.2748,2.277,2.2595,2.1958,2.2061,2.2061,2.1698,2.1651,2.1447,2.0919,2.0667,2.0042,1.8801,1.8568,1.7993,1.691,1.6694,1.6847,1.732,1.7137,1.7275,1.774,1.801,1.8134,1.8175,1.862,1.8942,0.9343,0.8914,0.834,0.8069,0.8295,0.8809,0.9645,1.0189,1.0804,1.1803,1.1971,1.2197,0.0,0.0,0.0,1.3006,1.2963,0.0,1.2629,1.2544,0.0,1.3138,0.0,1.3181,1.3328,1.3517,0.0,0.0,1.4717,1.4914,1.4801,1.5103,1.5113,1.4808,1.477,1.455,1.4125,1.4241,1.4321,1.4379,1.403,1.4008,1.4235,1.3986,1.4008,1.4243,1.4243,1.4281,1.4338,1.4369,1.4491,1.4661,1.4623,1.4861,1.525,1.5334,1.5794,1.6459,1.6969,1.7724,1.8569,1.9178,1.9713,2.0139,2.0313,2.0487,2.0632,2.0615,2.0712,2.0848,2.0887,2.1157,2.1436,2.1493,2.1731,2.1987,2.2138,2.2365,2.2534,2.2496,2.2889,2.3057,2.2553,2.2927,2.3099,2.2483,2.2098,2.1778,2.1559,2.1792,2.178,2.1309,2.1162,2.0951,2.0561,2.0243,1.9797,1.9127,1.8486,1.7968,1.7624,1.7165,1.7118,1.7589,1.7554,1.774,1.8216,1.8446,1.8692,1.9008,1.9272,1.9423,0.9348,0.9107,0.87,0.8598,0.8797,0.9202,0.9923,1.0683,1.1465,1.2242,1.2965,0.0,1.4255,0.0,0.0,0.0,0.0,0.0,1.3119,1.3065,1.3119,0.0,1.3609,0.0,1.3844,1.4294,1.4611,0.0,1.4823,1.5023,1.52,1.5283,1.5298,1.5188,1.5031,1.4776,1.4406,1.4582,1.4677,1.4677,1.4367,1.4308,1.4477,1.432,1.4366,1.4633,1.4633,1.4633,1.4633,1.4711,1.4832,1.4966,1.5065,1.5385,1.581,1.5866,1.6301,1.696,1.7638,1.8366,1.907,1.9628,2.011,2.0479,2.0479,2.0615,2.0731,2.0508,2.0732,2.1026,2.1033,2.1326,2.1631,2.163,2.1788,2.1997,2.2195,2.2384,2.2515,2.2421,2.2665,2.2796,2.2459,2.2684,2.2763,2.2324,2.2019,2.1743,2.1474,2.1406,2.1226,2.0828,2.0651,2.0442,2.0205,1.9927,1.9544,1.9014,1.8554,1.8155,1.7838,1.7496,1.7579,1.814,1.8051,1.8316,1.8926,1.8947,1.9116,1.9423,1.955,1.9638,0.923,0.9268,0.9129,0.9274,0.9338,0.9462,0.9832,1.0831,1.1715,1.1823,0.0,1.4952,1.5366,1.4463,1.4057,1.5254,0.0,1.2996,1.3593,1.3637,1.3597,1.3568,1.3996,1.4313,1.4358,1.5289,1.5619,1.4911,1.4733,1.4959,1.5657,1.5294,1.5273,1.5747,1.4978,1.4684,1.4966,1.4966,1.4966,1.4966,1.4684,1.458,1.4616,1.4611,1.4702,1.4889,1.4948,1.4937,1.486,1.4945,1.513,1.5355,1.5589,1.6064,1.6657,1.6537,1.6972,1.7692,1.8209,1.876,1.9316,1.9669,2.0034,2.0323,2.0303,2.0459,2.0615,2.0468,2.0838,2.1281,2.127,2.1558,2.1837,2.1815,2.193,2.212,2.2346,2.2553,2.2647,2.244,2.2421,2.2421,2.2365,2.2384,2.2358,2.2244,2.2201,2.2024,2.1589,2.1063,2.0656,2.045,2.0194,1.9977,1.9868,1.9671,1.9347,1.8801,1.8701,1.8432,1.791,1.7838,1.8093,1.8737,1.8598,1.8866,1.9566,1.945,1.9467,1.9638,1.9654,1.9769,0.9049,0.9376,0.9606,0.9354,0.9504,0.9838,1.0349,1.1848,0.0,0.0,1.5421,1.6639,1.7158,1.6563,1.6168,1.6678,0.0,0.0,0.0,0.0,1.4091,0.0,0.0,0.0,0.0,0.0,0.0,0.0,1.5327,1.5467,1.5604,1.5799,1.5923,1.6017,1.524,1.5001,1.5322,1.5301,1.5301,1.5322,1.5001,1.4979,1.5234,1.5199,1.5201,1.5317,1.5707,1.5582,1.5173,1.5668,1.5741,1.5586,1.5889,1.6191,1.6448,1.6434,1.6757,1.7305,1.806,1.8647,1.917,1.9944,2.0362,2.0508,2.0342,2.0564,2.0884,2.1023,2.1365,2.1691,2.17,2.1868,2.2014,2.1834,2.1826,2.1959,2.2327,2.2553,2.2647,2.244,2.2534,2.2534,2.2214,2.2289,2.2389,2.2371,2.189,2.1577,2.1656,2.1198,2.0791,2.0589,2.0038,1.9687,1.9654,1.9467,1.9309,1.9203,1.8729,1.8575,1.8859,1.848,1.8517,1.9017,1.911,1.9218,1.9341,1.9638,1.9802,1.9851,1.996,2.0123,1.0377,1.0165,0.9846,0.9616,0.96,0.9934,1.1026,0.0,0.0,0.0,1.6339,1.7384,1.766,0.0,0.0,0.0,0.0,0.0,0.0,0.0,0.0,0.0,0.0,0.0,0.0,1.5788,1.5982,1.5875,1.6103,1.6055,1.567,1.5803,1.5831,1.5735,1.5359,1.5228,1.541,1.541,1.541,1.541,1.5228,1.5236,1.5402,1.5365,1.5442,1.5561,1.5782,1.5823,1.5687,1.5977,1.6016,1.5886,1.6155,1.6319,1.6414,1.6525,1.6792,1.7233,1.8175,1.8725,1.9141,2.0029,2.0517,2.072,2.0521,2.0809,2.1206,2.1206,2.1504,2.1888,2.1978,2.191,2.1779,2.1802,2.18,2.1883,2.2176,2.2402,2.2478,2.2271,2.2233,2.2176,2.1978,2.194,2.1978,2.2063,2.1893,2.1802,2.1895,2.1474,2.1068,2.0833,2.0213,1.9809,1.9809,1.9504,1.9274,1.9191,1.8983,1.8935,1.9088,1.8874,1.8946,1.9347,1.9241,1.9357,1.9714,1.9731,1.9818,2.0009,2.0074,2.0216,1.17,1.0916,1.0031,0.9878,0.9696,0.9954,1.1451,1.2415,0.0,0.0,1.6672,1.7681,1.7689,0.0,0.0,0.0,0.0,0.0,0.0,0.0,0.0,0.0,0.0,0.0,0.0,1.6519,0.0,1.6564,1.679,1.6629,1.5946,1.5878,1.5782,1.5631,1.5527,1.5465,1.5465,1.5431,1.541,1.541,1.541,1.5423,1.5465,1.5465,1.5541,1.5713,1.5816,1.591,1.6008,1.616,1.6185,1.6152,1.637,1.6456,1.6476,1.6648,1.6874,1.7253,1.8256,1.8785,1.9141,1.9951,2.0456,2.0724,2.0524,2.0818,2.1213,2.1153,2.1462,2.1867,2.206,2.1835,2.159,2.1719,2.1776,2.1845,2.1997,2.2157,2.2214,2.2006,2.1845,2.1712,2.1674,2.1598,2.1617,2.1769,2.193,2.2044,2.2082,2.1748,2.14,2.1198,2.0443,1.9958,1.9958,1.9529,1.9266,1.931,1.9277,1.9266,1.931,1.9177,1.9241,1.9533,1.9324,1.9489,2.0058,1.9813,1.9846,2.0102,2.0249,2.0451,1.188,1.1093,1.0228,1.0031,0.9878,1.0069,1.1191,0.0,0.0,1.5078,1.6545,1.7564,1.7672,0.0,0.0,0.0,0.0,1.7104,0.0,0.0,0.0,0.0,0.0,0.0,0.0,1.6643,1.6871,1.7021,1.7237,1.7127,1.6628,1.6435,1.6332,1.6312,1.5899,1.5671,1.5671,1.5486,1.541,1.541,1.541,1.5506,1.5671,1.5671,1.5671,1.5713,1.6147,1.606,1.5692,1.6359,1.6466,1.6225,1.655,1.6669,1.6669,1.6689,1.6874,1.7212,1.8063,1.8625,1.9092,1.9725,2.0136,2.0302,2.0038,2.0132,2.04,2.0796,2.1225,2.158,2.1776,2.1805,2.1724,2.1573,2.1667,2.1807,2.1826,2.1845,2.1807,2.1578,2.154,2.1474,2.1282,2.154,2.1788,2.1807,2.1826,2.1902,2.2092,2.1899,2.1744,2.1721,2.0578,1.981,1.981,1.9384,1.9368,1.9973,1.9454,1.9396,1.9983,1.9427,1.9175,1.9324,1.9473,1.9671,1.9917,2.0009,2.0069,2.0129,2.0798,2.1169,1.3485,1.1943,1.0228,0.9958,0.9744,1.0158,1.2204,0.0,1.3822,1.6274,1.7233,1.763,1.7689,1.7862,0.0,0.0,0.0,0.0,0.0,0.0,0.0,0.0,0.0,0.0,0.0,0.0,1.6889,1.7078,1.7159,1.7188,1.7127,1.6935,1.6681,1.6414,1.6092,1.5935,1.5935,1.559,1.5465,1.5582,1.5582,1.5748,1.6061,1.6195,1.6357,1.6531,1.6532,1.6353,1.6105,1.6401,1.6394,1.6218,1.6575,1.6689,1.6689,1.6689,1.6963,1.7383,1.8063,1.8605,1.9092,1.9706,1.9961,2.0048,2.0085,2.032,2.0703,2.1134,2.1287,2.144,2.2005,2.1973,2.1661,2.1095,2.1299,2.1586,2.1467,2.1521,2.1559,2.1359,2.1224,2.1147,2.1186,2.134,2.1436,2.1436,2.1636,2.1788,2.1731,2.1769,2.1807,2.1807,2.1062,2.0576,2.0576,2.0151,2.0052,2.0439,1.9944,1.9943,2.0603,1.9847,1.9627,2.0081,1.9754,1.9736,2.0025,1.9993,2.0025,2.0102,2.0731,2.1008,1.5106,1.3421,1.1553,1.1201,1.0985,1.1434,0.0,0.0,1.4597,1.7237,1.775,1.7723,1.7784,1.7947,1.7828,0.0,0.0,1.7051,1.6438,0.0,0.0,0.0,0.0,1.7192,0.0,1.7245,1.7193,1.7109,1.7257,1.7374,1.7388,1.7326,1.707,1.662,1.6319,1.6183,1.6183,1.5652,1.5499,1.5692,1.5734,1.5975,1.6377,1.6569,1.679,1.702,1.6926,1.6705,1.6445,1.6596,1.6517,1.6305,1.6534,1.6566,1.6512,1.6512,1.6861,1.7404,1.7994,1.8565,1.9101,1.9636,1.9813,1.9849,2.006,2.0385,2.0757,2.1037,2.124,2.1454,2.1831,2.179,2.1486,2.0916,2.1017,2.1224,2.1198,2.1301,2.1378,2.1224,2.1099,2.1022,2.1099,2.1157,2.1205,2.1205,2.1493,2.1674,2.1598,2.1712,2.1807,2.1807,2.1499,2.1251,2.1106,2.0726,2.0625,2.0976,2.0565,2.06,2.1257,2.0469,2.02,2.059,2.0139,1.9969,2.0102,2.0009,2.0085,2.0353,2.0934,2.1274,1.6431,1.5576,1.467,1.4335,1.4106,1.4337,0.0,0.0,1.5878,1.7629,1.7835,1.7767,1.7957,1.8151,1.7988,0.0,0.0,0.0,1.5693,0.0,0.0,0.0,0.0,1.7415,1.8212,1.8267,1.796,1.7167,1.7646,1.7829,1.7416,1.7589,1.7517,1.7119,1.664,1.6394,1.6394,1.5728,1.5499,1.5699,1.583,1.6149,1.6606,1.6746,1.6838,1.6918,1.7311,1.7107,1.6536,1.7068,1.6981,1.6492,1.6424,1.6278,1.6115,1.6115,1.6533,1.7192,1.7784,1.8436,1.9062,1.9458,1.9606,1.9641,1.9846,2.0048,2.0211,2.0211,2.0973,2.1636,2.0981,2.1024,2.1212,2.1207,2.0889,2.0731,2.1109,2.1205,2.1205,2.1205,2.1205,2.1128,2.0945,2.108,2.1205,2.1205,2.1368,2.1559,2.1769,2.1807,2.1807,2.1807,2.1797,2.1592,2.1137,2.0852,2.0976,2.1658,2.1261,2.1296,2.1959,2.1346,2.0869,2.0601,2.0579,2.0436,2.0102,2.0102,2.0374,2.0911,2.1576,2.2324,1.663,1.582,1.4839,1.4131,1.4188,1.4649,1.558,0.0,1.6173,1.769,1.7957,1.7923,1.7991,1.8151,1.8022,0.0,0.0,0.0,0.0,0.0,0.0,0.0,1.7758,1.7763,0.0,0.0,1.7678,1.7709,1.7762,1.7868,1.8004,1.8204,1.794,1.7127,1.6947,1.6792,1.6607,1.6257,1.6152,1.6325,1.6508,1.682,1.7292,1.7667,1.7962,1.8184,1.808,1.7662,1.7064,1.7225,1.6824,1.6122,1.6481,1.6409,1.6128,1.6245,1.6825,1.7538,1.7732,1.8416,1.9231,1.935,1.939,1.9408,1.9467,1.9534,1.9638,1.9924,2.065,2.1219,2.0718,2.1084,2.141,2.0915,2.1004,2.1138,2.0859,2.1105,2.1283,2.0858,2.1017,2.1135,2.0917,2.0945,2.0984,2.0984,2.1167,2.132,2.1378,2.1502,2.1655,2.1788,2.1921,2.1897,2.16,2.1632,2.1816,2.215,2.1878,2.197,2.2658,2.1854,2.1517,2.1766,2.144,2.1235,2.1134,2.1134,2.1385,2.1854,2.1972,2.2342,0.0,1.6857,1.6246,1.5652,1.5743,0.0,0.0,0.0,1.6865,1.7453,1.7579,1.7596,1.7647,1.7596,1.7474,0.0,0.0,0.0,0.0,0.0,0.0,0.0,0.0,0.0,0.0,1.7809,1.8039,1.8102,1.8,1.8078,1.8465,1.86,1.8305,1.7474,1.7343,1.7092,1.6689,1.6555,1.6566,1.6719,1.7029,1.7377,1.7771,1.8175,1.8458,1.8606,1.8511,1.8042,0.0,1.7443,1.6956,1.615,1.6528,1.6437,1.616,1.6337,1.6902,1.7597,1.7623,1.822,1.9012,1.9058,1.9341,1.9638,1.974,1.9659,1.9602,2.0014,2.0676,2.1161,2.0827,2.1234,2.1624,2.1155,2.1229,2.1348,2.1242,2.141,2.1489,2.1135,2.1194,2.1233,2.0947,2.0848,2.0799,2.0887,2.1003,2.1128,2.1282,2.1416,2.1578,2.1788,2.1921,2.194,2.1807,2.212,2.2346,2.2402,2.2311,2.2482,2.2972,2.2361,2.2092,2.2295,2.2018,2.1778,2.161,2.1844,2.2132,2.2417,2.2463,2.2626,0.0,1.8405,1.8499,1.832,1.8303,1.8303,0.0,0.0,0.0,0.0,1.6993,1.7044,1.7165,1.6759,1.6637,0.0,0.0,0.0,0.0,0.0,0.0,0.0,1.8187,0.0,1.7375,1.8273,1.8753,1.8329,1.8317,1.8461,1.8767,1.8838,1.8623,1.8116,1.7834,1.7403,1.6778,1.6683,1.6742,1.6972,1.7411,1.7779,1.8059,1.8379,1.8455,1.8351,1.8683,1.8254,1.7364,1.7691,1.7293,1.6517,1.6598,1.6449,1.6237,1.6367,1.6837,1.7405,1.7517,1.7987,1.8595,1.8765,1.9453,2.0256,2.0437,2.0262,2.0069,2.0399,2.0976,2.141,2.1151,2.1469,2.183,2.1792,2.1523,2.1407,2.2019,2.1977,2.1818,2.179,2.164,2.1402,2.1006,2.0751,2.0673,2.0867,2.0906,2.1042,2.1436,2.1493,2.1578,2.1788,2.1807,2.1826,2.1807,2.2327,2.2572,2.2384,2.2572,2.2759,2.2945,2.2796,2.2583,2.2342,2.2331,2.2138,2.1708,2.2331,2.2648,2.2666,2.301,2.3152,1.8032,0.0,1.8825,1.8228,1.8259,1.8385,0.0,0.0,0.0,0.0,0.0,1.7988,1.8005,1.7655,1.7611,0.0,0.0,0.0,0.0,0.0,0.0,1.8175,1.8966,1.9273,1.8614,1.8362,1.8276,1.8363,1.8475,1.8612,1.8788,1.9235,1.9367,1.9069,1.8806,1.8262,1.7395,1.7181,1.7253,1.7666,1.7784,1.8024,1.8387,1.8619,1.8719,1.8692,1.8864,1.8478,1.7688,1.7834,1.7352,1.658,1.6748,1.6621,1.6374,1.6566,1.6969,1.7458,1.7835,1.8504,1.9287,1.9889,2.0249,2.0437,2.05,2.0647,2.0766,2.0555,2.0848,2.1173,2.1129,2.1552,2.1983,2.1846,2.1729,2.1653,2.1652,2.1899,2.2005,2.1642,2.1698,2.1714,2.1412,2.0928,2.0673,2.0867,2.0906,2.0984,2.1244,2.1387,2.1578,2.1788,2.194,2.1978,2.1807,2.2063,2.2214,2.2176,2.2365,2.2496,2.2534,2.2647,2.2667,2.2597,2.2763,2.2783,2.2673,2.2974,2.315,2.315,2.3534,2.3698,1.7828,1.8219,1.8506,1.8093,1.8134,1.8209,1.793,0.0,0.0,0.0,0.0,0.0,1.7859,0.0,0.0,0.0,1.8121,0.0,0.0,0.0,0.0,1.8258,1.8716,1.8924,1.8574,1.8322,1.823,1.835,1.8564,1.8812,1.9062,1.9521,1.967,1.9404,1.8929,1.8416,1.7873,1.7768,1.7842,1.8079,1.8243,1.8424,1.8635,1.8758,1.8804,1.8812,1.8702,1.8348,1.7831,1.7709,1.7315,1.6792,1.6958,1.6927,1.6773,1.6913,1.7131,1.7402,1.771,1.8401,1.9269,2.0198,2.0506,2.0542,2.0831,2.1062,2.1165,2.0863,2.0921,2.1132,2.1324,2.167,2.1961,2.1945,2.186,2.1816,2.1907,2.21,2.2212,2.1876,2.1866,2.1789,2.1419,2.0938,2.0644,2.0761,2.0848,2.0964,2.1167,2.1378,2.1578,2.1788,2.1902,2.1921,2.1807,2.1902,2.1997,2.2082,2.2289,2.2402,2.2402,2.2496,2.2647,2.2833,2.2945,2.3001,2.3001,2.3298,2.3427,2.3446,2.3861,2.4043,1.7679,1.7879,1.7957,1.7777,1.7708,1.7674,1.7569,0.0,0.0,0.0,0.0,0.0,0.0,0.0,0.0,0.0,0.0,0.0,1.7881,1.799,1.8052,1.8043,1.8273,1.8333,1.81,1.8193,1.825,1.8121,1.8498,1.8896,1.925,1.9633,1.9717,1.9443,1.8734,1.8329,1.8239,1.8206,1.8237,1.8337,1.857,1.8712,1.8758,1.8712,1.8689,1.8673,1.8401,1.8124,1.783,1.757,1.7285,1.7039,1.7161,1.7213,1.7219,1.7277,1.7302,1.7336,1.7561,1.816,1.902,2.0018,2.0395,2.0576,2.1105,2.1347,2.1364,2.1244,2.1178,2.126,2.1617,2.1792,2.1929,2.2057,2.198,2.1972,2.2322,2.2375,2.2337,2.2299,2.2107,2.1824,2.1453,2.1064,2.0762,2.0693,2.0898,2.1083,2.1196,2.1397,2.1598,2.1788,2.1807,2.1807,2.1807,2.1826,2.1921,2.2054,2.2214,2.2346,2.2402,2.2365,2.2534,2.2945,2.2945,2.2945,2.2964,2.3353,2.3574,2.3611,2.397,2.4182,1.7775,1.7974,1.7759,1.6802,1.6437,1.6385,0.0,0.0,0.0,0.0,0.0,0.0,0.0,0.0,0.0,0.0,0.0,1.8345,0.0,0.0,1.8585,1.946,1.9024,1.8565,1.8362,1.8031,1.7664,1.7315,1.8072,1.8563,1.8642,1.9275,1.9615,1.9563,1.9015,1.8647,1.8455,1.797,1.7955,1.8472,1.8303,1.8326,1.8551,1.8303,1.8203,1.8203,1.8212,1.7996,1.7643,1.7642,1.7461,1.7176,1.7183,1.7232,1.729,1.7311,1.7302,1.7388,1.8049,1.8647,1.9193,1.953,1.9963,2.0373,2.065,2.1037,2.1428,2.1569,2.1617,2.1627,2.1678,2.1996,2.2268,2.2122,2.2195,2.2312,2.2378,2.2264,2.2255,2.2629,2.2414,2.219,2.2282,2.1963,2.1562,2.1171,2.1422,2.1549,2.1236,2.1521,2.1769,2.1807,2.1807,2.1807,2.1807,2.1959,2.1987,2.1854,2.1883,2.2044,2.2384,2.2233,2.2346,2.274,2.274,2.274,2.274,2.315,2.3427,2.3604,2.3842,2.4043,1.7423,1.7649,1.7468,1.6403,1.6315,1.6359,0.0,0.0,0.0,0.0,0.0,0.0,0.0,0.0,0.0,0.0,0.0,1.7914,1.8182,1.818,1.8365,1.9013,1.8634,1.8293,1.8193,1.7882,1.7538,1.7131,1.7808,1.8176,1.8027,1.8543,1.8852,1.8888,1.8397,1.8057,1.7862,1.7573,1.7726,1.828,1.8164,1.8156,1.8288,1.8164,1.811,1.8087,1.7948,1.7796,1.7651,1.7484,1.7357,1.7252,1.7252,1.7271,1.7302,1.7302,1.7302,1.7396,1.8025,1.8465,1.8827,1.9217,1.9774,2.0314,2.0419,2.0888,2.1423,2.1504,2.1607,2.1696,2.1696,2.1708,2.1674,2.1577,2.1708,2.1861,2.1904,2.2215,2.2539,2.2759,2.2553,2.2392,2.2488,2.2263,2.2002,2.1774,2.211,2.225,2.1804,2.1996,2.2087,2.1828,2.1807,2.1807,2.1807,2.1873,2.193,2.1949,2.1864,2.1978,2.2384,2.2308,2.244,2.2852,2.2871,2.2927,2.302,2.3205,2.3464,2.3769,2.3861,2.4007,1.7192,1.7304,1.7097,1.6333,0.0,0.0,0.0,0.0,0.0,0.0,0.0,0.0,0.0,0.0,0.0,1.7839,1.7688,1.7635,1.7607,1.7757,1.802,1.8422,1.8152,1.7931,1.7931,1.7749,1.7518,1.7232,1.7605,1.7801,1.7743,1.7983,1.8143,1.8205,1.7841,1.7521,1.7302,1.7302,1.7473,1.7831,1.79,1.7916,1.7916,1.797,1.7948,1.7888,1.7774,1.7667,1.7571,1.7392,1.7298,1.7302,1.7302,1.7302,1.7302,1.7302,1.7302,1.7356,1.7776,1.8048,1.8303,1.8727,1.9356,1.9973,2.0147,2.0699,2.128,2.1437,2.1584,2.1696,2.1651,2.1467,2.1326,2.1264,2.1482,2.1751,2.1785,2.228,2.2737,2.2847,2.2708,2.2592,2.2635,2.251,2.241,2.2373,2.2714,2.2819,2.243,2.2537,2.2522,2.217,2.2128,2.2087,2.1973,2.1963,2.1979,2.2035,2.1968,2.2082,2.2384,2.2402,2.2572,2.2927,2.2983,2.3075,2.3224,2.3279,2.3501,2.3897,2.3806,2.3916,1.7515,1.7173,1.6654,1.6567,0.0,0.0,0.0,0.0,0.0,0.0,0.0,0.0,0.0,1.833,1.8532,1.7355,1.7829,1.8313,1.8244,1.7789,1.7745,1.8571,1.8112,1.772,1.772,1.7546,1.747,1.7548,1.7423,1.7592,1.8137,1.8014,1.792,1.7921,1.7781,1.7575,1.7302,1.7302,1.7223,1.7073,1.727,1.7356,1.738,1.7621,1.7557,1.7296,1.7834,1.775,1.7265,1.7549,1.7528,1.7302,1.7302,1.7302,1.7302,1.7302,1.7302,1.7309,1.7349,1.752,1.7768,1.7791,1.8319,1.9027,1.972,2.032,2.088,2.1508,2.1696,2.1651,2.1482,2.1722,2.1971,2.1717,2.2195,2.2711,2.2711,2.2555,2.2574,2.2982,2.2918,2.2843,2.303,2.3045,2.2985,2.2879,2.3051,2.31,2.288,2.3041,2.3142,2.3091,2.3111,2.2915,2.248,2.2449,2.2263,2.1847,2.2157,2.2365,2.2402,2.2402,2.2496,2.2721,2.2908,2.3001,2.302,2.3205,2.3501,2.3897,2.353,2.3659,1.7303,1.7432,1.7398,1.7062,0.0,0.0,0.0,0.0,0.0,0.0,0.0,0.0,0.0,0.0,1.7399,1.7448,1.7647,1.7809,1.7922,1.785,1.7899,1.8221,1.804,1.7789,1.7546,1.7566,1.7441,1.7066,1.7123,1.7234,1.7373,1.7321,1.7412,1.7703,1.7508,1.7366,1.7302,1.7176,1.6996,1.676,1.7122,1.7302,1.7309,1.7574,1.7538,1.7273,1.7685,1.7624,1.7273,1.7406,1.7504,1.7551,1.7551,1.745,1.7302,1.7302,1.7302,1.7302,1.7302,1.738,1.745,1.745,1.7963,1.8688,1.9438,2.0107,2.0803,2.1508,2.1607,2.1526,2.1562,2.1638,2.1654,2.1586,2.1967,2.2385,2.2433,2.2633,2.2947,2.3276,2.3285,2.3307,2.3515,2.3667,2.3779,2.3715,2.3887,2.3894,2.3546,2.3598,2.3525,2.3235,2.3204,2.3142,2.2946,2.3165,2.3131,2.2697,2.2272,2.2138,2.2384,2.2402,2.2553,2.2889,2.3075,2.3187,2.3187,2.3261,2.3427,2.3714,2.3427,2.3482,1.6834,1.6915,1.6923,0.0,0.0,0.0,0.0,0.0,0.0,0.0,0.0,0.0,0.0,0.0,0.0,0.0,1.7708,1.7728,1.7789,1.791,1.8,1.8,1.8,1.7878,1.7526,1.7619,1.7506,1.7013,1.7061,1.7088,1.7027,1.6902,1.694,1.7277,1.7079,1.6965,1.7026,1.698,1.6892,1.6691,1.7017,1.7191,1.7223,1.7558,1.7545,1.7279,1.7669,1.7561,1.7156,1.7266,1.7364,1.7495,1.7558,1.7457,1.7302,1.7302,1.7302,1.7302,1.7302,1.7356,1.7426,1.7426,1.7816,1.8442,1.908,1.9789,2.0515,2.1163,2.1428,2.1526,2.1674,2.1607,2.1521,2.1558,2.1948,2.2331,2.2373,2.2701,2.3079,2.3319,2.3329,2.3373,2.3667,2.3851,2.4034,2.4185,2.4335,2.433,2.4126,2.4084,2.3971,2.365,2.3608,2.3557,2.3442,2.3727,2.3745,2.3316,2.2761,2.2517,2.2617,2.274,2.2883,2.3001,2.3261,2.3353,2.3298,2.3353,2.3464,2.3593,2.3335,2.3372,1.6149,1.5471,0.0,0.0,0.0,0.0,0.0,0.0,0.0,0.0,0.0,0.0,0.0,0.0,0.0,1.761,1.8083,1.8302,1.804,1.8,1.8,1.8,1.8,1.791,1.772,1.77,1.7667,1.7602,1.7272,1.7158,1.7284,1.6854,1.6598,1.6598,1.6468,1.6389,1.6389,1.6734,1.6895,1.6903,1.6903,1.6941,1.7026,1.7488,1.7519,1.7228,1.7849,1.7612,1.6826,1.7171,1.7176,1.7026,1.7216,1.7302,1.7302,1.7302,1.7302,1.7302,1.7302,1.7481,1.7698,1.7698,1.7885,1.8179,1.8666,1.9317,1.9985,2.047,2.1141,2.1696,2.1696,2.1696,2.1696,2.1696,2.2264,2.2803,2.2803,2.2803,2.286,2.3079,2.2947,2.2957,2.3438,2.3503,2.3677,2.4142,2.4206,2.4261,2.4475,2.4497,2.4497,2.4497,2.4497,2.4343,2.394,2.4085,2.4011,2.3549,2.3768,2.3664,2.3136,2.3502,2.3485,2.3012,2.339,2.3501,2.3298,2.3501,2.3593,2.3586,2.3187,2.3316,1.5974,1.5833,0.0,0.0,0.0,0.0,0.0,0.0,0.0,0.0,0.0,0.0,1.7057,0.0,0.0,1.7444,1.7728,1.7931,1.7991,1.8,1.8,1.8,1.789,1.7708,1.7505,1.7363,1.72,1.6984,1.6876,1.6827,1.6817,1.6684,1.6641,1.6746,1.6521,1.6485,1.6669,1.6581,1.6675,1.6903,1.6903,1.7003,1.7216,1.7314,1.733,1.7287,1.7646,1.7561,1.7171,1.746,1.7347,1.705,1.7441,1.7481,1.7302,1.7302,1.7302,1.7302,1.7302,1.7356,1.7426,1.7426,1.7473,1.7707,1.8542,1.9073,1.9569,2.0442,2.1069,2.1482,2.1482,2.1584,2.1741,2.1941,2.2274,2.2574,2.2759,2.2904,2.3123,2.3515,2.3537,2.3646,2.4131,2.4196,2.4261,2.439,2.4411,2.4433,2.4497,2.4497,2.4497,2.4497,2.4497,2.452,2.4598,2.4798,2.484,2.4692,2.5087,2.4703,2.3371,2.3425,2.3321,2.3012,2.339,2.3501,2.3298,2.3501,2.353,2.3372,2.3113,2.3168,1.519,0.0,0.0,0.0,0.0,0.0,0.0,0.0,0.0,0.0,0.0,1.6615,1.7037,1.7098,0.0,1.7371,1.7635,1.7829,1.789,1.7951,1.7971,1.789,1.776,1.7598,1.7302,1.7241,1.7057,1.6738,1.6792,1.6784,1.665,1.6553,1.6526,1.6518,1.6253,1.6166,1.6246,1.6213,1.6367,1.6705,1.6705,1.6917,1.7295,1.7251,1.7266,1.7302,1.7394,1.7324,1.72,1.7347,1.7261,1.705,1.7394,1.745,1.7302,1.7302,1.7302,1.7302,1.7302,1.7302,1.7302,1.7302,1.7302,1.7419,1.8032,1.8511,1.9065,1.9979,2.0713,2.1316,2.1593,2.183,2.1998,2.2074,2.2242,2.2463,2.2737,2.2969,2.3232,2.3602,2.3667,2.3819,2.4304,2.4368,2.4411,2.4497,2.4497,2.4497,2.4497,2.4497,2.4497,2.4497,2.4604,2.4722,2.4882,2.519,2.5359,2.5359,2.5707,2.5277,2.3887,2.3833,2.3538,2.2882,2.3279,2.3335,2.3057,2.3335,2.3409,2.3298,2.3187,2.3261,0.0,0.0,0.0,0.0,0.0,0.0,0.0,0.0,0.0,0.0,0.0,1.7037,1.7057,1.7078,1.7159,1.7371,1.7716,1.789,1.772,1.785,1.787,1.77,1.7659,1.7497,1.7131,1.7249,1.7168,1.6738,1.6935,1.6955,1.6689,1.6504,1.6319,1.6115,1.5895,1.5674,1.5423,1.5803,1.6118,1.6389,1.6441,1.6755,1.7302,1.7273,1.728,1.7333,1.716,1.7097,1.7073,1.7097,1.7097,1.7073,1.727,1.7333,1.7326,1.7309,1.7302,1.7302,1.7302,1.7333,1.7326,1.7309,1.7333,1.7333,1.7333,1.7831,1.855,1.9209,2.0167,2.1132,2.1798,2.2176,2.2331,2.2207,2.2309,2.253,2.2772,2.2991,2.3244,2.3503,2.3569,2.3699,2.4163,2.4228,2.4292,2.4475,2.4497,2.4497,2.4497,2.4497,2.4497,2.4497,2.4722,2.4861,2.4903,2.5295,2.5538,2.5601,2.578,2.5471,2.4585,2.4528,2.3939,2.2762,2.3094,2.3113,2.2759,2.3113,2.3298,2.3298,2.3298,2.3501,0.0,1.4232,0.0,0.0,0.0,0.0,0.0,0.0,0.0,0.0,1.6375,1.6599,1.6751,1.6955,1.7159,1.7371,1.7473,1.7566,1.7679,1.7607,1.7514,1.7473,1.7322,1.7192,1.7119,1.6955,1.6812,1.6718,1.6751,1.6689,1.6476,1.6414,1.6319,1.6115,1.6305,1.6165,1.5637,1.6274,1.6536,1.6396,1.6675,1.6975,1.7295,1.7069,1.7214,1.7628,1.7784,1.7745,1.7565,1.7791,1.7745,1.7558,1.7605,1.7605,1.7581,1.738,1.7302,1.7302,1.7302,1.7434,1.7574,1.738,1.745,1.7605,1.7605,1.8009,1.8511,1.8673,1.9706,2.0781,2.0893,2.1544,2.2252,2.2583,2.2794,2.2969,2.3013,2.3353,2.3732,2.4002,2.4055,2.4131,2.439,2.4433,2.4454,2.4497,2.4497,2.4497,2.4497,2.4497,2.4497,2.4497,2.4561,2.4679,2.4882,2.4988,2.5211,2.558,2.5644,2.5488,2.5075,2.4703,2.3997,2.2967,2.3187,2.3261,2.3168,2.3261,2.3298,2.3298,2.3298,2.3427,0.0,0.0,0.0,0.0,0.0,0.0,0.0,0.0,0.0,1.6618,1.6566,1.6587,1.6677,1.6996,1.72,1.7086,1.7322,1.7505,1.7436,1.7412,1.7351,1.7261,1.7241,1.7159,1.6935,1.6894,1.6894,1.6894,1.6959,1.6984,1.6976,1.703,1.6899,1.6491,1.664,1.6478,1.593,1.6324,1.6565,1.6646,1.6822,1.7041,1.7302,1.7157,1.7241,1.7527,1.7784,1.7838,1.7721,1.7994,1.7947,1.7698,1.7558,1.7504,1.7457,1.7099,1.7122,1.7286,1.72,1.7317,1.7504,1.7356,1.738,1.7527,1.7651,1.7908,1.8218,1.8704,1.9455,2.0275,2.0934,2.1624,2.2233,2.2816,2.2947,2.3013,2.3232,2.3559,2.3884,2.4163,2.4292,2.4368,2.4475,2.4497,2.4497,2.4497,2.4497,2.4497,2.4497,2.4497,2.4497,2.4497,2.4615,2.4743,2.4882,2.5105,2.5274,2.5401,2.5623,2.5469,2.489,2.4536,2.3998,2.321,2.3065,2.302,2.302,2.3113,2.3205,2.3298,2.339,2.3556,0.0,0.0,0.0,0.0,0.0,0.0,0.0,0.0,1.6789,1.7033,1.6873,1.6689,1.6689,1.7025,1.7168,1.6812,1.7192,1.7436,1.7131,1.72,1.7229,1.7057,1.7188,1.7127,1.673,1.6894,1.7049,1.7098,1.7154,1.7304,1.7592,1.7683,1.7492,1.6987,1.7034,1.6821,1.6341,1.6432,1.6661,1.6948,1.6961,1.71,1.7302,1.7356,1.738,1.738,1.7737,1.7861,1.7869,1.8071,1.8017,1.7745,1.7426,1.7279,1.7192,1.6824,1.6918,1.7216,1.709,1.7183,1.7356,1.7333,1.7326,1.7403,1.7574,1.7651,1.7861,1.8712,1.918,1.9758,2.1047,2.165,2.2081,2.2806,2.286,2.2882,2.3428,2.3711,2.3937,2.4196,2.44,2.4497,2.4497,2.4497,2.4497,2.4497,2.4497,2.4497,2.4497,2.4497,2.4497,2.4497,2.47,2.4818,2.4818,2.52,2.5348,2.5158,2.5506,2.5376,2.4648,2.4266,2.3903,2.3535,2.2975,2.2703,2.2703,2.2908,2.3094,2.3298,2.3501,2.3714,0.0,0.0,0.0,0.0,0.0,0.0,0.0,0.0,1.6549,0.0,1.682,1.6689,1.6689,1.6759,1.6853,1.7017,1.6935,1.6894,1.707,1.6914,1.6771,1.6751,1.6779,1.6779,1.6718,1.673,1.6853,1.7078,1.6901,1.702,1.7576,1.7458,1.7326,1.7257,1.7527,1.7406,1.6809,1.7376,1.7499,1.716,1.7228,1.7266,1.7309,1.7551,1.7651,1.7675,1.8365,1.8558,1.8388,1.8435,1.8288,1.7994,1.7496,1.72,1.7026,1.6979,1.6979,1.7066,1.7216,1.7434,1.7605,1.738,1.7457,1.7605,1.7403,1.7527,1.7721,1.7861,1.855,1.9386,1.9985,2.0642,2.1378,2.2277,2.2463,2.2684,2.358,2.3959,2.4206,2.4411,2.4475,2.4497,2.4497,2.4497,2.4497,2.4497,2.4497,2.4497,2.4497,2.4497,2.4497,2.4497,2.454,2.4561,2.4561,2.4604,2.4722,2.4924,2.4988,2.5073,2.5104,2.4142,2.3705,2.4011,2.3147,2.2703,2.2703,2.2908,2.3094,2.3298,2.3501,2.3714,0.0,0.0,0.0,0.0,0.0,0.0,0.0,0.0,1.6726,1.7096,1.6924,1.6773,1.6979,1.6968,1.6914,1.6874,1.6894,1.6914,1.6874,1.6771,1.6689,1.6689,1.6833,1.6874,1.671,1.6833,1.6976,1.709,1.7066,1.7208,1.7584,1.7765,1.7719,1.737,1.7824,1.7839,1.7287,1.7706,1.7841,1.7704,1.7732,1.7753,1.7753,1.8024,1.7908,1.7504,1.8133,1.8272,1.8055,1.8218,1.8117,1.7831,1.745,1.7239,1.7129,1.6871,1.6941,1.7153,1.7136,1.727,1.7473,1.7504,1.7504,1.7504,1.7683,1.7831,1.7955,1.8102,1.8558,1.9119,1.9735,2.0243,2.0826,2.1646,2.2033,2.2429,2.3079,2.3624,2.4088,2.4433,2.4497,2.4497,2.4497,2.4497,2.4497,2.4497,2.4497,2.4497,2.4497,2.4497,2.4497,2.4497,2.4636,2.4722,2.4722,2.4828,2.4882,2.4903,2.5009,2.4988,2.4828,2.4072,2.3708,2.3757,2.2939,2.2647,2.2871,2.3075,2.3205,2.3316,2.3622,2.3824,0.0,0.0,0.0,0.0,0.0,0.0,0.0,0.0,1.7038,0.0,1.7007,1.6829,1.7236,1.7122,1.6935,1.673,1.6874,1.6935,1.6738,1.6689,1.6689,1.6689,1.6874,1.6914,1.671,1.6874,1.7037,1.709,1.713,1.728,1.7592,1.7885,1.7834,1.7378,1.7831,1.7901,1.7543,1.7832,1.8003,1.811,1.811,1.811,1.811,1.8311,1.8024,1.7426,1.797,1.8001,1.7721,1.7924,1.7831,1.7574,1.7317,1.7169,1.7099,1.68,1.6918,1.7216,1.7113,1.7176,1.7326,1.7527,1.7504,1.7473,1.7877,1.804,1.8164,1.8435,1.8612,1.8874,1.9538,1.9866,2.0238,2.1087,2.1521,2.1954,2.2803,2.345,2.4013,2.4411,2.4497,2.4497,2.4497,2.4497,2.4497,2.4497,2.4497,2.4497,2.4497,2.4497,2.4497,2.4497,2.4743,2.4861,2.4797,2.4988,2.5031,2.4807,2.4946,2.4892,2.4604,2.4031,2.3708,2.3648,2.2989,2.2829,2.3195,2.3337,2.3486,2.3661,2.377,2.3879,0.0,0.0,0.0,0.0,0.0,0.0,0.0,0.0,1.7372,1.7301,1.6976,1.6829,1.7236,1.6984,1.671,1.6689,1.671,1.671,1.6689,1.6689,1.6689,1.6689,1.671,1.671,1.6689,1.671,1.6833,1.7078,1.6869,1.6988,1.7576,1.745,1.7347,1.731,1.739,1.7439,1.7417,1.7857,1.8094,1.811,1.811,1.811,1.811,1.811,1.7947,1.7698,1.8241,1.8172,1.7698,1.7721,1.7551,1.7309,1.709,1.6855,1.6659,1.6878,1.6979,1.7043,1.7216,1.7286,1.7302,1.7333,1.7473,1.7675,1.7698,1.7908,1.8164,1.8435,1.8504,1.8643,1.9104,1.9256,1.9546,2.0749,2.0862,2.1199,2.3057,2.3851,2.4249,2.4454,2.4497,2.4497,2.4497,2.4497,2.4497,2.4497,2.4497,2.4497,2.4497,2.4497,2.4497,2.4497,2.4743,2.4807,2.454,2.4764,2.4797,2.454,2.454,2.4647,2.4861,2.399,2.3688,2.4068,2.3582,2.3478,2.3755,2.3708,2.4014,2.4608,2.3928,2.3824,0.0,0.0,0.0,0.0,0.0,1.7073,1.666,1.6802,1.701,1.698,1.6822,1.679,1.7104,1.69,1.6689,1.6689,1.6689,1.6689,1.6689,1.6689,1.6689,1.6689,1.6689,1.6779,1.6935,1.6955,1.6996,1.709,1.7009,1.6991,1.7016,1.7214,1.7207,1.7051,1.7437,1.7685,1.7712,1.814,1.8357,1.8357,1.8489,1.8481,1.8357,1.8357,1.8125,1.7706,1.7892,1.7768,1.745,1.745,1.738,1.7279,1.7216,1.7122,1.7052,1.7145,1.72,1.7192,1.7286,1.7223,1.7183,1.7667,1.7637,1.7551,1.8055,1.8288,1.8381,1.8458,1.8589,1.8766,1.9104,1.9333,1.9685,2.0578,2.0817,2.1123,2.2126,2.296,2.3602,2.397,2.4304,2.4497,2.4497,2.4497,2.4497,2.4497,2.4497,2.4497,2.4497,2.4636,2.4679,2.4518,2.4871,2.4988,2.4786,2.4839,2.4903,2.4956,2.4828,2.4871,2.5073,2.4317,2.4187,2.4791,2.4471,2.4116,2.3741,2.431,2.4717,2.4968,2.4941,2.5032,0.0,0.0,0.0,0.0,0.0,1.7375,1.688,1.6853,1.6902,1.6824,1.6759,1.6778,1.6879,1.6924,1.6874,1.6738,1.6689,1.6689,1.6689,1.6689,1.6689,1.6689,1.6689,1.6779,1.6955,1.6976,1.6976,1.6976,1.6976,1.6894,1.6718,1.6948,1.7017,1.6817,1.7199,1.7483,1.756,1.8095,1.8381,1.8381,1.8666,1.8697,1.8504,1.8404,1.8125,1.7698,1.7698,1.7551,1.7302,1.7302,1.7302,1.7302,1.7302,1.7302,1.7302,1.7302,1.7302,1.7302,1.7302,1.727,1.7331,1.7815,1.7854,1.7831,1.8427,1.8658,1.8728,1.8728,1.8835,1.8958,1.9027,1.9387,1.9831,2.0314,2.0713,2.1078,2.1414,2.2201,2.3025,2.358,2.4024,2.4325,2.4475,2.4497,2.4497,2.4497,2.4497,2.4497,2.4497,2.4658,2.4722,2.4636,2.4903,2.5052,2.4903,2.4967,2.5031,2.5094,2.5031,2.5094,2.5338,2.4602,2.4543,2.5286,2.5032,2.4739,2.4409,2.5035,2.5428,2.5574,2.559,2.5665,0.0,0.0,0.0,0.0,0.0,0.0,1.7153,1.7147,1.711,1.6882,1.6807,1.676,1.6567,1.7012,1.7249,1.6792,1.671,1.6718,1.6689,1.6689,1.6689,1.6689,1.6689,1.6689,1.6689,1.6718,1.671,1.671,1.671,1.6718,1.6689,1.6689,1.6669,1.6604,1.6672,1.6773,1.6918,1.7711,1.811,1.8133,1.8573,1.8697,1.8481,1.821,1.7947,1.7698,1.7698,1.7551,1.7309,1.7309,1.7309,1.7302,1.7302,1.7302,1.7302,1.7302,1.7309,1.7309,1.7302,1.7481,1.7698,1.7706,1.8055,1.8527,1.8743,1.8981,1.9211,1.9211,1.9211,1.9142,1.8874,1.9356,1.9914,1.9905,2.0464,2.0997,2.0997,2.1713,2.2574,2.3329,2.3646,2.3949,2.4411,2.4497,2.4518,2.4518,2.4518,2.4518,2.4518,2.4518,2.4615,2.4861,2.4903,2.4903,2.4882,2.5073,2.5115,2.4924,2.5094,2.5327,2.5601,2.4847,2.4785,2.5531,2.5273,2.536,2.5844,2.5844,2.6065,2.6493,2.5784,2.565,1.6184,0.0,0.0,0.0,0.0,0.0,1.7012,1.6965,1.7029,1.7253,1.7047,1.6913,1.7298,1.7378,1.731,1.7037,1.6996,1.6914,1.6738,1.6566,1.6476,1.6476,1.6476,1.6538,1.6689,1.6874,1.6996,1.6996,1.6996,1.6894,1.671,1.6689,1.6731,1.6802,1.689,1.707,1.7394,1.7873,1.821,1.8381,1.8674,1.8596,1.821,1.8133,1.7854,1.7403,1.7403,1.7481,1.7581,1.7581,1.7481,1.7302,1.7302,1.7302,1.7302,1.7302,1.7426,1.7551,1.738,1.7356,1.7473,1.7854,1.7955,1.8079,1.885,1.9142,1.9234,1.9433,1.9356,1.9188,1.9104,1.9631,2.0133,1.9951,2.036,2.0781,2.0781,2.1096,2.1602,2.2331,2.3188,2.3895,2.424,2.4562,2.485,2.4988,2.502,2.502,2.502,2.502,2.4988,2.4903,2.4903,2.4818,2.4636,2.485,2.5031,2.5115,2.5359,2.5644,2.6032,2.5489,2.5613,2.6492,2.6108,2.6197,2.681,2.6667,2.6667,2.6789,2.6734,2.648,0.0,0.0,0.0,0.0,0.0,0.0,1.7218,1.7161,1.7169,1.7343,1.7215,1.7142,1.7336,1.7262,1.7116,1.6882,1.6663,1.6549,1.669,1.6607,1.6497,1.6414,1.6476,1.6538,1.6566,1.6792,1.6935,1.6935,1.6935,1.6853,1.6718,1.6628,1.6611,1.669,1.6783,1.6958,1.7193,1.7611,1.7948,1.8263,1.8362,1.8317,1.811,1.797,1.7707,1.7309,1.7426,1.7558,1.7706,1.7815,1.7714,1.7481,1.7481,1.7403,1.7302,1.7302,1.7481,1.7651,1.738,1.7559,1.7963,1.8063,1.828,1.8612,1.9181,1.9425,1.9517,1.9693,1.9479,1.9234,1.9342,1.9685,2.0027,2.0065,2.0382,2.0713,2.0803,2.1006,2.1351,2.1985,2.2706,2.3396,2.3928,2.4337,2.4701,2.5031,2.5158,2.5179,2.5094,2.5073,2.5031,2.4903,2.4807,2.4743,2.4786,2.4946,2.5115,2.5359,2.5601,2.5874,2.6199,2.5615,2.5793,2.688,2.63,2.6388,2.721,2.7088,2.6985,2.6891,2.7015,2.6835,0.0,0.0,0.0,0.0,1.7253,0.0,1.7681,1.7596,1.7443,1.7361,1.745,1.745,1.7153,1.7069,1.6966,1.6714,1.6209,1.6013,1.6532,1.6537,1.6436,1.6264,1.6387,1.6436,1.6264,1.6436,1.6558,1.6599,1.661,1.665,1.6669,1.6525,1.643,1.6407,1.6557,1.6656,1.6695,1.7152,1.7563,1.7889,1.7867,1.7894,1.7972,1.7725,1.7447,1.72,1.7447,1.7609,1.7716,1.794,1.794,1.7745,1.7698,1.7551,1.7333,1.7309,1.7504,1.7698,1.745,1.7963,1.8689,1.8319,1.8789,1.9519,1.966,1.9787,1.9905,1.9905,1.9608,1.9333,1.9533,1.9633,1.9785,2.0164,2.0496,2.0781,2.093,2.1172,2.1482,2.1941,2.222,2.2706,2.3636,2.4036,2.4402,2.4903,2.5137,2.5158,2.4967,2.4903,2.4903,2.4903,2.4679,2.47,2.5137,2.5221,2.5359,2.558,2.5812,2.6021,2.624,2.5523,2.5673,2.683,2.6125,2.6207,2.717,2.717,2.7076,2.6891,2.6871,2.685,0.0,0.0,0.0,0.0,0.0,0.0,1.794,1.7906,1.7968,1.8263,1.8098,1.7982,1.822,1.8138,1.7961,1.7747,1.7109,1.6485,1.5961,1.5471,1.5224,1.5341,1.5243,1.5224,1.5341,1.5545,1.5721,1.5888,1.615,1.6348,1.644,1.6566,1.6617,1.6569,1.6736,1.6962,1.7241,1.7355,1.7548,1.783,1.7671,1.7482,1.7292,1.7063,1.6833,1.658,1.6624,1.7019,1.7606,1.7674,1.7842,1.7994,1.7768,1.7675,1.7605,1.738,1.7613,1.797,1.7721,1.8024,1.8566,1.8643,1.8804,1.9137,2.0049,2.014,1.9905,1.9905,1.9837,1.9754,1.9633,1.9876,2.0133,1.9996,2.0464,2.0907,2.0781,2.0938,2.1163,2.1482,2.2008,2.2696,2.3637,2.4155,2.468,2.5359,2.5496,2.5433,2.5179,2.5009,2.4903,2.4903,2.4839,2.4861,2.4946,2.5295,2.5538,2.5601,2.5937,2.625,2.652,2.6109,2.6103,2.6571,2.6214,2.6328,2.6953,2.6953,2.6933,2.6891,2.6727,2.6541,0.0,0.0,0.0,1.7262,0.0,0.0,0.0,1.8015,1.8186,1.8281,1.8068,1.7916,1.8117,1.7692,1.7333,1.7432,1.6633,1.5869,1.5495,1.5326,1.52,1.5111,1.5014,1.4956,1.4956,1.513,1.5381,1.5674,1.586,1.6004,1.6129,1.6261,1.6316,1.6352,1.6554,1.6737,1.6894,1.7,1.7222,1.7546,1.7073,1.6941,1.7072,1.6617,1.6337,1.6197,1.6197,1.644,1.6885,1.7281,1.7697,1.8048,1.7925,1.7815,1.7675,1.7551,1.7753,1.811,1.811,1.8512,1.9036,1.9012,1.9242,1.9641,2.0077,2.0048,1.9951,2.0224,2.0019,1.9808,2.0081,2.0224,2.0292,2.0292,2.0668,2.0975,2.0871,2.1028,2.1248,2.1369,2.1741,2.2321,2.3147,2.3691,2.424,2.4945,2.5264,2.5317,2.5073,2.5052,2.4967,2.4722,2.4903,2.5052,2.5052,2.5391,2.5644,2.5728,2.5937,2.6209,2.6582,2.617,2.606,2.63,2.643,2.659,2.6747,2.6623,2.6541,2.6541,2.6582,2.6458,0.0,0.0,0.0,0.0,0.0,1.7666,0.0,0.0,0.0,1.8228,1.8039,1.791,1.791,1.7235,1.6733,1.6928,1.6037,1.5309,1.5253,1.5393,1.5343,1.4954,1.4858,1.4744,1.4535,1.4725,1.5064,1.5513,1.5586,1.5672,1.5828,1.5931,1.6019,1.6154,1.636,1.6456,1.6456,1.6628,1.684,1.7133,1.6484,1.6407,1.6816,1.617,1.5914,1.5929,1.5892,1.6031,1.6316,1.6974,1.7574,1.8057,1.8087,1.8017,1.7885,1.7745,1.7931,1.8272,1.8473,1.9012,1.9556,1.9379,1.9841,2.0363,2.0067,2.0024,2.0166,2.0513,2.0232,1.9945,2.0541,2.0564,2.0487,2.0654,2.0848,2.0997,2.0952,2.115,2.1347,2.1392,2.1562,2.1932,2.2671,2.3198,2.3721,2.4347,2.4839,2.5073,2.4839,2.4967,2.4935,2.4604,2.4956,2.5221,2.5264,2.5517,2.5738,2.5885,2.5979,2.6167,2.6458,2.601,2.5811,2.5969,2.6407,2.6584,2.652,2.6282,2.6157,2.622,2.6416,2.6416,0.0,0.0,0.0,0.0,1.7138,0.0,0.0,0.0,1.8566,1.8908,0.0,1.8674,1.8674,0.0,0.0,1.7261,1.6605,1.5983,1.5453,1.4996,1.4601,1.4248,1.4001,1.3754,1.3497,1.3807,1.4303,1.4939,1.5162,1.5378,1.5625,1.5975,1.6224,1.6365,1.6566,1.6669,1.6669,1.6689,1.6631,1.6497,1.6244,1.601,1.5845,1.5589,1.5568,1.572,1.5554,1.599,1.6823,1.7031,1.7567,1.8245,1.8134,1.8342,1.8596,1.7931,1.8133,1.8712,1.8758,1.9135,1.9633,1.9777,2.0279,2.0769,2.0372,2.0486,2.0714,2.044,2.045,2.0586,2.0677,2.0803,2.0885,2.0744,2.0848,2.0952,2.0758,2.0893,2.1118,2.1347,2.1562,2.1932,2.2671,2.3198,2.3667,2.4166,2.4637,2.485,2.4583,2.4561,2.4636,2.4818,2.5073,2.5306,2.5538,2.5749,2.5885,2.5895,2.6292,2.6354,2.5979,2.5703,2.554,2.5569,2.5636,2.5859,2.624,2.6053,2.6032,2.6199,2.624,2.624,0.0,0.0,0.0,0.0,0.0,0.0,1.7585,0.0,1.8489,1.8858,0.0,0.0,0.0,0.0,0.0,0.0,1.6574,1.5894,1.5565,1.5023,1.4577,1.4358,1.4064,1.3722,1.3338,1.3628,1.3926,1.4123,1.4304,1.4579,1.4998,1.5263,1.5564,1.5928,1.6321,1.6463,1.6348,1.6463,1.6422,1.6224,1.5865,1.5699,1.5692,1.5374,1.5333,1.5519,1.545,1.5649,1.6106,1.6972,1.7617,1.8101,1.8559,1.8758,1.8781,1.8643,1.8773,1.9081,1.9333,1.9585,1.9845,2.0246,2.0449,2.0575,2.0675,2.0622,2.0566,2.0666,2.0578,2.0496,2.0654,2.0758,2.0826,2.0871,2.106,2.1203,2.1114,2.1262,2.1396,2.1392,2.1562,2.1852,2.2318,2.3023,2.3612,2.3917,2.4498,2.4861,2.4743,2.4967,2.5094,2.4924,2.5317,2.5528,2.538,2.5686,2.5895,2.5895,2.6084,2.6104,2.5916,2.5895,2.5909,2.591,2.591,2.601,2.6199,2.6115,2.6199,2.6437,2.6437,2.655,1.4918,0.0,0.0,0.0,0.0,0.0,0.0,0.0,0.0,0.0,1.8288,0.0,0.0,0.0,0.0,0.0,0.0,1.5643,1.5344,1.496,1.4658,1.4524,1.4122,1.3762,1.3493,1.3631,1.3721,1.3622,1.381,1.41,1.4494,1.4791,1.5151,1.5613,1.6074,1.6278,1.6183,1.6265,1.6216,1.5984,1.5658,1.5526,1.5616,1.5374,1.5409,1.5664,1.5539,1.5664,1.602,1.6947,1.7618,1.8148,1.8942,1.9198,1.9104,1.9173,1.9279,1.9448,1.9791,1.9996,2.0201,2.0645,2.0609,2.0487,2.0885,2.0713,2.0496,2.0885,2.0803,2.0631,2.0744,2.0871,2.0983,2.0997,2.1195,2.1392,2.1392,2.1495,2.1584,2.1504,2.1651,2.1874,2.2074,2.2825,2.345,2.3689,2.4336,2.4818,2.4882,2.519,2.5295,2.5009,2.5422,2.557,2.5242,2.557,2.5833,2.5895,2.577,2.5717,2.5791,2.5832,2.5915,2.6021,2.6021,2.6063,2.6199,2.6271,2.6437,2.6685,2.6685,2.688,1.4729,1.4635,1.4513,1.5157,1.5622,1.6108,1.6684,1.7183,1.7676,1.8202,0.0,0.0,0.0,0.0,0.0,0.0,0.0,0.0,0.0,1.463,1.4653,1.4523,1.3922,1.3611,1.3867,1.3708,1.3627,1.3682,1.4055,1.4288,1.4316,1.4929,1.5399,1.5682,1.5978,1.6203,1.6394,1.6203,1.5976,1.5713,1.5692,1.5596,1.5431,1.5596,1.594,1.6332,1.5899,1.6319,1.7315,1.7036,1.7533,1.8528,1.915,1.9594,1.9814,1.9348,1.9494,1.9882,1.9882,2.0246,2.0722,2.093,2.0848,2.0722,2.093,2.0848,2.0722,2.093,2.1172,2.1302,2.1073,2.132,2.1553,2.1109,2.1195,2.1392,2.1392,2.1423,2.1459,2.1651,2.1919,2.2097,2.2097,2.2662,2.321,2.3482,2.4088,2.4604,2.4871,2.4903,2.4988,2.5179,2.5221,2.5221,2.52,2.5443,2.5686,2.5885,2.5475,2.5306,2.5496,2.5158,2.5168,2.5601,2.557,2.5759,2.6199,2.6458,2.6685,2.6891,2.6891,2.7003,1.3581,1.4001,1.4382,1.4474,1.5153,1.5832,1.6137,1.6524,1.6963,1.7411,1.7112,1.6883,0.0,0.0,0.0,0.0,0.0,0.0,0.0,1.4821,1.4524,1.4267,1.3832,1.3433,1.3071,1.2986,1.3007,1.3158,1.3332,1.3687,1.4274,1.4515,1.4962,1.569,1.5878,1.6054,1.6203,1.5948,1.5873,1.5955,1.565,1.5692,1.6051,1.6126,1.625,1.6394,1.6381,1.6587,1.6967,1.7438,1.7847,1.8228,1.8976,1.9568,2.0025,1.9949,2.0019,2.0201,2.036,2.0645,2.0938,2.1172,2.1105,2.0975,2.1342,2.1316,2.1181,2.1248,2.1325,2.1347,2.1064,2.1109,2.1253,2.1271,2.1325,2.1446,2.1571,2.1607,2.1674,2.1919,2.1896,2.1985,2.2473,2.275,2.3079,2.3624,2.4154,2.4637,2.5052,2.5253,2.5317,2.52,2.5073,2.5009,2.5009,2.4914,2.4988,2.5232,2.5094,2.5158,2.5549,2.5433,2.5359,2.5338,2.5738,2.5989,2.5999,2.653,2.6891,2.7108,2.7108,2.7301,1.3113,1.3719,1.4289,1.4251,1.4937,1.5638,1.5629,1.5926,1.629,1.6579,1.6295,1.6117,0.0,0.0,0.0,0.0,0.0,0.0,0.0,1.4796,1.4362,1.3805,1.3649,0.0,0.0,1.2737,1.2798,1.2939,1.3116,1.3473,1.4094,1.4455,1.4913,1.5478,1.5799,1.6021,1.6108,1.5824,1.5824,1.6108,1.5782,1.594,1.6517,1.6607,1.6681,1.6771,1.6812,1.6955,1.7196,1.7619,1.8,1.8372,1.8892,1.9462,2.0018,2.0158,2.0352,2.0578,2.0857,2.1037,2.1195,2.1428,2.1338,2.1208,2.1597,2.1562,2.1414,2.1482,2.1459,2.1347,2.1064,2.1064,2.1172,2.1248,2.1383,2.1549,2.1674,2.1776,2.1896,2.2074,2.203,2.2087,2.2583,2.2662,2.2882,2.358,2.4154,2.4594,2.4903,2.5253,2.5317,2.4999,2.485,2.4764,2.4764,2.454,2.4476,2.4637,2.4882,2.4988,2.4956,2.5338,2.5485,2.5306,2.5905,2.6218,2.627,2.6757,2.7076,2.721,2.721,2.7455]},{"header":{"parameterUnit":"m.s-1","parameterCategory":1,"la1":30.6,"la2":29.2853,"lo1":-89.7004,"lo2":-87.6739,"dy":0.0162,"dx":0.0183,"nx":112,"ny":82,"refTime":"2024-03-15T12:00:00:Z","depth":0,"parameterNumber":3,"parameterNumberName":"V-component_of_WINDS"},"data":[0.0,0.0,0.0,0.0,0.0,0.0,0.0,0.0,0.0,0.0,0.0,0.0,0.0,0.0,0.0,0.0,0.0,0.0,0.0,0.0,0.0,0.0,0.0,0.0,0.0,0.0,0.0,0.0,0.0,0.0,0.0,0.0,0.0,0.0,0.0,0.0,0.0,0.0,0.0,0.0,0.0,0.0,0.0,0.0,0.0,0.0,0.0,0.0,0.0,0.0,0.0,0.0,0.0,0.0,0.0,0.0,0.0,0.0,0.0,0.0,0.0,0.0,0.0,0.0,0.0,0.0,0.0,0.0,0.0,0.0,0.0,0.0,0.0,0.0,0.0,0.0,0.0,0.0,0.0,0.0,0.0,0.0,0.0,0.0,0.0,0.0,0.0,0.0,0.0,0.0,1.7321,1.78,1.7897,1.7654,1.7022,1.6717,1.5939,1.4497,0.0,0.0,0.0,0.0,0.0,0.0,0.0,0.0,0.0,0.0,0.0,0.0,0.0,0.0,0.0,0.0,0.0,0.0,0.0,0.0,0.0,0.0,0.0,0.0,0.0,0.0,0.0,0.0,0.0,0.0,0.0,0.0,0.0,0.0,0.0,0.0,0.0,0.0,0.0,0.0,0.0,0.0,0.0,0.0,0.0,0.0,0.0,0.0,0.0,0.0,0.0,0.0,0.0,0.0,0.0,0.0,0.0,0.0,0.0,0.0,0.0,0.0,0.0,0.0,0.0,0.0,0.0,0.0,0.0,0.0,0.0,0.0,0.0,0.0,0.0,0.0,0.0,0.0,0.0,0.0,0.0,0.0,0.0,0.0,0.0,0.0,0.0,0.0,0.0,0.0,0.0,0.0,0.0,0.0,0.0,0.0,0.0,0.0,0.0,0.0,0.0,0.0,0.0,0.0,1.837,1.8898,1.8674,1.8282,1.7782,1.7689,1.6866,1.5007,0.0,0.0,0.0,0.0,0.0,0.0,0.0,0.0,0.0,0.0,0.0,0.0,0.0,0.0,0.0,0.0,0.0,0.0,0.0,0.0,0.0,0.0,0.0,0.0,0.0,0.0,0.0,0.0,0.0,0.0,0.0,0.0,0.0,0.0,0.0,0.0,0.0,0.0,0.0,0.0,0.0,0.0,0.0,0.0,0.0,0.0,0.0,0.0,0.0,0.0,0.0,0.0,0.0,0.0,0.0,0.0,0.0,0.0,0.0,0.0,0.0,0.0,0.0,0.0,0.0,0.0,0.0,0.0,0.0,0.0,0.0,0.0,0.0,0.0,0.0,0.0,0.0,0.0,0.0,0.0,0.0,0.0,0.0,0.0,0.0,0.0,0.0,0.0,0.0,0.0,0.0,0.0,0.0,0.0,0.0,0.0,0.0,0.0,0.0,0.0,0.0,0.0,0.0,1.807,1.8821,1.9362,1.8987,1.8491,1.795,1.7963,1.7326,1.5754,1.5437,0.0,0.0,0.0,0.0,0.0,0.0,0.0,0.0,0.0,0.0,0.0,0.0,0.0,0.0,0.0,0.0,0.0,0.0,0.0,0.0,0.0,0.0,0.0,0.0,0.0,0.0,0.0,0.0,0.0,0.0,0.0,0.0,0.0,0.0,0.0,0.0,0.0,0.0,0.0,0.0,0.0,0.0,0.0,0.0,0.0,0.0,0.0,0.0,0.0,0.0,0.0,0.0,0.0,0.0,0.0,0.0,0.0,0.0,0.0,0.0,0.0,0.0,0.0,0.0,0.0,0.0,0.0,0.0,0.0,0.0,0.0,0.0,0.0,0.0,0.0,0.0,0.0,0.0,0.0,0.0,0.0,0.0,0.0,0.0,0.0,0.0,0.0,0.0,0.0,0.0,0.0,0.0,0.0,0.0,0.0,0.0,0.0,0.0,0.0,0.0,0.0,0.0,1.8595,1.8983,1.9464,1.904,1.8504,1.7895,1.782,1.7281,1.609,1.5786,0.0,0.0,0.0,0.0,0.0,0.0,0.0,0.0,0.0,0.0,0.0,0.0,0.0,0.0,0.0,0.0,0.0,0.0,0.0,0.0,0.0,0.0,0.0,0.0,0.0,0.0,0.0,0.0,0.0,0.0,0.0,0.0,0.0,0.0,0.0,0.0,0.0,0.0,0.0,0.0,0.0,0.0,0.0,0.0,0.0,0.0,0.0,0.0,0.0,0.0,0.0,0.0,0.0,0.0,0.0,0.0,0.0,0.0,0.0,0.0,0.0,0.0,0.0,0.0,0.0,0.0,0.0,0.0,0.0,0.0,0.0,0.0,0.0,0.0,0.0,0.0,0.0,0.0,0.0,0.0,0.0,0.0,0.0,0.0,0.0,0.0,0.0,0.0,0.0,0.0,0.0,0.0,0.0,0.0,0.0,0.0,0.0,0.0,0.0,0.0,0.0,0.0,1.8741,1.892,1.9191,1.8867,1.8371,1.7767,1.7207,1.648,1.5519,1.516,0.0,0.0,0.0,0.0,0.0,0.0,0.0,0.0,0.0,0.0,0.0,0.0,0.0,0.0,0.0,0.0,0.0,0.0,0.0,0.0,0.0,0.0,0.0,0.0,0.0,0.0,0.0,0.0,0.0,0.0,0.0,0.0,0.0,0.0,0.0,0.0,0.0,0.0,0.0,0.0,0.0,0.0,0.0,0.0,0.0,0.0,0.0,0.0,0.0,0.0,0.0,0.0,0.0,0.0,0.0,0.0,0.0,0.0,0.0,0.0,0.0,0.0,0.0,0.0,0.0,0.0,0.0,0.0,0.0,0.0,0.0,0.0,0.0,0.0,0.0,0.0,0.0,0.0,0.0,0.0,0.0,0.0,0.0,0.0,0.0,0.0,0.0,0.0,0.0,0.0,0.0,0.0,0.0,0.0,0.0,0.0,0.0,0.0,0.0,0.0,0.0,0.0,1.9056,1.9342,1.9108,1.859,1.8061,1.749,1.7327,1.6526,1.4886,0.0,0.0,0.0,0.0,0.0,0.0,0.0,0.0,0.0,0.0,0.0,0.0,0.0,0.0,0.0,0.0,0.0,0.0,0.0,0.0,0.0,0.0,0.0,0.0,0.0,0.0,0.0,0.0,0.0,0.0,0.0,0.0,0.0,0.0,0.0,0.0,0.0,0.0,0.0,0.0,0.0,0.0,0.0,0.0,0.0,0.0,0.0,0.0,0.0,0.0,0.0,0.0,0.0,0.0,0.0,0.0,0.0,0.0,0.0,0.0,0.0,0.0,0.0,0.0,0.0,0.0,0.0,0.0,0.0,0.0,0.0,0.0,0.0,0.0,0.0,0.0,0.0,0.0,0.0,0.0,0.0,0.0,0.0,0.0,0.0,0.0,0.0,0.0,0.0,0.0,0.0,0.0,0.0,0.0,0.0,0.0,0.0,0.0,0.0,0.0,0.0,0.0,1.8602,1.9245,1.9552,1.9053,1.8427,1.7829,1.7309,1.7142,1.6328,1.4623,0.0,0.0,0.0,0.0,0.0,0.0,0.0,0.0,0.0,0.0,0.0,0.0,0.0,0.0,0.0,0.0,0.0,0.0,0.0,0.0,0.0,0.0,0.0,0.0,0.0,0.0,0.0,0.0,0.0,0.0,0.0,0.0,0.0,0.0,0.0,0.0,0.0,0.0,0.0,0.0,0.0,0.0,0.0,0.0,0.0,0.0,0.0,0.0,0.0,0.0,0.0,0.0,0.0,0.0,0.0,0.0,0.0,0.0,0.0,0.0,0.0,0.0,0.0,0.0,0.0,0.0,0.0,0.0,0.0,0.0,0.0,0.0,0.0,0.0,0.0,0.0,0.0,0.0,0.0,0.0,0.0,0.0,0.0,0.0,0.0,0.0,0.0,0.0,0.0,0.0,0.0,0.0,0.0,0.0,0.0,0.0,0.0,0.0,0.0,0.0,0.0,0.0,1.8904,1.9307,1.9447,1.9039,1.8344,1.7717,1.7256,1.6533,1.5739,0.0,0.0,0.0,0.0,0.0,0.0,0.0,0.0,0.0,0.0,0.0,0.0,0.0,0.0,0.0,0.0,0.0,0.0,0.0,0.0,0.0,0.0,0.0,0.0,0.0,0.0,0.0,0.0,0.0,0.0,0.0,0.0,0.0,0.0,0.0,0.0,0.0,0.0,0.0,0.0,0.0,0.0,0.0,0.0,0.0,0.0,0.0,0.0,0.0,0.0,0.0,0.0,0.0,0.0,0.0,0.0,0.0,0.0,0.0,0.0,0.0,0.0,0.0,0.0,0.0,0.0,0.0,0.0,0.0,0.0,0.0,0.0,0.0,0.0,0.0,0.0,0.0,0.0,0.0,0.0,0.0,0.0,0.0,0.0,0.0,0.0,0.0,0.0,0.0,0.0,0.0,0.0,0.0,0.0,0.0,0.0,0.0,0.0,0.0,0.0,0.0,0.0,0.0,1.866,1.9108,1.937,1.9103,1.8193,1.7626,1.7622,1.6984,1.6265,1.5484,0.0,0.0,0.0,0.0,0.0,0.0,0.0,0.0,0.0,0.0,0.0,0.0,0.0,0.0,0.0,0.0,0.0,0.0,0.0,0.0,0.0,0.0,0.0,0.0,0.0,0.0,0.0,0.0,0.0,0.0,0.0,0.0,0.0,0.0,0.0,0.0,0.0,0.0,0.0,0.0,0.0,0.0,0.0,0.0,0.0,0.0,0.0,0.0,0.0,0.0,0.0,0.0,0.0,0.0,0.0,0.0,0.0,0.0,0.0,0.0,0.0,0.0,0.0,0.0,0.0,0.0,0.0,0.0,0.0,0.0,0.0,0.0,0.0,0.0,0.0,0.0,0.0,0.0,0.0,0.0,0.0,0.0,0.0,0.0,0.0,0.0,0.0,0.0,0.0,0.0,0.0,0.0,0.0,0.0,0.0,0.0,0.0,0.0,0.0,0.0,0.0,0.0,1.8718,1.9204,1.9514,1.9392,1.858,1.8049,1.8032,1.7404,1.6711,1.6019,0.0,0.0,0.0,0.0,0.0,0.0,0.0,0.0,0.0,0.0,0.0,0.0,0.0,0.0,0.0,0.0,0.0,0.0,0.0,0.0,0.0,0.0,0.0,0.0,0.0,0.0,0.0,0.0,0.0,0.0,0.0,0.0,0.0,0.0,0.0,0.0,0.0,0.0,0.0,0.0,0.0,0.0,0.0,0.0,0.0,0.0,0.0,0.0,0.0,0.0,0.0,0.0,0.0,0.0,0.0,0.0,0.0,0.0,0.0,0.0,0.0,0.0,0.0,0.0,0.0,0.0,0.0,0.0,0.0,0.0,0.0,0.0,0.0,0.0,0.0,0.0,0.0,0.0,0.0,0.0,0.0,0.0,0.0,0.0,0.0,0.0,0.0,0.0,0.0,0.0,0.0,0.0,0.0,0.0,0.0,0.0,0.0,0.0,0.0,0.0,0.0,0.0,1.8981,1.9499,1.9842,1.986,1.9254,1.8747,1.8494,1.7747,1.708,1.654,0.0,0.0,0.0,0.0,0.0,0.0,0.0,0.0,0.0,0.0,0.0,0.0,0.0,0.0,0.0,0.0,0.0,0.0,0.0,0.0,0.0,0.0,0.0,0.0,0.0,0.0,0.0,0.0,0.0,0.0,0.0,0.0,0.0,0.0,0.0,0.0,0.0,0.0,0.0,0.0,0.0,0.0,0.0,0.0,0.0,0.0,0.0,0.0,0.0,0.0,0.0,0.0,0.0,0.0,0.0,0.0,0.0,0.0,0.0,0.0,2.2153,2.185,0.0,0.0,0.0,0.0,0.0,0.0,0.0,0.0,0.0,0.0,0.0,0.0,0.0,0.0,0.0,0.0,0.0,0.0,0.0,0.0,0.0,0.0,0.0,0.0,0.0,0.0,0.0,0.0,0.0,0.0,0.0,0.0,0.0,0.0,0.0,0.0,0.0,0.0,0.0,0.0,1.9106,1.9736,2.0208,2.0269,1.921,1.8641,1.9005,1.7968,1.729,1.7269,1.6584,0.0,0.0,0.0,0.0,0.0,0.0,0.0,0.0,0.0,0.0,0.0,0.0,0.0,0.0,0.0,0.0,0.0,0.0,0.0,0.0,0.0,0.0,0.0,0.0,0.0,0.0,0.0,0.0,0.0,0.0,0.0,0.0,0.0,0.0,0.0,0.0,0.0,0.0,0.0,0.0,0.0,0.0,0.0,0.0,0.0,0.0,0.0,0.0,0.0,0.0,0.0,0.0,0.0,0.0,0.0,0.0,0.0,0.0,0.0,2.4417,2.3918,0.0,0.0,0.0,0.0,0.0,0.0,0.0,0.0,0.0,0.0,0.0,0.0,0.0,0.0,0.0,0.0,0.0,0.0,0.0,0.0,0.0,0.0,0.0,0.0,0.0,0.0,0.0,0.0,0.0,0.0,0.0,0.0,0.0,0.0,0.0,0.0,0.0,0.0,0.0,0.0,1.9283,2.0088,2.0664,2.0632,1.9785,1.9252,1.9378,1.8273,1.7614,1.7699,1.7137,0.0,0.0,0.0,0.0,0.0,0.0,0.0,0.0,0.0,0.0,0.0,0.0,0.0,0.0,0.0,0.0,0.0,0.0,0.0,0.0,0.0,0.0,0.0,0.0,0.0,0.0,0.0,0.0,0.0,0.0,0.0,0.0,0.0,0.0,0.0,0.0,0.0,0.0,0.0,0.0,0.0,0.0,0.0,0.0,0.0,0.0,0.0,0.0,0.0,0.0,0.0,0.0,0.0,2.7772,2.8015,2.8445,2.8426,2.832,2.8072,2.6437,2.6008,2.643,2.5618,0.0,0.0,0.0,0.0,0.0,0.0,0.0,0.0,0.0,0.0,0.0,0.0,0.0,0.0,0.0,0.0,0.0,0.0,0.0,0.0,0.0,0.0,2.4124,2.4176,2.4674,2.4706,2.3157,0.0,0.0,0.0,0.0,0.0,0.0,0.0,0.0,0.0,0.0,0.0,1.9628,2.0564,2.1169,2.0969,2.0431,1.9977,1.9687,1.8617,1.7945,1.7945,1.7766,1.7439,0.0,0.0,0.0,0.0,0.0,0.0,0.0,0.0,0.0,0.0,0.0,0.0,0.0,0.0,0.0,0.0,0.0,0.0,0.0,0.0,0.0,0.0,0.0,0.0,0.0,0.0,0.0,0.0,0.0,0.0,0.0,0.0,2.0784,2.1707,0.0,0.0,0.0,0.0,0.0,0.0,0.0,0.0,0.0,0.0,0.0,0.0,0.0,2.7662,2.7574,2.8303,2.8669,2.8633,2.8573,2.8597,2.8669,2.8531,2.8466,2.8427,2.8,0.0,2.7534,2.6775,0.0,0.0,0.0,0.0,0.0,0.0,0.0,0.0,0.0,0.0,0.0,0.0,0.0,0.0,0.0,0.0,0.0,0.0,0.0,0.0,0.0,0.0,2.4233,2.4811,2.5112,2.5202,2.4952,2.4003,2.3216,2.3289,2.2443,2.1441,0.0,0.0,0.0,0.0,0.0,0.0,2.0531,2.1265,2.162,2.121,2.0511,2.0026,1.9868,1.8811,1.8159,1.8159,1.7766,1.7487,1.7407,1.8215,0.0,0.0,0.0,0.0,0.0,0.0,0.0,0.0,0.0,0.0,0.0,0.0,0.0,0.0,0.0,0.0,0.0,0.0,0.0,0.0,0.0,0.0,0.0,0.0,0.0,0.0,0.0,0.0,0.0,2.1066,2.1917,2.4193,2.3226,2.2914,0.0,0.0,0.0,0.0,0.0,0.0,0.0,0.0,0.0,2.7657,2.8386,2.8758,2.8688,2.9013,2.9117,2.902,2.9004,2.8946,2.887,2.881,2.8743,2.8662,2.8504,2.8335,2.8158,2.7634,2.7536,2.7581,0.0,0.0,0.0,0.0,2.4681,2.5016,2.494,2.5331,2.587,2.587,0.0,0.0,0.0,0.0,0.0,0.0,0.0,2.3661,2.4596,2.4918,2.5145,2.5753,2.5625,2.5355,2.5355,2.521,2.508,2.508,2.46,2.4023,2.3422,2.2945,0.0,0.0,0.0,2.224,2.2023,2.2634,2.2864,2.2341,2.1542,2.089,2.0501,1.9306,1.8505,1.8323,1.7942,1.776,1.7831,1.8467,1.856,0.0,0.0,0.0,0.0,0.0,0.0,0.0,0.0,0.0,0.0,0.0,0.0,0.0,0.0,0.0,0.0,0.0,0.0,0.0,0.0,0.0,0.0,0.0,0.0,0.0,0.0,0.0,0.0,2.2259,2.335,2.6056,2.4952,2.4547,0.0,0.0,0.0,0.0,0.0,0.0,2.7629,2.8189,2.852,2.8582,2.9117,2.9394,2.9379,2.9379,2.9322,2.9254,2.9227,2.9156,2.9057,2.9005,2.8911,2.8816,2.8681,2.8612,2.8543,2.8219,2.8078,2.7971,2.731,2.7035,2.6968,2.6212,2.6197,2.6556,2.6526,2.6776,2.7125,2.719,2.719,2.7074,2.6545,0.0,0.0,0.0,0.0,2.5356,2.5863,2.6092,2.6276,2.6496,2.6289,2.5992,2.5789,2.6256,2.6637,2.6338,2.6325,2.6204,2.569,2.519,0.0,2.3334,2.3467,2.3606,2.3311,2.3689,2.3787,2.3222,2.2488,2.1822,2.1262,2.0003,1.9108,1.8752,1.8312,1.8102,1.8159,1.86,1.8799,1.8697,0.0,0.0,0.0,0.0,0.0,0.0,0.0,0.0,0.0,0.0,0.0,0.0,0.0,0.0,0.0,0.0,0.0,0.0,0.0,0.0,0.0,0.0,0.0,0.0,0.0,0.0,0.0,0.0,0.0,2.562,2.6264,0.0,0.0,0.0,0.0,2.7905,2.8133,2.8563,2.9329,2.9528,2.9621,2.962,2.9664,2.9645,2.9588,2.9588,2.9516,2.9392,2.9331,2.9256,2.9178,2.8998,2.8905,2.8893,2.8749,2.8737,2.8755,2.8408,2.8257,2.8189,2.821,2.8138,2.802,2.7978,2.7772,2.7532,2.7604,2.7434,2.7238,2.7427,2.7444,2.7426,2.7649,2.7044,0.0,0.0,2.7186,2.6608,2.7383,2.7581,2.7456,2.6827,2.7247,2.7583,2.6873,2.7293,2.7518,2.6501,2.6867,2.6951,2.5811,0.0,2.5018,2.3998,2.3922,2.4004,2.4028,2.4025,2.3816,2.3344,2.2972,2.2549,2.2082,2.0929,2.0056,1.9657,1.8969,1.8479,1.8306,1.8383,1.8601,1.8971,1.8069,0.0,0.0,0.0,0.0,0.0,0.0,0.0,0.0,0.0,0.0,0.0,0.0,0.0,0.0,0.0,0.0,0.0,0.0,0.0,0.0,0.0,0.0,0.0,0.0,0.0,0.0,0.0,0.0,2.697,2.7032,0.0,2.877,2.8137,2.8027,2.8992,2.9067,2.9232,2.9612,2.9669,2.9697,2.9696,2.9659,2.9831,3.0241,2.9777,2.9707,3.0037,2.9491,2.9207,2.9123,2.9028,2.8958,2.8952,2.8875,2.8822,2.8785,2.8613,2.8523,2.8445,2.838,2.836,2.8353,2.8259,2.8014,2.7716,2.7664,2.7428,2.7307,2.7943,2.8445,2.8848,2.9023,2.8725,2.8362,2.8459,2.8144,2.7886,2.8289,2.819,2.8005,2.814,2.8103,2.7964,2.7692,2.8155,2.8493,2.8114,2.8098,2.81,2.789,2.7629,2.7191,2.64,2.6147,2.5959,2.5673,2.5397,2.5091,2.4683,2.4122,2.3522,2.2912,2.2002,2.0824,1.9339,1.9335,1.8882,1.7774,1.8569,1.8954,1.8759,1.8733,1.8346,0.0,0.0,0.0,0.0,0.0,0.0,0.0,0.0,0.0,0.0,0.0,0.0,0.0,0.0,0.0,0.0,0.0,0.0,0.0,0.0,0.0,0.0,0.0,0.0,0.0,0.0,2.6302,2.7875,2.7917,2.8221,2.9294,2.8908,2.8831,2.9483,2.9535,2.9695,3.0044,3.0067,3.0194,3.0475,3.0145,3.0294,3.0998,3.0263,3.0233,3.0873,3.0313,2.9843,2.9494,2.9408,2.922,2.8958,2.8923,2.8887,2.8858,2.8804,2.8743,2.8718,2.8587,2.8348,2.8057,2.7941,2.7627,2.7304,2.7654,2.7768,2.7858,2.8605,2.9201,2.9702,2.9963,2.9868,2.9656,2.9454,2.9254,2.9122,2.9249,2.9016,2.8784,2.8988,2.8878,2.869,2.8485,2.888,2.9306,2.9338,2.893,2.8709,2.9029,2.8654,2.8163,2.7783,2.7437,2.705,2.6616,2.6177,2.5784,2.5481,2.4893,2.4308,2.3743,2.2563,2.1236,1.9735,1.9608,1.8986,1.7586,1.8651,1.9031,1.8536,1.9476,1.9214,1.771,0.0,0.0,0.0,0.0,0.0,0.0,0.0,0.0,0.0,0.0,0.0,0.0,0.0,0.0,0.0,0.0,0.0,0.0,0.0,0.0,0.0,0.0,0.0,2.5876,2.7154,2.8135,2.8229,2.8918,2.9406,2.9407,2.9456,2.9491,2.945,2.9558,2.9986,3.0799,3.0837,3.1187,3.1925,3.1169,3.1073,3.1788,3.1091,3.1102,3.1828,3.1714,3.1183,3.0329,3.0167,2.9692,2.8948,2.8948,2.8977,2.9036,2.8971,2.8995,2.9061,2.89,2.8197,2.7274,2.7229,2.6843,2.6496,2.7739,2.8461,2.8931,2.9392,2.9702,2.9959,3.0419,3.0438,3.0375,3.0683,3.0514,3.0233,3.0139,3.0054,2.9826,2.9251,2.957,2.9843,2.9267,2.9539,2.9913,3.0,2.9232,2.8704,2.9029,2.8352,2.7818,2.799,2.7581,0.0,2.6791,2.6245,2.5812,2.5536,2.5202,2.4851,2.4525,2.2614,2.1289,2.0907,1.9877,1.8843,1.7895,1.8634,1.8879,1.8487,2.0157,2.0207,1.8541,0.0,0.0,0.0,0.0,0.0,0.0,0.0,0.0,0.0,0.0,0.0,0.0,0.0,0.0,0.0,0.0,0.0,0.0,0.0,0.0,0.0,2.7137,2.7685,2.7564,2.7947,2.8432,2.8938,2.925,2.9397,2.9406,2.9412,2.968,3.0302,3.039,3.0753,3.155,3.1606,3.1398,3.094,3.1284,3.1567,3.1737,3.1565,3.1824,3.2435,3.1301,3.0885,3.1072,3.046,3.0057,2.9831,2.9831,2.9843,2.9873,2.9855,3.0192,3.065,2.9897,2.9452,2.9268,2.9654,2.9486,2.9135,2.9454,2.9895,3.0358,3.0584,3.102,3.149,3.161,3.1094,3.0392,3.02,2.9659,2.9054,2.8707,2.9075,2.9502,2.9297,2.9786,3.0246,3.008,3.0015,2.9973,2.9995,2.92,2.8648,2.9034,2.9041,2.8944,2.8761,2.8344,2.7981,2.7674,2.6705,2.5989,2.5812,2.5107,2.4518,2.423,2.3286,2.2061,2.0566,2.072,2.027,1.894,1.9805,2.0329,2.0352,1.9795,1.9407,0.0,0.0,0.0,0.0,0.0,0.0,0.0,0.0,0.0,0.0,0.0,0.0,0.0,0.0,0.0,0.0,0.0,0.0,0.0,0.0,0.0,0.0,2.8094,2.8523,2.8726,2.8806,2.8964,2.9254,2.9325,2.9377,2.9401,2.9732,3.0139,3.062,3.0961,3.1516,3.2311,3.2325,3.2068,3.1527,3.1962,3.2198,3.215,3.221,3.2545,3.3195,3.2281,3.1875,3.188,3.1072,3.0705,3.0687,3.0356,3.0393,3.0705,3.0705,3.0968,3.1297,0.0,0.0,0.0,0.0,2.9914,2.9818,3.0267,3.0659,3.0985,3.1281,3.1627,3.1893,3.1864,3.1363,3.0772,3.0446,2.9949,2.9455,2.91,2.9373,2.9737,2.976,2.9999,3.0259,3.0295,3.013,2.9968,2.9968,2.9403,0.0,2.915,2.8897,2.866,2.8656,2.8274,2.7899,2.7687,2.6756,2.6029,2.5839,2.5272,2.4723,2.4232,2.3376,0.0,0.0,0.0,2.0896,2.0164,2.0462,0.0,0.0,0.0,2.0696,2.0834,2.0654,0.0,0.0,2.0797,2.0671,0.0,0.0,0.0,0.0,0.0,0.0,0.0,0.0,0.0,0.0,0.0,0.0,0.0,0.0,0.0,0.0,2.8568,2.8927,2.9559,2.9779,2.9767,2.9477,2.9447,2.9508,2.9662,3.0363,3.0833,3.087,3.1528,3.2278,3.3065,3.3043,0.0,0.0,0.0,3.2878,3.2785,3.2884,3.3259,3.3895,3.3809,3.3402,3.2717,3.1911,3.155,3.1501,3.0779,3.0889,3.1537,3.1537,3.1542,3.1545,3.1441,3.0892,3.0111,2.9632,2.9485,2.9654,3.071,0.0,0.0,3.1677,3.1746,3.1617,3.1538,3.1348,3.1138,3.091,3.067,3.0421,3.0243,3.0157,3.0159,3.0275,3.0182,3.0071,3.0178,3.0044,2.9891,2.9907,2.9675,2.9434,2.9316,2.8501,2.799,2.8385,2.7979,2.7583,2.7467,2.6692,2.6056,2.5825,2.5591,0.0,2.4462,2.3204,2.2287,2.189,2.1351,2.1175,2.1501,2.1066,2.1035,2.1491,2.2551,2.3034,2.2909,2.328,2.3391,2.3205,2.2227,2.2221,0.0,0.0,0.0,0.0,0.0,0.0,0.0,0.0,0.0,0.0,0.0,0.0,0.0,0.0,0.0,2.8519,2.9697,3.0578,3.0544,3.1128,3.1229,3.0372,3.0325,3.0604,3.1273,3.1483,3.1861,3.2494,3.2633,3.3006,3.3765,3.3732,3.3373,3.2684,3.3336,3.338,3.2735,3.3412,3.3818,3.3895,3.3301,0.0,3.3532,3.28,3.242,3.2369,3.2197,3.2216,3.2369,3.2369,3.2682,3.309,3.2377,3.2252,3.2445,3.2358,3.2139,3.1944,3.2129,3.2091,3.1987,3.2038,3.1948,3.1803,3.1626,3.1022,0.0,3.0101,2.9575,2.9049,2.8914,2.9281,2.9722,2.9742,3.0044,3.0295,3.021,3.0,2.9837,2.9891,2.9603,2.9328,2.9305,2.9692,2.9985,2.9986,2.9428,2.9001,2.8989,2.7482,2.6391,2.6351,2.5684,2.52,2.5047,2.3664,2.2823,2.2898,2.2657,2.26,2.2819,2.3187,2.3543,2.3927,2.3787,2.3875,2.4155,2.3919,2.3877,2.3967,2.3225,2.2988,0.0,0.0,0.0,0.0,0.0,0.0,0.0,0.0,0.0,0.0,0.0,2.7349,2.8311,0.0,2.9168,2.9208,3.0249,3.0974,3.0727,3.1411,3.1731,3.1177,3.1132,3.1314,3.1751,3.2165,3.2401,3.2401,3.3085,3.3494,3.3445,3.3732,3.3526,3.2728,3.345,3.3469,3.271,3.3508,3.3875,3.3842,3.347,3.3487,3.377,3.2989,3.286,3.3176,3.2766,3.2821,3.3206,3.3133,3.3282,3.3498,3.3038,3.295,3.3101,3.3101,3.2953,3.2739,3.2557,3.2362,3.2161,3.1938,3.171,3.1523,3.1435,3.1,3.0521,3.0428,3.0117,2.9793,2.9718,2.9925,3.0152,3.0152,3.0272,3.0365,3.0237,3.0326,3.0443,3.0404,3.0156,2.995,2.995,3.0087,2.9999,2.9395,2.9189,2.8911,2.8371,2.7328,2.6592,2.6417,2.6014,2.5596,2.5231,2.404,2.3283,2.3253,2.3247,2.3355,2.3584,2.4147,2.4528,2.4699,2.4631,2.4779,2.5099,2.4629,2.4597,2.4946,2.4569,2.4399,0.0,0.0,0.0,0.0,0.0,0.0,0.0,0.0,2.6715,2.7299,2.8106,2.8948,2.9744,2.9908,2.9872,2.9834,3.0486,3.0993,3.0932,3.1667,3.2197,3.2194,3.2042,3.2011,3.2235,3.2829,3.2941,3.2291,3.3364,3.3784,3.3136,3.3596,3.3606,3.3012,3.3517,3.3503,3.2912,3.3503,3.3807,3.3807,3.3807,3.3807,3.377,3.3121,3.3195,3.3752,3.3108,3.3168,3.376,3.364,3.3549,3.3484,3.3408,3.3274,3.3101,3.3101,3.3026,3.286,3.2565,3.2362,3.2161,3.1738,3.1445,3.1239,3.121,3.1082,3.0962,3.0992,3.0972,3.0952,3.0912,3.0831,3.0733,3.0702,3.0564,3.0419,3.0401,3.0789,3.11,3.1071,3.0895,3.0759,3.0794,3.0463,2.9782,2.8627,2.8655,2.8499,2.7613,2.7114,2.6766,2.6537,2.6446,2.6096,2.5377,2.4501,2.3859,2.3518,2.3594,2.3803,2.4109,2.4584,2.4885,2.4944,2.5224,2.5527,2.5809,2.5417,2.5455,2.5868,2.5861,2.5768,2.4454,2.4716,2.5468,2.5458,2.6329,2.7229,0.0,0.0,2.8488,2.8514,2.9211,2.983,2.9897,2.9901,2.9893,2.9895,3.0555,3.1325,3.201,3.2752,3.3438,3.395,3.3269,3.3049,3.3778,3.3926,3.3944,3.3852,3.3881,3.3884,3.3792,3.3805,3.3765,3.368,3.3758,3.3758,3.3673,3.3758,3.3807,3.3807,3.3807,3.3807,3.3807,3.3715,3.3715,3.3782,3.3648,3.3597,3.3626,3.3541,3.3517,3.3495,3.3359,3.3221,3.3101,3.3101,3.3026,3.2834,3.2463,3.2301,3.2214,3.1756,3.153,3.144,3.1249,3.1181,3.1131,3.0962,3.1032,3.1131,3.0952,3.0892,3.0851,3.0722,3.0589,3.0625,3.1079,3.1148,3.1224,3.1612,3.1502,3.1353,3.1458,3.1552,3.1073,2.9589,2.9043,2.8755,2.8641,2.7654,2.7041,2.7258,2.6963,2.6479,2.58,2.5309,2.4823,2.43,2.4022,2.4073,2.4518,2.489,2.5204,2.5496,2.5605,2.5809,2.6141,2.6315,2.6446,2.6505,2.6674,2.6399,2.4457,2.4983,0.0,0.0,2.6748,2.7565,2.7646,2.8259,2.8772,2.87,2.9327,2.9841,2.9736,2.9754,2.9771,0.0,3.0884,3.1869,3.2082,3.3239,3.4096,3.4232,3.3864,3.3716,3.4012,3.4042,3.3857,3.3377,3.3695,3.3672,3.3167,3.3523,3.3726,3.3678,3.3719,3.3726,3.3678,3.3726,3.3726,3.3678,3.3678,3.3678,3.3678,3.3678,3.3678,3.3678,3.3643,3.3605,3.3534,3.3499,3.3452,3.3371,3.3367,3.3229,3.3042,3.3042,3.2987,3.2844,3.2437,3.2266,3.2161,3.169,3.1519,3.1469,3.1259,3.1239,3.1327,3.1628,3.1783,3.1898,3.2173,3.1888,3.1604,3.1912,3.1551,3.1296,3.1817,3.2202,3.2439,3.2402,3.2255,3.2144,3.2136,3.1672,3.1127,3.047,2.9938,2.9254,2.8224,2.759,2.7248,2.7271,2.7194,2.6943,2.6426,2.6309,2.5907,2.5089,2.5015,2.4979,2.4881,2.5204,2.5458,2.5597,2.5789,2.5981,2.6211,2.6382,2.6538,2.6649,2.6733,2.6614,2.4828,0.0,0.0,2.6627,2.7508,2.8294,2.8357,2.8788,2.9137,2.9056,2.9448,2.9736,2.9555,2.9542,2.9641,2.9835,3.0973,3.1965,3.2356,3.343,3.4171,3.4227,3.4136,3.4042,3.3953,3.394,3.37,3.3129,3.3549,3.3543,3.2915,3.338,3.3643,3.3605,3.3664,3.3664,3.3605,3.3664,3.3664,3.3605,3.3605,3.3605,3.3605,3.3605,3.3591,3.3577,3.3577,3.352,3.3444,3.3466,3.3393,3.3292,3.3352,3.3236,3.3026,3.3021,3.2924,3.2762,3.242,3.224,3.2099,3.167,3.1527,3.1503,3.156,3.1567,3.1722,3.2405,3.2605,3.2692,3.3123,3.2765,3.2407,3.2795,3.237,3.1995,3.2572,3.3032,3.3298,3.3127,3.3026,3.2955,3.2892,3.2159,3.1533,3.1432,3.0814,2.9799,2.8248,2.7694,2.7425,2.7308,2.7463,2.746,2.721,2.7138,2.6738,2.5883,2.5806,2.561,2.5178,2.5448,2.5625,2.5675,2.5934,2.6115,2.6239,2.6601,2.6841,2.6978,2.7198,2.7282,0.0,0.0,2.7386,2.8293,2.9377,3.018,3.0054,3.0041,3.0011,2.9898,2.9826,2.9699,2.936,2.927,2.951,3.0429,3.0626,3.1303,3.3197,3.3392,3.3584,3.4211,3.4124,3.3947,0.0,3.3814,3.3795,3.3777,3.3666,3.3594,3.3576,3.3594,3.3605,3.3605,3.3664,3.3664,3.3605,3.3664,3.3664,3.3605,3.3605,3.3605,3.3605,3.3605,3.3563,3.3491,3.3491,3.3422,3.33,3.3382,3.3367,3.331,3.3292,3.3214,3.3086,3.3018,3.2826,3.2589,3.2369,3.2214,3.2046,3.1701,3.1549,3.1615,3.2267,3.2364,3.2412,3.3169,3.3362,3.3358,3.3302,3.3184,3.3032,3.2917,3.2674,3.2631,3.3243,3.3276,3.3336,3.3788,3.3752,3.3716,3.3828,3.3403,3.289,3.2507,3.1495,3.039,2.9291,2.8246,2.76,2.76,2.7815,2.8026,2.8143,2.7687,2.7179,2.6693,2.6125,2.5656,2.5301,2.5486,2.5684,2.5897,2.6096,2.6222,2.6295,2.7279,2.7729,2.7701,2.848,2.8762,2.605,0.0,2.8087,2.85,2.9369,3.0098,3.0038,2.9999,2.9918,2.9748,2.9714,2.9631,2.9351,2.9744,3.0227,3.0544,3.1533,3.2478,3.3075,3.3635,3.3995,3.4087,3.4004,0.0,0.0,0.0,0.0,3.3732,3.4147,3.4379,3.4328,3.4848,3.4862,3.4283,3.432,3.4073,3.3473,3.3527,3.3527,3.3473,3.3473,3.3473,3.3473,3.3473,3.3452,3.343,3.343,3.3418,3.3367,3.3344,3.3277,3.3183,3.3269,3.3183,3.3026,3.3021,3.2745,3.2378,3.2266,3.2466,3.2691,3.232,3.2537,3.298,3.307,3.3134,3.329,3.3952,3.4134,3.423,3.465,3.4303,3.3913,3.4284,3.3858,3.3532,3.4128,3.4161,3.408,3.4152,3.4063,3.3924,3.3784,3.3681,3.3179,3.1838,3.0541,2.9423,2.8524,2.7936,2.7675,2.7848,2.81,2.8369,2.8637,2.8669,2.8223,2.7227,2.7098,2.6609,2.5616,2.5761,2.5899,2.5972,2.6161,2.6518,2.7028,2.7414,2.7845,2.8295,2.8565,2.8652,2.6619,2.7617,2.8501,2.8913,2.9485,2.993,2.9901,2.9834,2.9759,2.9659,2.956,2.9492,2.9509,2.9966,3.0509,3.1016,3.2096,3.3,3.3315,3.3802,3.4074,3.394,3.386,3.378,0.0,0.0,0.0,3.4064,3.4466,3.4803,3.501,3.5287,3.5282,3.4969,3.4514,3.4265,3.4255,3.4047,3.3902,3.382,3.3538,3.3393,3.3393,3.3393,3.3393,3.3393,3.3393,3.3396,3.3367,3.3344,3.3406,3.354,3.3643,3.3738,3.3752,3.3484,3.3064,3.2573,3.2293,3.2558,3.2948,3.2684,3.3093,3.3714,3.3833,3.3886,3.406,3.4714,3.4895,3.498,3.5391,3.5059,3.4682,3.5023,3.457,3.415,3.4544,3.4485,3.4349,3.4312,3.4188,3.4063,3.3937,3.3911,3.329,3.1471,3.0429,2.9446,2.8351,2.8024,2.7974,2.8216,2.8401,2.8641,2.9013,2.9243,2.8834,2.7591,2.767,2.7172,2.5838,2.5919,2.6124,2.6387,2.6569,2.7016,2.7764,2.8098,2.8486,2.896,2.9228,2.9296,2.7852,2.8269,2.8681,2.9579,2.9799,2.9787,2.9744,2.9673,2.9635,2.9729,2.9407,2.9282,0.0,0.0,3.0381,3.179,3.2318,3.2883,3.3842,3.3868,3.3793,0.0,0.0,0.0,0.0,0.0,0.0,3.4741,3.4727,3.4969,3.5568,3.5069,3.5023,3.5586,3.4332,3.4348,3.5731,3.5084,3.4729,3.4653,3.3838,3.3484,3.352,3.3484,3.3484,3.352,3.352,3.3493,3.3426,3.3483,3.3856,3.4375,3.4436,3.4766,3.5132,3.4418,3.3784,3.3198,3.2537,3.2554,3.2843,3.2885,3.3302,3.3925,3.4559,3.4649,3.4709,3.5397,3.56,3.5583,3.5526,3.54,3.5256,3.5123,3.4804,3.4521,3.4509,3.43,3.4163,3.4288,3.4188,3.4138,3.4288,3.4075,3.3306,3.1563,3.1161,3.0465,2.8843,2.8493,2.8493,2.8697,2.8732,2.8885,2.9294,2.9448,2.9026,2.784,2.7855,2.7346,2.607,2.6047,2.6413,2.7154,2.7292,2.7713,2.8459,2.921,2.9593,2.9659,3.0348,3.0609,2.8755,2.9156,2.9447,2.9725,2.9723,2.9738,3.0073,3.0017,2.9988,3.0302,2.9816,2.9491,0.0,0.0,0.0,3.1841,3.27,0.0,3.3666,3.3719,0.0,3.3513,0.0,3.3517,3.3459,3.3614,0.0,0.0,3.5973,3.6061,3.5622,3.6575,3.6655,3.564,3.5824,3.5619,3.4906,3.5302,3.5501,3.5478,3.4671,3.4617,3.5178,3.4562,3.4617,3.5196,3.5196,3.5181,3.5157,3.5123,3.52,3.5341,3.5357,3.5385,3.5389,3.5161,3.4807,3.4411,3.3988,3.3688,3.3543,3.3941,3.4535,3.5147,3.5317,3.5307,3.529,3.5526,3.556,3.5526,3.5503,3.5343,3.5152,3.5116,3.4947,3.4763,3.4667,3.4521,3.4411,3.4436,3.4176,3.4063,3.4399,3.4151,3.3609,3.2752,3.2116,3.103,2.9069,2.8625,2.861,2.8962,2.9094,2.9271,2.957,2.9765,2.9524,2.8727,2.833,2.7968,2.7631,2.7205,2.7328,2.8046,2.8092,2.8459,2.9152,2.9307,2.966,3.0199,3.0287,3.0306,2.9204,2.9444,2.9608,2.9617,2.9579,2.9578,2.9818,2.9907,3.0014,3.0253,2.9951,0.0,3.0527,0.0,0.0,0.0,0.0,0.0,3.352,3.3541,3.352,0.0,3.3683,0.0,3.384,3.4034,3.4579,0.0,3.612,3.6438,3.664,3.724,3.7276,3.6666,3.6456,3.6118,3.5657,3.6091,3.6327,3.6327,3.5504,3.5359,3.5776,3.5333,3.5336,3.5712,3.5712,3.5712,3.5712,3.568,3.5862,3.6187,3.6146,3.6245,3.636,3.5952,3.5563,3.521,3.4898,3.4542,3.427,3.4516,3.5096,3.5695,3.5695,3.5616,3.5549,3.5656,3.5864,3.5965,3.553,3.5537,3.5559,3.5124,3.4911,3.478,3.4631,3.4509,3.4423,3.4485,3.4325,3.4238,3.446,3.4312,3.3907,3.3214,3.276,3.1933,3.0456,2.9496,2.9048,2.9335,2.9459,2.9605,2.9814,3.0,2.9809,2.9175,2.8845,2.8567,2.8305,2.7966,2.8099,2.8784,2.8817,2.9135,2.9743,2.9776,2.9969,3.0306,3.0248,3.0167,2.9385,2.9394,2.9458,2.9412,2.9392,2.9393,2.9437,2.9708,2.998,3.0063,0.0,3.0279,3.0989,3.1507,3.1946,3.2388,0.0,3.3526,3.3331,3.3334,3.3392,3.3531,3.4052,3.4449,3.4558,3.4797,3.5185,3.5724,3.5734,3.6338,3.7741,3.7383,3.7391,3.7957,3.6668,3.6345,3.7158,3.7158,3.7158,3.7158,3.6345,3.6029,3.612,3.5995,3.5937,3.5945,3.592,3.584,3.5766,3.5858,3.6246,3.6787,3.6837,3.7165,3.7523,3.6764,3.6242,3.5875,3.5593,3.5328,3.5072,3.4897,3.5274,3.5784,3.5795,3.5796,3.5797,3.5903,3.6412,3.672,3.5707,3.5922,3.6119,3.5124,3.4799,3.4679,3.4533,3.4399,3.4337,3.4472,3.4485,3.4485,3.4521,3.4509,3.4223,3.3409,3.3226,3.2922,3.2273,3.0718,2.9741,2.986,2.9869,2.9897,3.0017,3.0146,3.0007,2.9475,2.9354,2.9108,2.8698,2.8582,2.8814,2.9446,2.9511,2.9758,3.0237,3.0312,3.0301,3.0167,3.0157,3.0081,2.9482,2.9401,2.9347,2.9387,2.9359,2.9455,3.0003,3.0222,0.0,0.0,3.0678,3.0525,3.1154,3.0988,3.0976,3.1657,0.0,0.0,0.0,0.0,3.3399,0.0,0.0,0.0,0.0,0.0,0.0,0.0,3.5781,3.5785,3.6873,3.7448,3.7799,3.7907,3.7194,3.7186,3.7983,3.7991,3.7991,3.7983,3.7186,3.7132,3.7766,3.6979,3.7041,3.7732,3.7572,3.7158,3.663,3.7249,3.7197,3.6775,3.7431,3.7685,3.7658,3.7515,3.7308,3.7057,3.6673,3.64,3.6149,3.575,3.5627,3.5656,3.5773,3.6208,3.6678,3.6644,3.7145,3.7476,3.6474,3.6214,3.6011,3.5112,3.4887,3.4804,3.4546,3.4399,3.4337,3.4472,3.4411,3.4411,3.4618,3.457,3.4435,3.4284,3.3828,3.3426,3.3188,3.1688,3.0715,3.085,3.0419,3.0135,3.0157,3.0301,3.0309,3.0215,2.9683,2.9618,3.0108,2.9539,2.9562,3.0286,3.0251,3.0275,3.0359,3.0167,3.006,3.0027,2.9979,2.9869,2.9663,2.9468,2.9267,2.9323,2.9328,2.9423,2.9886,0.0,0.0,0.0,3.0974,3.0961,3.1254,0.0,0.0,0.0,0.0,0.0,0.0,0.0,0.0,0.0,0.0,0.0,0.0,3.4745,3.5172,3.7119,3.6274,3.6167,3.7312,3.7743,3.7985,3.8046,3.7778,3.781,3.82,3.82,3.82,3.82,3.781,3.7828,3.8182,3.7734,3.7745,3.8097,3.7984,3.7735,3.741,3.7754,3.7674,3.7369,3.7658,3.7757,3.7694,3.7667,3.7549,3.7327,3.6856,3.6602,3.643,3.5949,3.6033,3.6344,3.6457,3.6968,3.7529,3.7529,3.7719,3.7768,3.7218,3.6736,3.6291,3.5797,3.5272,3.4851,3.4643,3.4497,3.4448,3.4582,3.4606,3.4643,3.4792,3.4816,3.4792,3.4715,3.4406,3.414,3.4081,3.3027,3.2173,3.1813,3.1237,3.0871,3.0871,3.0579,3.0401,3.0453,3.0123,3.0084,3.0472,3.0168,3.01,3.0332,3.0422,3.0348,3.0141,3.013,3.0049,2.9946,2.9902,2.983,2.9797,2.949,2.9184,2.9256,2.9296,2.9375,2.9684,3.0204,0.0,0.0,3.1151,3.1332,3.1305,0.0,0.0,0.0,0.0,0.0,0.0,0.0,0.0,0.0,0.0,0.0,0.0,3.5074,0.0,3.7479,3.6843,3.6808,3.7853,3.7923,3.7984,3.8089,3.8132,3.8157,3.8157,3.8192,3.82,3.82,3.82,3.8174,3.8157,3.8157,3.8105,3.7992,3.7949,3.7825,3.7656,3.7783,3.7729,3.7595,3.765,3.7676,3.7667,3.7613,3.7512,3.7318,3.6816,3.6571,3.643,3.5993,3.6247,3.6769,3.6836,3.7365,3.7928,3.7917,3.8079,3.8163,3.7826,3.7302,3.6744,3.6236,3.5493,3.4875,3.478,3.4655,3.4618,3.4751,3.4875,3.4958,3.4982,3.5029,3.5018,3.4923,3.4799,3.4727,3.4703,3.4221,3.3632,3.2996,3.2088,3.1517,3.1517,3.084,3.0498,3.0679,3.0515,3.0498,3.0679,3.0578,3.0422,3.0259,3.0369,3.0263,2.9913,3.0076,3.0055,2.9907,3.002,3.0001,2.9684,2.9424,2.9136,2.9184,2.9256,2.9398,2.9783,0.0,0.0,3.0957,3.1241,3.1443,3.1315,0.0,0.0,0.0,0.0,3.1584,0.0,0.0,0.0,0.0,0.0,0.0,0.0,3.5792,3.5469,3.7295,3.7282,3.7312,3.7622,3.7685,3.773,3.7739,3.7915,3.8009,3.8009,3.8149,3.82,3.82,3.82,3.814,3.8009,3.8009,3.8009,3.7992,3.781,3.738,3.6857,3.7399,3.7202,3.6604,3.7336,3.7604,3.7604,3.7595,3.7512,3.7337,3.6933,3.6652,3.6433,3.6094,3.5956,3.593,3.6056,3.6696,3.7328,3.7087,3.8144,3.9132,3.8148,3.7816,3.7344,3.5639,3.5056,3.4899,3.4887,3.4875,3.4899,3.5041,3.5065,3.5128,3.5245,3.5065,3.4911,3.4899,3.4887,3.4839,3.472,3.4749,3.4755,3.4677,3.2812,3.1587,3.1587,3.0909,3.0734,3.1276,3.0796,3.074,3.1292,3.079,3.0464,3.0369,3.0274,3.0146,2.9984,2.9946,2.9929,2.9913,3.0403,3.055,2.9849,2.9468,2.9136,2.9229,2.9281,2.945,3.0016,0.0,3.0683,3.1096,3.1291,3.1361,3.1305,3.1252,0.0,0.0,0.0,0.0,0.0,0.0,0.0,0.0,0.0,0.0,0.0,0.0,3.6065,3.7312,3.7383,3.7391,3.7419,3.7485,3.7577,3.7694,3.7854,3.7942,3.7942,3.8106,3.8157,3.8088,3.8088,3.8315,3.8715,3.868,3.8887,3.9302,3.8771,3.8062,3.7317,3.7551,3.7149,3.6479,3.7282,3.7595,3.7595,3.7595,3.7493,3.7279,3.6933,3.6663,3.6433,3.6105,3.5965,3.6028,3.661,3.7327,3.8031,3.8374,3.8601,3.8829,3.9342,3.9136,3.8236,3.5947,3.5667,3.5792,3.5247,3.5076,3.5053,3.5198,3.528,3.5326,3.5303,3.521,3.5152,3.5152,3.5006,3.4911,3.4947,3.4923,3.4899,3.4899,3.3707,3.2928,3.2928,3.2249,3.1896,3.2044,3.1457,3.1341,3.1916,3.0893,3.0477,3.0811,3.0418,3.0103,2.9935,2.9957,2.9935,2.9907,3.0519,3.0495,3.0093,2.9707,2.933,2.9466,2.9527,2.9691,0.0,0.0,3.0776,3.1177,3.1293,3.1286,3.1274,3.1203,3.1271,0.0,0.0,3.1901,3.2834,0.0,0.0,0.0,0.0,3.5249,0.0,3.6308,3.6505,3.6954,3.7166,3.7154,3.6867,3.7155,3.7402,3.7604,3.7757,3.7837,3.7837,3.8081,3.8122,3.8001,3.8279,3.8687,3.9175,3.9392,3.9616,3.9794,3.9516,3.859,3.7318,3.7828,3.7372,3.6462,3.73,3.7649,3.7694,3.7694,3.7539,3.7269,3.6945,3.6683,3.6451,3.6165,3.6068,3.6227,3.7091,3.7692,3.8179,3.8694,3.8716,3.8755,3.964,3.9462,3.8514,3.6457,3.6128,3.6121,3.5455,3.5233,3.5187,3.528,3.5377,3.5423,3.5377,3.5343,3.5291,3.5291,3.5116,3.4982,3.5029,3.4958,3.4899,3.4899,3.4447,3.4049,3.3817,3.3088,3.2689,3.2767,3.2126,3.1988,3.2539,3.1444,3.092,3.1108,3.068,3.0277,2.9907,2.9946,3.006,3.0209,3.0854,3.0881,3.046,3.0161,2.983,2.9971,3.0036,3.0186,0.0,0.0,3.1037,3.1159,3.1244,3.1283,3.122,3.1085,3.1157,0.0,0.0,0.0,3.2309,0.0,0.0,0.0,0.0,3.6205,3.6729,3.6789,3.657,3.6042,3.6636,3.6656,3.5857,3.662,3.7195,3.7401,3.7595,3.7703,3.7703,3.8028,3.8122,3.8019,3.8936,3.9291,3.9121,3.9995,3.985,3.8966,3.9754,3.8649,3.6443,3.811,3.7807,3.6399,3.7327,3.7775,3.7908,3.7908,3.7685,3.7346,3.7025,3.6726,3.6471,3.6261,3.6204,3.6363,3.7228,3.7408,3.732,3.732,3.8328,3.9234,3.8591,3.8322,3.7973,3.7011,3.618,3.5549,3.5349,3.5291,3.5291,3.5291,3.5291,3.5337,3.5469,3.5389,3.5291,3.5291,3.517,3.5053,3.4923,3.4899,3.4899,3.4899,3.4883,3.4596,3.3867,3.3008,3.2767,3.335,3.27,3.256,3.3176,3.2597,3.1906,3.1124,3.1091,3.0694,2.9907,2.9907,3.0242,3.0893,3.1503,3.2031,3.0352,2.9989,2.9681,3.0089,3.0041,3.0036,3.0619,0.0,3.0863,3.1147,3.122,3.1239,3.12,3.1085,3.1137,0.0,0.0,0.0,0.0,0.0,0.0,0.0,3.606,3.6775,0.0,0.0,3.701,3.6714,3.6927,3.7201,3.7482,3.7689,3.7664,3.7419,3.7458,3.7549,3.7631,3.7784,3.8168,3.8753,3.8951,3.9625,4.0676,4.0813,4.1004,4.1205,4.0909,3.9727,3.8048,3.8575,3.7898,3.6586,3.7345,3.7739,3.7881,3.781,3.7513,3.7185,3.7071,3.6736,3.636,3.6297,3.6276,3.631,3.6611,3.6642,3.6741,3.7275,3.8481,3.9439,3.871,3.929,3.9536,3.749,3.7171,3.6983,3.5768,3.5873,3.6041,3.5588,3.5948,3.615,3.5599,3.5469,3.5446,3.5446,3.5314,3.5222,3.5187,3.5088,3.4994,3.4911,3.4828,3.4704,3.4568,3.4202,3.4039,3.4149,3.337,3.3192,3.379,3.2707,3.2203,3.246,3.1973,3.1593,3.1332,3.1332,3.1704,3.24,3.1895,3.2019,0.0,3.0294,3.0116,3.0473,3.0404,0.0,0.0,0.0,3.098,3.1325,3.1389,3.138,3.1351,3.138,3.1403,0.0,0.0,0.0,0.0,0.0,0.0,0.0,0.0,0.0,0.0,3.7077,3.714,3.7478,3.7527,3.7901,3.8712,3.8669,3.8377,3.7797,3.7836,3.7778,3.7595,3.8017,3.8501,3.9031,3.9578,4.0385,4.1363,4.155,4.1703,4.1851,4.1637,4.0285,0.0,3.8948,3.8139,3.6595,3.773,3.8259,3.8419,3.8663,3.8526,3.817,3.7792,3.7356,3.6915,3.6561,3.681,3.7228,3.7174,3.6973,3.6915,3.7691,3.8733,3.9537,3.9118,3.9675,3.9931,3.8362,3.8053,3.7829,3.6653,3.6758,3.6848,3.606,3.6342,3.6455,3.5649,3.5526,3.5532,3.5503,3.5434,3.5337,3.5245,3.5163,3.5041,3.4911,3.4828,3.4816,3.4899,3.4679,3.4533,3.4497,3.395,3.3766,3.4097,3.3307,3.2947,3.3093,3.2643,3.2287,3.2,3.2195,3.2543,3.2963,3.2267,3.2201,0.0,3.0935,3.0902,3.0985,3.0995,3.0995,0.0,0.0,0.0,0.0,3.1666,3.1638,3.1573,3.1769,3.1832,0.0,0.0,0.0,0.0,0.0,0.0,0.0,3.6828,0.0,3.7261,3.6851,3.7004,3.8106,3.8242,3.8649,3.9456,3.9551,3.9264,3.8575,3.8685,3.8409,3.7684,3.8599,3.9085,3.9092,4.0647,4.1381,4.1409,4.2143,4.2003,4.1217,4.1902,4.0404,3.7611,3.9158,3.8502,3.6666,3.8402,3.9166,3.9382,4.0194,4.0338,3.9969,3.9,3.8463,3.802,3.7129,3.772,3.8756,3.8639,3.8157,3.7795,3.8416,3.9038,3.9536,3.9675,3.9593,3.9484,3.9416,3.8828,3.8177,3.7805,3.7874,3.7696,3.6716,3.6601,3.6469,3.5705,3.5583,3.5583,3.5514,3.5492,3.5412,3.5152,3.5116,3.5041,3.4911,3.4899,3.4887,3.4899,3.4546,3.4386,3.4509,3.4386,3.4263,3.4138,3.4238,3.3958,3.3202,3.3186,3.2821,3.2146,3.2644,3.2876,3.2864,3.2671,3.2571,3.1154,0.0,3.0681,3.1062,3.0998,3.0902,0.0,0.0,0.0,0.0,0.0,3.1157,3.1147,3.1324,3.1326,0.0,0.0,0.0,0.0,0.0,0.0,3.6703,3.6433,3.6294,3.668,3.6829,3.6958,3.7134,3.7775,3.8533,3.9445,3.9989,4.0208,4.0091,4.0215,3.967,3.8391,3.8702,3.9502,4.075,4.1145,4.1637,4.2225,4.2315,4.2229,4.1984,4.1392,4.043,3.9266,3.8964,3.8689,3.8474,3.8806,3.9454,4.0212,4.0366,4.0282,4.0031,3.965,3.9234,3.879,3.8309,3.8385,3.8639,3.8606,3.8882,3.9106,3.8709,3.9106,3.9663,3.9687,4.0058,4.0225,3.9564,3.925,3.8912,3.8173,3.846,3.8647,3.7865,3.763,3.7327,3.6486,3.5931,3.5583,3.5514,3.5492,3.5446,3.5268,3.5158,3.5041,3.4911,3.4816,3.4792,3.4899,3.4715,3.4618,3.4643,3.4521,3.4436,3.4411,3.4337,3.4206,3.4019,3.3907,3.3777,3.3615,3.3623,3.3644,3.3644,3.3377,3.3261,3.1271,3.1045,3.0875,3.1141,3.1095,3.1028,3.1213,0.0,0.0,0.0,0.0,0.0,3.1208,0.0,0.0,0.0,3.207,0.0,0.0,0.0,0.0,3.6771,3.6584,3.6499,3.67,3.6849,3.7068,3.7467,3.8274,3.9109,3.9964,4.0697,4.0951,4.0623,4.0825,4.0352,3.9161,3.9616,4.031,4.1209,4.1584,4.1996,4.2415,4.2318,4.2297,4.2251,4.1337,4.079,4.0464,3.96,3.9411,3.9679,4.0012,4.0491,4.1062,4.1405,4.1485,4.1308,4.073,3.9972,3.9235,3.927,3.9287,3.9356,3.9646,4.0032,4.0176,3.9341,3.9399,3.9796,4.0158,4.0172,4.0081,4.0001,3.9691,3.9358,3.9218,3.9513,3.9562,3.8765,3.8209,3.7645,3.6821,3.6084,3.5577,3.5554,3.5526,3.5457,3.5314,3.5187,3.5041,3.4911,3.4839,3.4828,3.4899,3.4839,3.478,3.4703,3.457,3.4497,3.4497,3.4436,3.4337,3.4213,3.4138,3.4101,3.4101,3.3899,3.3809,3.3797,3.3529,3.3398,3.1288,3.1242,3.122,3.13,3.1339,3.1358,3.1372,0.0,0.0,0.0,0.0,0.0,0.0,0.0,0.0,0.0,0.0,0.0,3.5475,3.6381,3.696,3.6942,3.6851,3.6821,3.6958,3.6891,3.7211,3.8098,3.9,3.9783,4.0415,4.1336,4.1512,4.0821,4.1108,4.0927,4.0196,4.0832,4.1203,4.1308,4.2017,4.2338,4.2318,4.2338,4.2348,4.2313,4.1451,4.1189,4.1253,4.0408,4.0233,4.0571,4.1303,4.1684,4.1892,4.2628,4.2892,4.2773,4.1877,4.0788,3.9876,4.0259,4.0354,4.0437,4.0978,4.1117,4.0932,4.0112,3.9882,4.0037,4.071,4.024,3.9764,4.0518,4.0115,3.9741,4.0373,4.0522,4.0297,3.9513,3.8679,3.7895,3.7252,3.6485,3.5915,3.5797,3.57,3.5569,3.5319,3.5175,3.5029,3.4911,3.4899,3.4899,3.4899,3.4887,3.4828,3.4744,3.4618,3.4533,3.4497,3.4521,3.4411,3.4138,3.4138,3.4138,3.4126,3.386,3.3707,3.3681,3.345,3.3322,3.1099,3.121,3.131,3.1768,3.1958,3.1985,0.0,0.0,0.0,0.0,0.0,0.0,0.0,0.0,0.0,0.0,0.0,3.5193,0.0,0.0,3.6673,3.6216,3.6447,3.6683,3.6829,3.697,3.719,3.7505,3.8811,3.9638,3.9752,4.1159,4.1885,4.1715,4.1967,4.2068,4.2003,4.1576,4.1667,4.2294,4.2474,4.2528,4.2473,4.2538,4.256,4.2496,4.1513,4.1202,4.1312,4.0334,4.0519,4.1403,4.1548,4.2056,4.2728,4.2846,4.2892,4.2836,4.2392,4.2004,4.1693,4.1644,4.1503,4.1369,4.1362,4.1232,4.1053,4.078,4.071,4.0727,4.0877,4.0618,4.038,4.0638,4.0509,4.0356,4.0476,4.0583,4.0566,4.0201,3.9515,3.8924,3.8691,3.8041,3.7347,3.6716,3.6412,3.6041,3.5386,3.5076,3.4923,3.4899,3.4899,3.4899,3.4899,3.4804,3.4763,3.4847,3.4851,3.4727,3.4509,3.4606,3.4533,3.4275,3.4275,3.4275,3.4275,3.4,3.3809,3.371,3.3542,3.3398,3.123,3.1395,3.1473,3.1976,3.202,3.1976,0.0,0.0,0.0,0.0,0.0,0.0,0.0,0.0,0.0,0.0,0.0,3.6375,3.622,3.6614,3.6784,3.6475,3.667,3.6841,3.6891,3.7021,3.7185,3.7374,3.8352,3.8978,3.9047,4.0164,4.1011,4.1446,4.1687,4.2091,4.2661,4.2359,4.2337,4.2548,4.2598,4.258,4.2566,4.2598,4.2599,4.2545,4.1649,4.1608,4.2093,4.1189,4.1391,4.2301,4.2301,4.2546,4.2892,4.2892,4.2892,4.2854,4.2593,4.2404,4.2223,4.2047,4.1809,4.1593,4.152,4.133,4.1099,4.1035,4.0959,4.0912,4.0912,4.0507,4.0126,4.0156,4.0085,4.0002,3.9978,4.0231,4.0453,4.033,3.9661,3.9078,3.9,3.8318,3.7679,3.7337,3.7071,3.6622,3.5888,3.5632,3.5346,3.4932,3.4899,3.4899,3.4899,3.4835,3.4799,3.4787,3.4863,3.4792,3.4509,3.4558,3.4472,3.4201,3.4188,3.4151,3.4088,3.3962,3.3784,3.3594,3.3529,3.3424,3.1336,3.1542,3.1654,3.2012,0.0,0.0,0.0,0.0,0.0,0.0,0.0,0.0,0.0,0.0,0.0,3.6933,3.7135,3.7182,3.7174,3.7124,3.6997,3.6798,3.6911,3.7019,3.7019,3.7106,3.7302,3.765,3.8188,3.8614,3.8877,3.969,4.0453,4.1131,4.1525,4.2105,4.2892,4.2892,4.2843,4.2717,4.2688,4.266,4.266,4.2658,4.2541,4.2333,4.1872,4.2002,4.2486,4.2053,4.2282,4.2892,4.2892,4.2892,4.2892,4.2892,4.2892,4.2891,4.2718,4.2583,4.2474,4.231,4.2048,4.1758,4.1653,4.1403,4.1152,4.107,4.0971,4.0912,4.0935,4.048,4.0002,3.9991,3.9875,3.975,3.9709,4.0039,4.0342,4.028,3.973,3.9279,3.9254,3.8695,3.8187,3.7982,3.7756,3.7328,3.6558,3.6331,3.6042,3.5479,3.5413,3.5346,3.5164,3.5148,3.5045,3.4756,3.4775,3.4703,3.4509,3.4497,3.4386,3.4151,3.4113,3.405,3.3949,3.3911,3.3758,3.3503,3.3568,3.349,3.1156,3.1547,3.178,3.1825,0.0,0.0,0.0,0.0,0.0,0.0,0.0,0.0,0.0,3.5926,3.6568,3.7271,3.7068,3.6831,3.6843,3.7087,3.7151,3.6745,3.693,3.7098,3.7098,3.7203,3.7626,3.845,3.8679,3.9053,3.9684,4.0639,4.1214,4.1277,4.2208,4.2759,4.2892,4.2892,4.2965,4.3067,4.2947,4.2891,4.2881,4.2804,4.2386,4.1691,4.2271,4.22,4.1746,4.2432,4.2779,4.2892,4.2892,4.2892,4.2892,4.2892,4.2892,4.291,4.2873,4.2824,4.2764,4.2754,4.251,4.2176,4.1813,4.1547,4.1312,4.0989,4.0912,4.0935,4.1047,4.0853,4.0676,4.079,4.0509,4.0245,4.0245,4.0377,4.0412,4.0159,4.015,4.017,4.0041,3.9965,3.9661,3.8841,3.8602,3.8208,3.7336,3.7099,3.699,3.6953,3.694,3.6671,3.5976,3.5926,3.5628,3.492,3.4655,3.4521,3.4497,3.4497,3.4436,3.4288,3.4163,3.4101,3.4088,3.3962,3.3758,3.3503,3.3761,3.3671,3.1297,3.1449,3.1468,3.1629,0.0,0.0,0.0,0.0,0.0,0.0,0.0,0.0,0.0,0.0,3.7207,3.7206,3.7155,3.7077,3.7001,3.7058,3.7056,3.6898,3.6987,3.7087,3.7203,3.7193,3.7403,3.794,3.7957,3.8314,3.9193,3.96,4.0285,4.1329,4.1815,4.2317,4.2892,4.2984,4.3077,4.3169,4.2985,4.2892,4.291,4.2823,4.2669,4.2419,4.2629,4.2613,4.2419,4.2744,4.2852,4.2833,4.2833,4.2853,4.2892,4.2892,4.2892,4.2892,4.2892,4.2881,4.2853,4.2853,4.264,4.2285,4.1924,4.1629,4.1329,4.0989,4.0959,4.1023,4.0982,4.0964,4.0779,4.0173,4.03,4.0383,3.9751,3.9953,4.0201,4.0011,4.0028,4.0016,3.9871,3.9781,3.9623,3.9274,3.9124,3.8753,3.7958,3.7811,3.7603,3.7139,3.7089,3.699,3.6721,3.6537,3.6396,3.6278,3.5299,3.4667,3.4509,3.4497,3.4399,3.4176,3.405,3.3975,3.3975,3.3924,3.3809,3.3633,3.3809,3.3771,3.1618,3.173,3.1703,0.0,0.0,0.0,0.0,0.0,0.0,0.0,0.0,0.0,0.0,0.0,0.0,0.0,3.7126,3.7116,3.7087,3.7029,3.7007,3.7007,3.7007,3.7066,3.7212,3.7147,3.7329,3.7878,3.7599,3.7823,3.8812,3.893,3.9488,4.064,4.1041,4.1532,4.214,4.2495,4.2677,4.2714,4.2585,4.2684,4.2965,4.2851,4.2687,4.25,4.2657,4.2659,4.2529,4.2801,4.2909,4.2898,4.2851,4.2871,4.2892,4.2892,4.2892,4.2892,4.2892,4.2891,4.2862,4.2862,4.2681,4.2414,4.211,4.1781,4.1429,4.1146,4.1053,4.1023,4.0923,4.0959,4.085,4.0122,4.0266,4.039,3.9696,3.9869,4.0125,3.9986,4.0003,3.9977,3.9781,3.9694,3.9606,3.9514,3.9422,3.9173,3.8609,3.8543,3.8361,3.7847,3.7781,3.7698,3.747,3.7244,3.7094,3.7042,3.603,3.5259,3.487,3.4767,3.4532,3.4101,3.3924,3.386,3.3899,3.386,3.3784,3.3694,3.3873,3.3848,3.217,3.2437,0.0,0.0,0.0,0.0,0.0,0.0,0.0,0.0,0.0,0.0,0.0,0.0,0.0,3.7129,3.6923,3.6859,3.6987,3.7007,3.7007,3.7007,3.7007,3.7029,3.7098,3.7108,3.7513,3.8512,3.7846,3.7813,3.8763,3.8994,3.9103,3.9103,4.0005,4.0501,4.0501,4.1288,4.1687,4.1705,4.1705,4.2195,4.3086,4.2879,4.236,4.1656,4.2307,4.2258,4.1778,4.2566,4.2984,4.3086,4.2947,4.2892,4.2892,4.2892,4.2892,4.2892,4.2892,4.2861,4.2793,4.2793,4.2715,4.257,4.2359,4.2023,4.1666,4.1452,4.1157,4.0912,4.0912,4.0912,4.0912,4.0912,4.0583,4.0305,4.0305,4.0305,4.0251,4.0125,4.0201,4.0218,3.9939,3.9901,3.9798,3.9541,3.9501,3.9445,3.9312,3.9299,3.9299,3.9299,3.9299,3.9004,3.8265,3.8081,3.7689,3.6964,3.6731,3.6309,3.5627,3.534,3.4858,3.4117,3.3835,3.3758,3.3899,3.3758,3.3694,3.3723,3.3975,3.3886,3.2214,3.224,0.0,0.0,0.0,0.0,0.0,0.0,0.0,0.0,0.0,0.0,3.7429,0.0,0.0,3.725,3.7116,3.7019,3.6989,3.7007,3.7007,3.7007,3.7038,3.7126,3.7222,3.7288,3.7471,3.7869,3.7683,3.7961,3.8967,3.9067,3.9382,3.9995,4.0321,4.0483,4.0429,4.0718,4.1144,4.1705,4.1705,4.2149,4.2947,4.2254,4.2163,4.2519,4.2667,4.2659,4.2566,4.2743,4.2936,4.3077,4.2899,4.2861,4.2892,4.2892,4.2892,4.2892,4.2892,4.2891,4.2862,4.2862,4.2843,4.2747,4.2391,4.2156,4.1906,4.1509,4.1238,4.1047,4.1047,4.0971,4.0888,4.0781,4.06,4.0412,4.033,4.0226,4.01,3.9871,3.9858,3.9794,3.9524,3.9484,3.9445,3.9365,3.9352,3.9339,3.9299,3.9299,3.9299,3.9299,3.9299,3.9146,3.8797,3.8646,3.848,3.825,3.7992,3.7145,3.552,3.5391,3.4944,3.4117,3.3835,3.3758,3.3899,3.3758,3.3761,3.3848,3.4025,3.3987,3.2483,0.0,0.0,0.0,0.0,0.0,0.0,0.0,0.0,0.0,0.0,3.7649,3.7438,3.7411,0.0,3.7306,3.7182,3.7068,3.7038,3.7009,3.6999,3.7038,3.7079,3.7156,3.7317,3.7345,3.7429,3.7594,3.7549,3.7809,3.8465,3.8528,3.8816,3.9392,3.9481,3.9516,3.9526,3.9877,4.0447,4.1216,4.1216,4.1805,4.2873,4.2364,4.2401,4.2892,4.2918,4.2946,4.2975,4.2936,4.2992,4.3077,4.2918,4.2853,4.2892,4.2892,4.2892,4.2892,4.2892,4.2892,4.2892,4.2892,4.2892,4.2844,4.2611,4.2384,4.2138,4.1712,4.1374,4.1111,4.0988,4.084,4.0728,4.0709,4.0595,4.0473,4.0342,4.0188,4.0037,3.982,3.9781,3.969,3.9418,3.9379,3.9352,3.9299,3.9299,3.9299,3.9299,3.9299,3.9299,3.9299,3.9232,3.9134,3.901,3.8835,3.8725,3.8725,3.8518,3.7607,3.5834,3.5753,3.5269,3.4204,3.3911,3.3873,3.4063,3.3873,3.3822,3.3899,3.3975,3.3924,0.0,0.0,0.0,0.0,0.0,0.0,0.0,0.0,0.0,0.0,0.0,3.7438,3.7429,3.742,3.7383,3.7306,3.7143,3.7038,3.7098,3.7058,3.7048,3.7108,3.7127,3.7204,3.7374,3.7363,3.74,3.7594,3.7485,3.7476,3.7595,3.7676,3.7757,3.7908,3.8022,3.8135,3.8174,3.9053,3.9831,4.0501,4.0564,4.1406,4.2892,4.2819,4.2837,4.29,4.3012,4.3058,4.3067,4.3058,4.3058,4.3067,4.2947,4.29,4.2882,4.291,4.2892,4.2892,4.2892,4.29,4.2882,4.291,4.29,4.29,4.29,4.2653,4.2346,4.2029,4.1578,4.114,4.0835,4.0631,4.0546,4.0636,4.0558,4.0436,4.03,4.0175,4.0007,3.9901,3.9862,3.9785,3.9528,3.9488,3.9448,3.9312,3.9299,3.9299,3.9299,3.9299,3.9299,3.9299,3.9134,3.9023,3.8996,3.8766,3.863,3.8588,3.8492,3.7806,3.6448,3.6322,3.5659,3.4308,3.4038,3.4025,3.4263,3.4025,3.3899,3.3899,3.3899,3.3758,0.0,3.2488,0.0,0.0,0.0,0.0,0.0,0.0,0.0,0.0,3.7605,3.7613,3.7567,3.7476,3.7383,3.7306,3.7259,3.7193,3.7118,3.7174,3.7239,3.7259,3.7307,3.7346,3.7401,3.7476,3.754,3.7604,3.7567,3.7595,3.7667,3.7694,3.7757,3.7908,3.8528,3.8608,3.8044,3.9472,4.0294,4.0519,4.1144,4.1949,4.2873,4.2248,4.2274,4.2822,4.2736,4.2774,4.2869,4.2754,4.2774,4.2851,4.2832,4.2832,4.2841,4.2881,4.2892,4.2892,4.2892,4.288,4.2823,4.2881,4.2853,4.2832,4.2832,4.2621,4.2384,4.2313,4.1842,4.134,4.1283,4.0948,4.0612,4.0429,4.0288,4.0188,4.0163,3.9944,3.9742,3.9603,3.9593,3.9524,3.9365,3.9339,3.9325,3.9299,3.9299,3.9299,3.9299,3.9299,3.9299,3.9299,3.9258,3.9161,3.901,3.8942,3.8821,3.8602,3.856,3.81,3.7131,3.6581,3.562,3.4171,3.3975,3.3924,3.3987,3.3924,3.3899,3.3899,3.3899,3.3809,0.0,0.0,0.0,0.0,0.0,0.0,0.0,0.0,0.0,3.7434,3.7649,3.764,3.7622,3.7457,3.7364,3.7438,3.7307,3.7222,3.7233,3.7287,3.7316,3.7336,3.7345,3.7383,3.7485,3.7503,3.7503,3.7503,3.7924,3.8148,3.813,3.8533,3.8634,3.8385,3.8788,3.8879,3.8578,3.9409,4.0239,4.1071,4.1506,4.2112,4.2892,4.2466,4.2474,4.2842,4.2736,4.2735,4.2783,4.2649,4.2668,4.2793,4.2851,4.2852,4.2871,4.2994,4.2985,4.2919,4.2975,4.2928,4.2852,4.2891,4.2881,4.2842,4.2812,4.2706,4.2532,4.232,4.1959,4.1569,4.1197,4.0884,4.0578,4.0275,4.0201,4.0163,4.0037,3.9845,3.9651,3.9528,3.9448,3.9379,3.9312,3.9299,3.9299,3.9299,3.9299,3.9299,3.9299,3.9299,3.9299,3.9299,3.9202,3.9121,3.901,3.889,3.878,3.8697,3.8574,3.8207,3.756,3.6764,3.5831,3.4737,3.4316,3.4088,3.4088,3.4025,3.3962,3.3899,3.3835,3.372,0.0,0.0,0.0,0.0,0.0,0.0,0.0,0.0,3.6628,3.7483,3.762,3.7595,3.7595,3.7466,3.74,3.754,3.7346,3.7233,3.7374,3.7364,3.7372,3.7429,3.7391,3.7419,3.7577,3.7503,3.7411,3.7411,3.8136,3.8582,3.8602,3.9311,3.9461,3.8893,3.9001,3.9093,3.9148,3.9428,4.0284,4.1686,4.185,4.2257,4.2892,4.2891,4.2881,4.2881,4.2756,4.2725,4.2743,4.2637,4.2639,4.2774,4.2862,4.2901,4.2957,4.3123,4.3087,4.2947,4.304,4.3002,4.2891,4.29,4.2882,4.2872,4.2823,4.2812,4.2725,4.2338,4.2086,4.1774,4.114,4.0825,4.0616,4.0258,4.0251,4.0238,3.9922,3.9755,3.9642,3.9484,3.9382,3.9299,3.9299,3.9299,3.9299,3.9299,3.9299,3.9299,3.9299,3.9299,3.9299,3.9299,3.9148,3.905,3.905,3.8851,3.8755,3.8832,3.8628,3.8339,3.7999,3.7012,3.6199,3.5599,3.4752,3.43,3.43,3.4163,3.4038,3.3899,3.3758,3.3633,0.0,0.0,0.0,0.0,0.0,0.0,0.0,0.0,3.7721,0.0,3.8114,3.7595,3.7595,3.7585,3.7522,3.7448,3.7485,3.7503,3.7402,3.7494,3.7558,3.7567,3.7576,3.7576,3.7604,3.7577,3.7522,3.742,3.7629,3.8003,3.8567,3.8813,3.8915,3.8817,3.9424,3.9499,3.8949,4.0322,4.1225,4.1621,4.2374,4.2801,4.291,4.2833,4.2812,4.2803,4.249,4.2427,4.2544,4.2524,4.2566,4.2649,4.2834,4.2975,4.3086,4.3104,4.3104,4.3049,4.2947,4.288,4.2832,4.2881,4.2871,4.2832,4.2872,4.2842,4.2783,4.2725,4.2409,4.1991,4.1666,4.1344,4.1013,4.0554,4.0473,4.035,3.9833,3.9629,3.9501,3.9352,3.9312,3.9299,3.9299,3.9299,3.9299,3.9299,3.9299,3.9299,3.9299,3.9299,3.9299,3.9299,3.9272,3.9258,3.9258,3.9232,3.9134,3.8983,3.8942,3.8841,3.8657,3.7489,3.6678,3.6362,3.5013,3.43,3.43,3.4163,3.4038,3.3899,3.3758,3.3633,0.0,0.0,0.0,0.0,0.0,0.0,0.0,0.0,3.7022,3.7841,3.779,3.7729,3.8193,3.7834,3.7494,3.7512,3.7503,3.7494,3.7512,3.7558,3.7595,3.7595,3.7531,3.7512,3.7586,3.7531,3.7466,3.7393,3.794,3.8368,3.8584,3.9553,3.9916,3.9536,4.0211,4.0482,4.0296,4.0966,4.1589,4.2156,4.2546,4.2728,4.2728,4.2657,4.2706,4.2852,4.2589,4.253,4.2665,4.2596,4.2617,4.2717,4.2853,4.2938,4.3003,4.3105,4.3077,4.2994,4.3021,4.2947,4.2843,4.2852,4.2852,4.2852,4.2757,4.2717,4.2686,4.2645,4.2427,4.2135,4.1785,4.1563,4.1318,4.0872,4.0686,4.0515,4.0125,3.9807,3.955,3.9339,3.9299,3.9299,3.9299,3.9299,3.9299,3.9299,3.9299,3.9299,3.9299,3.9299,3.9299,3.9299,3.9188,3.9134,3.9134,3.9067,3.901,3.8996,3.8928,3.8942,3.9067,3.7604,3.677,3.6714,3.5196,3.4337,3.4188,3.405,3.3962,3.3886,3.3697,3.3555,0.0,0.0,0.0,0.0,0.0,0.0,0.0,0.0,3.6643,0.0,3.7645,3.7853,3.8656,3.8065,3.7485,3.7577,3.7512,3.7485,3.7594,3.7595,3.7595,3.7595,3.7512,3.7494,3.7586,3.7512,3.7438,3.7393,3.8082,3.8529,3.8602,3.982,4.0292,3.9788,4.0464,4.0924,4.1079,4.1443,4.1965,4.2599,4.2599,4.2599,4.2599,4.2556,4.2657,4.2862,4.2658,4.2667,4.2783,4.2678,4.2717,4.2823,4.2928,4.2966,4.2994,4.3133,4.3087,4.2947,4.303,4.2984,4.2882,4.2842,4.2852,4.2843,4.2697,4.2629,4.2598,4.2524,4.2425,4.2267,4.1899,4.1766,4.1609,4.1163,4.096,4.0752,4.0305,3.991,3.9573,3.9352,3.9299,3.9299,3.9299,3.9299,3.9299,3.9299,3.9299,3.9299,3.9299,3.9299,3.9299,3.9299,3.9121,3.9023,3.9064,3.8942,3.8914,3.908,3.8969,3.9026,3.9232,3.763,3.677,3.6808,3.5443,3.4614,3.4347,3.4274,3.4172,3.4028,3.3712,3.3516,0.0,0.0,0.0,0.0,0.0,0.0,0.0,0.0,3.7521,3.8519,3.813,3.7853,3.8656,3.8148,3.7586,3.7595,3.7586,3.7586,3.7595,3.7595,3.7595,3.7595,3.7586,3.7586,3.7595,3.7586,3.7531,3.742,3.7557,3.7932,3.8567,3.8795,3.8905,3.8879,3.9698,4.0167,4.0176,4.1752,4.2563,4.2599,4.2599,4.2599,4.2599,4.2599,4.2668,4.2793,4.2586,4.2615,4.2793,4.2783,4.2833,4.291,4.304,4.3132,4.3187,4.3123,4.3104,4.3058,4.2947,4.2919,4.2892,4.29,4.2843,4.2803,4.2793,4.2706,4.2598,4.2524,4.2493,4.2433,4.2163,4.2072,4.1917,4.1334,4.1277,4.1105,4.0138,3.9694,3.9475,3.9325,3.9299,3.9299,3.9299,3.9299,3.9299,3.9299,3.9299,3.9299,3.9299,3.9299,3.9299,3.9299,3.9121,3.908,3.9272,3.9107,3.9064,3.9272,3.9272,3.9205,3.9023,3.7656,3.6782,3.6535,3.5756,3.5262,3.5053,3.5108,3.49,3.4459,3.3936,3.3555,0.0,0.0,0.0,0.0,0.0,3.4525,3.4444,3.5524,3.6634,3.6992,3.7343,3.7657,3.7859,3.7736,3.7595,3.7595,3.7595,3.7595,3.7595,3.7595,3.7595,3.7595,3.7595,3.7576,3.7485,3.7476,3.7457,3.7393,3.743,3.7609,3.7941,3.8494,3.8818,3.8866,3.957,4.0251,4.0857,4.197,4.2536,4.2536,4.2458,4.244,4.2536,4.2536,4.2635,4.2811,4.2734,4.2764,4.2853,4.2853,4.2881,4.2901,4.2947,4.2985,4.3013,4.2975,4.2975,4.2957,4.2919,4.2965,4.3002,4.2785,4.2776,4.2833,4.2665,4.2566,4.2526,4.2514,4.2435,4.2336,4.2163,4.2058,4.1916,4.1442,4.13,4.1123,4.0592,4.0171,3.982,3.9599,3.9418,3.9299,3.9299,3.9299,3.9299,3.9299,3.9299,3.9299,3.9299,3.9188,3.9161,3.9285,3.904,3.8942,3.9094,3.9037,3.8996,3.8985,3.9067,3.904,3.8887,3.7445,3.676,3.7016,3.6195,3.5586,3.5156,3.5454,3.5505,3.5329,3.4966,3.4732,0.0,0.0,0.0,0.0,0.0,3.3782,3.3398,3.4459,3.5585,3.5621,3.6406,3.7084,3.7038,3.7297,3.7512,3.7594,3.7595,3.7595,3.7595,3.7595,3.7595,3.7595,3.7595,3.7576,3.7476,3.7466,3.7466,3.7466,3.7466,3.7503,3.7604,3.8121,3.856,3.8967,3.9674,4.0509,4.1432,4.2181,4.2526,4.2526,4.2359,4.2366,4.2493,4.2516,4.2635,4.2793,4.2793,4.2833,4.2892,4.2892,4.2892,4.2892,4.2892,4.2892,4.2892,4.2892,4.2892,4.2892,4.2892,4.2947,4.2964,4.2745,4.2707,4.2717,4.2506,4.2405,4.2374,4.2374,4.2305,4.2207,4.2176,4.2055,4.1869,4.1593,4.1374,4.1146,4.0972,4.0573,4.0133,3.9833,3.959,3.9405,3.9312,3.9299,3.9299,3.9299,3.9299,3.9299,3.9299,3.9175,3.9134,3.9188,3.8996,3.8901,3.8996,3.8955,3.8914,3.8873,3.8914,3.8873,3.8738,3.7258,3.6688,3.7224,3.638,3.587,3.5765,3.6046,3.6105,3.5977,3.5629,3.5407,0.0,0.0,0.0,0.0,0.0,0.0,3.3039,3.3789,3.4506,3.4662,3.5435,3.6147,3.63,3.6848,3.7363,3.7549,3.7586,3.7604,3.7595,3.7595,3.7595,3.7595,3.7595,3.7595,3.7595,3.7604,3.7586,3.7586,3.7586,3.7604,3.7595,3.7595,3.8052,3.9058,3.9941,4.0808,4.1677,4.2301,4.2599,4.2589,4.2399,4.2366,4.2503,4.2578,4.2668,4.2793,4.2793,4.2833,4.291,4.291,4.291,4.2892,4.2892,4.2892,4.2892,4.2892,4.291,4.291,4.2892,4.2861,4.2793,4.2811,4.2665,4.2483,4.2346,4.2197,4.2093,4.2093,4.2093,4.2124,4.2267,4.2048,4.1808,4.1791,4.1498,4.1209,4.1209,4.0836,4.0412,4.0003,3.9794,3.9612,3.9352,3.9299,3.9285,3.9285,3.9285,3.9285,3.9285,3.9285,3.9202,3.9023,3.8996,3.8996,3.901,3.8887,3.886,3.8983,3.8873,3.8722,3.8588,3.7143,3.6573,3.7104,3.6261,3.6176,3.691,3.691,3.6754,3.6423,3.5899,3.5466,3.2153,0.0,0.0,0.0,0.0,0.0,3.2121,3.2895,3.3739,3.437,3.5342,3.627,3.678,3.7109,3.7334,3.7438,3.7457,3.7494,3.7594,3.7649,3.7667,3.7667,3.7667,3.764,3.7595,3.7512,3.7457,3.7457,3.7457,3.7503,3.7586,3.7595,3.8025,3.8931,3.985,4.0706,4.1481,4.2233,4.2578,4.2526,4.2377,4.2389,4.2578,4.2589,4.2707,4.2872,4.2872,4.2861,4.2841,4.2841,4.2861,4.2892,4.2892,4.2892,4.2892,4.2892,4.2862,4.2833,4.2881,4.2891,4.2843,4.2707,4.2686,4.2655,4.2277,4.2124,4.2082,4.2034,4.2048,4.2103,4.2163,4.192,4.1681,4.1769,4.1571,4.134,4.134,4.118,4.0895,4.0546,4.0062,3.9622,3.9412,3.9212,3.9053,3.8942,3.8944,3.8944,3.8944,3.8944,3.8942,3.8996,3.8996,3.905,3.9188,3.9053,3.8914,3.886,3.8725,3.856,3.8323,3.7392,3.7094,3.7529,3.6772,3.6684,3.7327,3.7429,3.7429,3.7341,3.7093,3.6698,0.0,0.0,0.0,0.0,0.0,0.0,3.1589,3.2064,3.2634,3.3138,3.4061,3.4904,3.5397,3.5888,3.6239,3.6306,3.6407,3.6738,3.7487,3.7631,3.7658,3.7694,3.7667,3.764,3.7649,3.7549,3.7485,3.7485,3.7485,3.7522,3.7604,3.7622,3.7864,3.8384,3.9301,4.0012,4.0442,4.1177,4.1713,4.2002,4.1916,4.2127,4.2599,4.2658,4.2747,4.291,4.2862,4.2851,4.2811,4.2745,4.2765,4.2861,4.2861,4.2872,4.2892,4.2892,4.2861,4.2812,4.2881,4.2787,4.264,4.2619,4.2548,4.2425,4.2149,4.2016,4.1973,4.1934,4.2012,4.2082,4.2076,4.1916,4.1754,4.1714,4.156,4.1374,4.1329,4.1226,4.107,4.0757,4.0337,3.9918,3.9579,3.9329,3.9101,3.8914,3.8832,3.8819,3.8873,3.8887,3.8914,3.8996,3.908,3.9121,3.9094,3.8969,3.886,3.8725,3.8588,3.8406,3.8209,3.714,3.6922,3.7685,3.6659,3.6571,3.7495,3.7584,3.7658,3.77,3.7612,3.7405,0.0,0.0,0.0,0.0,3.157,0.0,3.1332,3.138,3.1509,3.1644,3.2307,3.2949,3.3215,3.4003,3.4642,3.47,3.496,3.5651,3.7131,3.7363,3.7408,3.7461,3.7408,3.7408,3.7461,3.7408,3.7354,3.7336,3.7416,3.7506,3.7604,3.7667,3.773,3.7847,3.8654,3.9121,3.9211,3.9801,4.0453,4.1142,4.1152,4.1587,4.234,4.2465,4.258,4.2638,4.258,4.2577,4.2638,4.2523,4.2586,4.2774,4.2793,4.2833,4.29,4.291,4.2852,4.2793,4.2853,4.264,4.2348,4.251,4.2325,4.2037,4.2101,4.1955,4.1791,4.1791,4.1931,4.2058,4.2009,4.1984,4.1891,4.1688,4.1504,4.134,4.1243,4.1163,4.1047,4.0781,4.0607,4.0337,3.9777,3.9513,3.9289,3.8996,3.8846,3.8832,3.8955,3.8996,3.8996,3.8996,3.9161,3.9148,3.8846,3.8791,3.8725,3.8602,3.8448,3.8307,3.818,3.6705,3.641,3.7528,3.6207,3.6196,3.7525,3.7525,3.7568,3.77,3.7715,3.773,0.0,0.0,0.0,0.0,0.0,0.0,3.123,3.1249,3.1438,3.2035,3.2441,3.2863,3.3556,3.3889,3.4093,3.4227,3.4551,3.5004,3.5588,3.5847,3.5974,3.5924,3.5965,3.5974,3.5924,3.5857,3.5781,3.5685,3.6274,3.6934,3.7641,3.7649,3.799,3.8798,3.8896,3.9245,3.989,4.0033,4.0119,4.0165,4.0279,4.0446,4.0676,4.0815,4.089,4.0972,4.0954,4.1214,4.1667,4.1638,4.2034,4.2649,4.2764,4.2803,4.2832,4.2881,4.2786,4.2658,4.2783,4.2657,4.2445,4.2369,4.2297,4.2298,4.263,4.2284,4.1791,4.1791,4.1823,4.1884,4.1984,4.1848,4.1681,4.1747,4.1498,4.1255,4.134,4.1261,4.1146,4.1047,4.0745,4.032,3.9731,3.9418,3.9115,3.8725,3.8658,3.8699,3.8819,3.8928,3.8996,3.8996,3.9037,3.9023,3.8969,3.8766,3.863,3.8588,3.8363,3.815,3.7963,3.6986,3.6511,3.6656,3.6456,3.6783,3.7656,3.7656,3.7671,3.77,3.7817,3.7948,0.0,0.0,0.0,3.1587,0.0,0.0,0.0,3.1164,3.1223,3.1664,3.1854,3.2073,3.2476,3.2798,3.2989,3.2959,3.2954,3.3177,3.3805,3.4781,3.5432,3.5491,3.5532,3.5557,3.5557,3.5483,3.5375,3.5204,3.557,3.6211,3.7094,3.7122,3.7524,3.8465,3.8358,3.8491,3.8913,3.8866,3.9025,3.9351,3.9559,3.9849,4.0218,4.0429,4.0564,4.0599,4.0599,4.0754,4.1016,4.1338,4.1629,4.1946,4.2487,4.2745,4.2803,4.2833,4.2728,4.2599,4.2599,4.2447,4.2258,4.2205,4.21,4.2001,4.2271,4.209,4.1769,4.1637,4.1736,4.188,4.1749,4.1637,4.1604,4.1604,4.1397,4.122,4.1295,4.1215,4.1146,4.1105,4.0888,4.0529,4.0041,3.9722,3.9412,3.9015,3.881,3.8752,3.8887,3.8901,3.8955,3.9134,3.8996,3.8901,3.8901,3.8727,3.856,3.8504,3.8363,3.8178,3.7919,3.7159,3.6662,3.6491,3.6926,3.7364,3.7803,3.789,3.7948,3.7948,3.7919,3.8006,0.0,0.0,0.0,0.0,0.0,3.1385,0.0,0.0,0.0,3.1062,3.1127,3.1179,3.1179,3.1579,3.1804,3.1546,3.1263,3.1301,3.1935,3.3294,3.441,3.4964,3.4898,3.4841,3.4928,3.4849,3.4852,3.4997,3.5007,3.5461,3.6565,3.6584,3.6951,3.7828,3.7739,3.7676,3.7676,3.7622,3.7934,3.8595,3.8834,3.9247,3.9796,4.0084,4.0207,4.018,4.0216,4.0245,4.032,4.0979,4.1214,4.1282,4.2227,4.2639,4.2715,4.2774,4.2696,4.253,4.2422,4.2205,4.1998,4.2037,4.1951,4.1808,4.1778,4.1864,4.1926,4.1539,4.1655,4.1815,4.1482,4.1471,4.1487,4.1426,4.1306,4.1209,4.1232,4.1175,4.1117,4.1093,4.0982,4.0764,4.0379,4.0079,3.9772,3.9392,3.9037,3.8887,3.9037,3.8955,3.8999,3.9232,3.8985,3.8791,3.8764,3.8644,3.852,3.8422,3.8335,3.8207,3.8006,3.7319,3.6862,3.6703,3.7278,3.7703,3.7963,3.8151,3.8237,3.8194,3.8035,3.8035,0.0,0.0,0.0,0.0,3.2231,0.0,0.0,0.0,3.0861,3.063,0.0,3.0773,3.0773,0.0,0.0,3.047,3.0544,3.0499,3.0004,3.0366,3.1357,3.3163,3.2737,3.2354,3.2483,3.2331,3.2798,3.4204,3.4255,3.495,3.6588,3.6522,3.6818,3.7694,3.7649,3.7604,3.7604,3.7595,3.7685,3.7829,3.7981,3.8122,3.8254,3.8402,3.841,3.8306,3.8437,3.8723,3.9156,4.0002,4.0643,4.1221,4.2207,4.25,4.2389,4.2696,4.2589,4.2338,4.2318,4.217,4.1984,4.1873,4.2218,4.2523,4.1826,4.2118,4.2528,4.1793,4.1526,4.1459,4.1414,4.1329,4.1266,4.138,4.1306,4.1232,4.1352,4.1283,4.1169,4.1117,4.0982,4.0764,4.0379,4.0079,3.9781,3.9435,3.9142,3.9053,3.9245,3.9258,3.9188,3.905,3.8887,3.8736,3.863,3.849,3.8422,3.8391,3.8121,3.8078,3.8335,3.753,3.7074,3.703,3.7126,3.7494,3.818,3.8308,3.8323,3.8209,3.818,3.818,0.0,0.0,0.0,0.0,0.0,0.0,3.2011,0.0,3.0885,3.0661,0.0,0.0,0.0,0.0,0.0,0.0,2.9557,2.9196,2.9506,2.9325,2.9723,3.119,3.1131,3.1048,3.1279,3.1111,3.1278,3.2003,3.1986,3.2698,3.4391,3.4894,3.5742,3.7075,3.7479,3.7694,3.7766,3.7694,3.7712,3.7819,3.795,3.8019,3.8001,3.8172,3.8189,3.8051,3.8121,3.8251,3.8527,3.9623,4.0217,4.0537,4.1808,4.2318,4.2308,4.2369,4.229,4.2173,4.2058,4.1941,4.1841,4.1626,4.181,4.2009,4.1524,4.1703,4.1992,4.1507,4.1442,4.1504,4.1426,4.1352,4.1318,4.1295,4.1221,4.1169,4.1215,4.1117,4.1047,4.1093,4.0982,4.0829,4.0576,4.018,3.9836,3.9609,3.9252,3.9023,3.9121,3.9002,3.892,3.8983,3.8752,3.8614,3.8711,3.8532,3.8391,3.8391,3.8264,3.825,3.8377,3.7943,3.7697,3.7744,3.7744,3.7888,3.8209,3.8266,3.8209,3.802,3.802,3.7918,3.4618,0.0,0.0,0.0,0.0,0.0,0.0,0.0,0.0,0.0,3.0777,0.0,0.0,0.0,0.0,0.0,0.0,2.822,2.8782,2.8434,2.8612,2.9945,3.0028,2.9938,2.9824,2.9954,3.0064,3.0109,3.0259,3.0985,3.2458,3.3565,3.4793,3.6232,3.7246,3.7775,3.7837,3.7801,3.7801,3.7943,3.8036,3.8069,3.8053,3.8172,3.8138,3.7991,3.8042,3.7991,3.797,3.9209,3.9747,3.9937,4.1206,4.1884,4.2163,4.2132,4.2061,4.2005,4.1845,4.1747,4.1648,4.1408,4.1448,4.1487,4.1266,4.1374,4.1504,4.1266,4.1329,4.1437,4.138,4.1295,4.1238,4.1209,4.1152,4.1093,4.1093,4.1018,4.0971,4.1035,4.0935,4.0817,4.0709,4.0292,3.991,3.9768,3.9375,3.905,3.901,3.8835,3.8766,3.8928,3.8683,3.8586,3.8777,3.8586,3.8434,3.8391,3.8476,3.8488,3.8462,3.8387,3.8331,3.8307,3.8307,3.8278,3.8209,3.8135,3.802,3.7847,3.7847,3.7685,3.5504,3.5606,3.5698,3.5386,3.4478,3.3583,3.3235,3.2273,3.1402,3.1055,0.0,0.0,0.0,0.0,0.0,0.0,0.0,0.0,0.0,2.7193,2.7888,2.9859,2.9518,2.8737,2.7699,2.8539,2.9139,2.9135,2.9801,3.0641,3.1596,3.314,3.4385,3.5221,3.6968,3.7828,3.7703,3.7828,3.7925,3.7992,3.8001,3.8061,3.8192,3.8061,3.7897,3.773,3.7915,3.7757,3.7397,3.8488,3.9207,3.9676,4.0376,4.1138,4.1834,4.203,4.1984,4.1801,4.1801,4.1626,4.1392,4.1243,4.1306,4.1392,4.1243,4.1306,4.1392,4.1243,4.1163,4.114,4.1192,4.1065,4.0965,4.1152,4.1152,4.1093,4.1093,4.1099,4.1058,4.0935,4.0793,4.0697,4.0697,4.0362,4.0049,3.9914,3.955,3.9232,3.904,3.8996,3.8942,3.8819,3.8791,3.8791,3.8805,3.8669,3.8532,3.8422,3.8625,3.8736,3.8611,3.8832,3.8849,3.8588,3.8586,3.846,3.8209,3.8006,3.7847,3.77,3.77,3.7596,3.7125,3.7261,3.7283,3.605,3.5643,3.5197,3.3785,3.3053,3.2456,3.1572,3.1313,3.1015,0.0,0.0,0.0,0.0,0.0,0.0,0.0,2.6465,2.6473,2.7297,2.7257,2.6868,2.611,2.637,2.6817,2.7394,2.7679,2.8375,2.9675,3.144,3.2975,3.4232,3.6032,3.7254,3.7828,3.7915,3.7968,3.7933,3.8018,3.8001,3.7872,3.7819,3.7766,3.7703,3.773,3.764,3.7556,3.8264,3.8657,3.8868,3.9507,4.0175,4.0887,4.1532,4.1736,4.1648,4.1571,4.1408,4.1261,4.1163,4.1198,4.122,4.1053,4.1111,4.1181,4.1146,4.1128,4.1117,4.1175,4.1152,4.11,4.1134,4.1128,4.1087,4.1,4.0959,4.0923,4.0793,4.0805,4.0757,4.049,4.0313,4.0125,3.9807,3.9464,3.9142,3.8901,3.8794,3.8752,3.8805,3.8887,3.8928,3.8928,3.8966,3.8942,3.8807,3.8873,3.8832,3.86,3.8699,3.8725,3.8738,3.8474,3.8305,3.8274,3.7932,3.77,3.7569,3.7569,3.7405,3.8285,3.8342,3.8217,3.6706,3.6453,3.6073,3.4195,3.3626,3.3169,3.2061,3.1724,3.1376,0.0,0.0,0.0,0.0,0.0,0.0,0.0,2.5985,2.558,2.5196,2.5503,0.0,0.0,2.5032,2.546,2.6023,2.6306,2.7023,2.8306,3.0649,3.2396,3.3383,3.5746,3.729,3.789,3.7967,3.7967,3.789,3.7984,3.7897,3.7649,3.7631,3.7577,3.7558,3.754,3.7476,3.7409,3.7837,3.8111,3.8302,3.868,3.9248,3.9931,4.0821,4.127,4.1442,4.1324,4.1232,4.1152,4.1053,4.1099,4.1123,4.0942,4.0982,4.1082,4.1047,4.1058,4.1117,4.1175,4.1175,4.1163,4.1146,4.1076,4.1011,4.0923,4.0847,4.0805,4.0709,4.0733,4.068,4.0429,4.0362,4.0238,3.9833,3.9464,3.9169,3.8996,3.8794,3.8752,3.8958,3.9053,3.9107,3.9107,3.9225,3.9265,3.9142,3.901,3.8942,3.8985,3.8738,3.8641,3.8736,3.8361,3.8148,3.8089,3.7772,3.7568,3.7495,3.7495,3.7316]}]]